[[{"header":{"parameterUnit":"m.s-1","parameterCategory":1,"la1":30.6,"la2":29.2853,"lo1":-89.7004,"lo2":-87.6739,"dy":0.0162,"dx":0.0183,"nx":112,"ny":82,"refTime":"2024-08-28T12:00:00:Z","depth":0,"parameterNumber":2,"parameterNumberName":"U-component_of_WINDS"},"data":[0.0,0.0,0.0,0.0,0.0,0.0,0.0,0.0,0.0,0.0,0.0,0.0,0.0,0.0,0.0,0.0,0.0,0.0,0.0,0.0,0.0,0.0,0.0,0.0,0.0,0.0,0.0,0.0,0.0,0.0,0.0,0.0,0.0,0.0,0.0,0.0,0.0,0.0,0.0,0.0,0.0,0.0,0.0,0.0,0.0,0.0,0.0,0.0,0.0,0.0,0.0,0.0,0.0,0.0,0.0,0.0,0.0,0.0,0.0,0.0,0.0,0.0,0.0,0.0,0.0,0.0,0.0,0.0,0.0,0.0,0.0,0.0,0.0,0.0,0.0,0.0,0.0,0.0,0.0,0.0,0.0,0.0,0.0,0.0,0.0,0.0,0.0,0.0,0.0,0.0,-4.915,-5.1516,-5.3946,-5.5135,-5.4528,-5.3567,-5.1869,-4.9258,0.0,0.0,0.0,0.0,0.0,0.0,0.0,0.0,0.0,0.0,0.0,0.0,0.0,0.0,0.0,0.0,0.0,0.0,0.0,0.0,0.0,0.0,0.0,0.0,0.0,0.0,0.0,0.0,0.0,0.0,0.0,0.0,0.0,0.0,0.0,0.0,0.0,0.0,0.0,0.0,0.0,0.0,0.0,0.0,0.0,0.0,0.0,0.0,0.0,0.0,0.0,0.0,0.0,0.0,0.0,0.0,0.0,0.0,0.0,0.0,0.0,0.0,0.0,0.0,0.0,0.0,0.0,0.0,0.0,0.0,0.0,0.0,0.0,0.0,0.0,0.0,0.0,0.0,0.0,0.0,0.0,0.0,0.0,0.0,0.0,0.0,0.0,0.0,0.0,0.0,0.0,0.0,0.0,0.0,0.0,0.0,0.0,0.0,0.0,0.0,0.0,0.0,0.0,0.0,-4.9329,-5.3122,-5.4065,-5.4419,-5.4425,-5.2944,-5.1179,-4.9209,0.0,0.0,0.0,0.0,0.0,0.0,0.0,0.0,0.0,0.0,0.0,0.0,0.0,0.0,0.0,0.0,0.0,0.0,0.0,0.0,0.0,0.0,0.0,0.0,0.0,0.0,0.0,0.0,0.0,0.0,0.0,0.0,0.0,0.0,0.0,0.0,0.0,0.0,0.0,0.0,0.0,0.0,0.0,0.0,0.0,0.0,0.0,0.0,0.0,0.0,0.0,0.0,0.0,0.0,0.0,0.0,0.0,0.0,0.0,0.0,0.0,0.0,0.0,0.0,0.0,0.0,0.0,0.0,0.0,0.0,0.0,0.0,0.0,0.0,0.0,0.0,0.0,0.0,0.0,0.0,0.0,0.0,0.0,0.0,0.0,0.0,0.0,0.0,0.0,0.0,0.0,0.0,0.0,0.0,0.0,0.0,0.0,0.0,0.0,0.0,0.0,0.0,0.0,-4.8585,-5.0729,-5.3299,-5.3791,-5.362,-5.285,-5.1676,-5.0214,-4.8353,-4.5539,0.0,0.0,0.0,0.0,0.0,0.0,0.0,0.0,0.0,0.0,0.0,0.0,0.0,0.0,0.0,0.0,0.0,0.0,0.0,0.0,0.0,0.0,0.0,0.0,0.0,0.0,0.0,0.0,0.0,0.0,0.0,0.0,0.0,0.0,0.0,0.0,0.0,0.0,0.0,0.0,0.0,0.0,0.0,0.0,0.0,0.0,0.0,0.0,0.0,0.0,0.0,0.0,0.0,0.0,0.0,0.0,0.0,0.0,0.0,0.0,0.0,0.0,0.0,0.0,0.0,0.0,0.0,0.0,0.0,0.0,0.0,0.0,0.0,0.0,0.0,0.0,0.0,0.0,0.0,0.0,0.0,0.0,0.0,0.0,0.0,0.0,0.0,0.0,0.0,0.0,0.0,0.0,0.0,0.0,0.0,0.0,0.0,0.0,0.0,0.0,0.0,0.0,-4.9804,-5.1636,-5.2926,-5.3107,-5.2632,-5.1344,-5.0361,-4.9061,-4.722,-4.4597,0.0,0.0,0.0,0.0,0.0,0.0,0.0,0.0,0.0,0.0,0.0,0.0,0.0,0.0,0.0,0.0,0.0,0.0,0.0,0.0,0.0,0.0,0.0,0.0,0.0,0.0,0.0,0.0,0.0,0.0,0.0,0.0,0.0,0.0,0.0,0.0,0.0,0.0,0.0,0.0,0.0,0.0,0.0,0.0,0.0,0.0,0.0,0.0,0.0,0.0,0.0,0.0,0.0,0.0,0.0,0.0,0.0,0.0,0.0,0.0,0.0,0.0,0.0,0.0,0.0,0.0,0.0,0.0,0.0,0.0,0.0,0.0,0.0,0.0,0.0,0.0,0.0,0.0,0.0,0.0,0.0,0.0,0.0,0.0,0.0,0.0,0.0,0.0,0.0,0.0,0.0,0.0,0.0,0.0,0.0,0.0,0.0,0.0,0.0,0.0,0.0,0.0,-4.9044,-5.0894,-5.2233,-5.1822,-5.128,-5.0787,-4.9328,-4.7721,-4.6024,-4.3975,0.0,0.0,0.0,0.0,0.0,0.0,0.0,0.0,0.0,0.0,0.0,0.0,0.0,0.0,0.0,0.0,0.0,0.0,0.0,0.0,0.0,0.0,0.0,0.0,0.0,0.0,0.0,0.0,0.0,0.0,0.0,0.0,0.0,0.0,0.0,0.0,0.0,0.0,0.0,0.0,0.0,0.0,0.0,0.0,0.0,0.0,0.0,0.0,0.0,0.0,0.0,0.0,0.0,0.0,0.0,0.0,0.0,0.0,0.0,0.0,0.0,0.0,0.0,0.0,0.0,0.0,0.0,0.0,0.0,0.0,0.0,0.0,0.0,0.0,0.0,0.0,0.0,0.0,0.0,0.0,0.0,0.0,0.0,0.0,0.0,0.0,0.0,0.0,0.0,0.0,0.0,0.0,0.0,0.0,0.0,0.0,0.0,0.0,0.0,0.0,0.0,0.0,-4.8216,-4.9839,-5.0611,-5.0629,-5.0006,-4.8524,-4.7369,-4.6064,-4.4532,0.0,0.0,0.0,0.0,0.0,0.0,0.0,0.0,0.0,0.0,0.0,0.0,0.0,0.0,0.0,0.0,0.0,0.0,0.0,0.0,0.0,0.0,0.0,0.0,0.0,0.0,0.0,0.0,0.0,0.0,0.0,0.0,0.0,0.0,0.0,0.0,0.0,0.0,0.0,0.0,0.0,0.0,0.0,0.0,0.0,0.0,0.0,0.0,0.0,0.0,0.0,0.0,0.0,0.0,0.0,0.0,0.0,0.0,0.0,0.0,0.0,0.0,0.0,0.0,0.0,0.0,0.0,0.0,0.0,0.0,0.0,0.0,0.0,0.0,0.0,0.0,0.0,0.0,0.0,0.0,0.0,0.0,0.0,0.0,0.0,0.0,0.0,0.0,0.0,0.0,0.0,0.0,0.0,0.0,0.0,0.0,0.0,0.0,0.0,0.0,0.0,0.0,-4.501,-4.7001,-4.8445,0.0,-4.9274,-4.8688,-4.705,-4.606,-4.4839,-4.3303,0.0,0.0,0.0,0.0,0.0,0.0,0.0,0.0,0.0,0.0,0.0,0.0,0.0,0.0,0.0,0.0,0.0,0.0,0.0,0.0,0.0,0.0,0.0,0.0,0.0,0.0,0.0,0.0,0.0,0.0,0.0,0.0,0.0,0.0,0.0,0.0,0.0,0.0,0.0,0.0,0.0,0.0,0.0,0.0,0.0,0.0,0.0,0.0,0.0,0.0,0.0,0.0,0.0,0.0,0.0,0.0,0.0,0.0,0.0,0.0,0.0,0.0,0.0,0.0,0.0,0.0,0.0,0.0,0.0,0.0,0.0,0.0,0.0,0.0,0.0,0.0,0.0,0.0,0.0,0.0,0.0,0.0,0.0,0.0,0.0,0.0,0.0,0.0,0.0,0.0,0.0,0.0,0.0,0.0,0.0,0.0,0.0,0.0,0.0,0.0,0.0,0.0,-4.3929,-4.5469,-4.6707,-4.7873,-4.768,-4.7254,-4.6713,-4.5573,-4.4127,0.0,0.0,0.0,0.0,0.0,0.0,0.0,0.0,0.0,0.0,0.0,0.0,0.0,0.0,0.0,0.0,0.0,0.0,0.0,0.0,0.0,0.0,0.0,0.0,0.0,0.0,0.0,0.0,0.0,0.0,0.0,0.0,0.0,0.0,0.0,0.0,0.0,0.0,0.0,0.0,0.0,0.0,0.0,0.0,0.0,0.0,0.0,0.0,0.0,0.0,0.0,0.0,0.0,0.0,0.0,0.0,0.0,0.0,0.0,0.0,0.0,0.0,0.0,0.0,0.0,0.0,0.0,0.0,0.0,0.0,0.0,0.0,0.0,0.0,0.0,0.0,0.0,0.0,0.0,0.0,0.0,0.0,0.0,0.0,0.0,0.0,0.0,0.0,0.0,0.0,0.0,0.0,0.0,0.0,0.0,0.0,0.0,0.0,0.0,0.0,0.0,0.0,0.0,-4.2667,-4.4545,-4.5881,-4.6445,-4.6505,-4.6091,-4.503,-4.4126,-4.28,-4.081,0.0,0.0,0.0,0.0,0.0,0.0,0.0,0.0,0.0,0.0,0.0,0.0,0.0,0.0,0.0,0.0,0.0,0.0,0.0,0.0,0.0,0.0,0.0,0.0,0.0,0.0,0.0,0.0,0.0,0.0,0.0,0.0,0.0,0.0,0.0,0.0,0.0,0.0,0.0,0.0,0.0,0.0,0.0,0.0,0.0,0.0,0.0,0.0,0.0,0.0,0.0,0.0,0.0,0.0,0.0,0.0,0.0,0.0,0.0,0.0,0.0,0.0,0.0,0.0,0.0,0.0,0.0,0.0,0.0,0.0,0.0,0.0,0.0,0.0,0.0,0.0,0.0,0.0,0.0,0.0,0.0,0.0,0.0,0.0,0.0,0.0,0.0,0.0,0.0,0.0,0.0,0.0,0.0,0.0,0.0,0.0,0.0,0.0,0.0,0.0,0.0,0.0,-4.1819,-4.3555,-4.48,-4.5353,-4.5262,-4.4891,-4.4228,-4.3287,-4.2123,-4.0644,0.0,0.0,0.0,0.0,0.0,0.0,0.0,0.0,0.0,0.0,0.0,0.0,0.0,0.0,0.0,0.0,0.0,0.0,0.0,0.0,0.0,0.0,0.0,0.0,0.0,0.0,0.0,0.0,0.0,0.0,0.0,0.0,0.0,0.0,0.0,0.0,0.0,0.0,0.0,0.0,0.0,0.0,0.0,0.0,0.0,0.0,0.0,0.0,0.0,0.0,0.0,0.0,0.0,0.0,0.0,0.0,0.0,0.0,0.0,0.0,0.0,0.0,0.0,0.0,0.0,0.0,0.0,0.0,0.0,0.0,0.0,0.0,0.0,0.0,0.0,0.0,0.0,0.0,0.0,0.0,0.0,0.0,0.0,0.0,0.0,0.0,0.0,0.0,0.0,0.0,0.0,0.0,0.0,0.0,0.0,0.0,0.0,0.0,0.0,0.0,0.0,0.0,-4.1257,-4.2591,-4.3649,-4.4415,-4.4006,-4.3743,-4.3935,-4.2836,-4.1919,-4.1349,0.0,0.0,0.0,0.0,0.0,0.0,0.0,0.0,0.0,0.0,0.0,0.0,0.0,0.0,0.0,0.0,0.0,0.0,0.0,0.0,0.0,0.0,0.0,0.0,0.0,0.0,0.0,0.0,0.0,0.0,0.0,0.0,0.0,0.0,0.0,0.0,0.0,0.0,0.0,0.0,0.0,0.0,0.0,0.0,0.0,0.0,0.0,0.0,0.0,0.0,0.0,0.0,0.0,0.0,0.0,0.0,0.0,0.0,0.0,0.0,-3.211,0.0,0.0,0.0,0.0,0.0,0.0,0.0,0.0,0.0,0.0,0.0,0.0,0.0,0.0,0.0,0.0,0.0,0.0,0.0,0.0,0.0,0.0,0.0,0.0,0.0,0.0,0.0,0.0,0.0,0.0,0.0,0.0,0.0,0.0,0.0,0.0,0.0,0.0,0.0,0.0,0.0,-4.0564,-4.2055,-4.301,-4.3062,-4.2855,-4.2774,-4.2896,-4.2231,-4.1445,-4.0596,-3.9647,0.0,0.0,0.0,0.0,0.0,0.0,0.0,0.0,0.0,0.0,0.0,0.0,0.0,0.0,0.0,0.0,0.0,0.0,0.0,0.0,0.0,0.0,0.0,0.0,0.0,0.0,0.0,0.0,0.0,0.0,0.0,0.0,0.0,0.0,0.0,0.0,0.0,0.0,0.0,0.0,0.0,0.0,0.0,0.0,0.0,0.0,0.0,0.0,0.0,0.0,0.0,0.0,0.0,0.0,0.0,0.0,0.0,0.0,0.0,0.0,-3.2895,0.0,0.0,0.0,0.0,0.0,0.0,0.0,0.0,0.0,0.0,0.0,0.0,0.0,0.0,0.0,0.0,0.0,0.0,0.0,0.0,0.0,0.0,0.0,0.0,0.0,0.0,0.0,0.0,0.0,0.0,0.0,0.0,0.0,0.0,0.0,0.0,0.0,0.0,0.0,0.0,-4.0192,-4.1651,-4.2555,-4.2253,-4.2029,-4.1948,-4.2126,-4.1516,-4.0895,-4.0385,-3.9478,0.0,0.0,0.0,0.0,0.0,0.0,0.0,0.0,0.0,0.0,0.0,0.0,0.0,0.0,0.0,0.0,0.0,0.0,0.0,0.0,0.0,0.0,0.0,0.0,0.0,0.0,0.0,0.0,0.0,0.0,0.0,0.0,0.0,0.0,0.0,0.0,0.0,0.0,0.0,0.0,0.0,0.0,0.0,0.0,0.0,0.0,0.0,0.0,0.0,0.0,0.0,0.0,0.0,-3.6586,-3.6871,-3.6729,-3.7322,-3.7335,-3.6855,-3.5207,-3.4226,-3.3705,-3.3063,0.0,0.0,0.0,0.0,0.0,0.0,0.0,0.0,0.0,0.0,0.0,0.0,0.0,0.0,0.0,0.0,0.0,0.0,0.0,0.0,0.0,0.0,0.0,0.0,-3.7103,-3.7216,0.0,0.0,0.0,0.0,0.0,0.0,0.0,0.0,0.0,0.0,0.0,0.0,-4.0065,-4.1309,-4.2077,-4.1672,-4.1231,-4.1017,-4.1168,-4.0682,-4.0277,-4.021,-3.9331,-3.8727,0.0,0.0,0.0,0.0,0.0,0.0,0.0,0.0,0.0,0.0,0.0,0.0,0.0,0.0,0.0,0.0,0.0,0.0,0.0,0.0,0.0,0.0,0.0,0.0,0.0,0.0,0.0,0.0,0.0,0.0,0.0,0.0,-3.1803,-3.1498,0.0,0.0,0.0,0.0,0.0,0.0,0.0,0.0,0.0,0.0,0.0,0.0,0.0,-3.3875,-3.4946,-3.4958,-3.5306,-3.5902,-3.6472,-3.6823,-3.7084,-3.7887,-3.8095,-3.7825,-3.7779,0.0,-3.5177,-3.4387,0.0,0.0,0.0,0.0,0.0,0.0,0.0,0.0,0.0,0.0,0.0,0.0,0.0,0.0,0.0,0.0,0.0,0.0,0.0,0.0,0.0,0.0,-3.6912,-3.7488,-3.7297,-3.7011,0.0,-3.7414,-3.7447,-3.7105,-3.6977,0.0,0.0,0.0,0.0,0.0,0.0,0.0,-4.0356,-4.1033,-4.1323,-4.0953,-4.0103,-3.956,-3.9594,-3.9606,-3.9534,-3.9377,-3.9913,-4.0178,-4.0105,-3.8662,0.0,0.0,0.0,0.0,0.0,0.0,0.0,0.0,0.0,0.0,0.0,0.0,0.0,0.0,0.0,0.0,0.0,0.0,0.0,0.0,0.0,0.0,0.0,0.0,0.0,0.0,0.0,0.0,0.0,-3.1323,-3.1853,-3.1998,-3.1348,-3.0592,0.0,0.0,0.0,0.0,0.0,0.0,0.0,0.0,0.0,-3.2413,-3.3213,-3.4045,-3.4831,-3.4842,-3.5095,-3.5642,-3.6162,-3.6584,-3.6911,-3.7576,-3.7937,-3.8013,-3.8116,-3.7538,-3.6444,-3.5899,-3.5546,-3.5167,0.0,0.0,0.0,0.0,-3.2935,-3.3015,-3.3421,-3.3582,0.0,0.0,0.0,0.0,0.0,0.0,0.0,0.0,0.0,0.0,0.0,0.0,0.0,-3.6671,-3.6671,-3.6678,-3.6908,-3.7306,-3.7542,0.0,-3.736,-3.7221,-3.7128,0.0,0.0,0.0,0.0,-3.96,-3.9895,-4.0484,-4.0594,-3.9849,-3.9284,-3.8793,-3.8413,-3.8436,-3.8519,-3.8608,-3.9115,-3.9469,-3.9721,-3.9056,-3.8432,0.0,0.0,0.0,0.0,0.0,0.0,0.0,0.0,0.0,0.0,0.0,0.0,0.0,0.0,0.0,0.0,0.0,0.0,0.0,0.0,0.0,0.0,0.0,0.0,0.0,0.0,0.0,0.0,-3.1032,-3.1419,-3.1771,-3.0947,-3.019,0.0,0.0,0.0,0.0,0.0,0.0,-2.9165,-3.0706,-3.17,-3.187,-3.2813,-3.3561,-3.4109,-3.4164,-3.4395,-3.4814,-3.5356,-3.5795,-3.6145,-3.6827,-3.7311,-3.7548,-3.7708,-3.7534,-3.7156,-3.6816,-3.6453,-3.5935,-3.4793,-3.3916,-3.3237,-3.3073,-3.2544,-3.2067,-3.2628,-3.2723,-3.2664,-3.3255,0.0,-3.2983,-3.3031,0.0,0.0,0.0,0.0,-3.3337,-3.3921,-3.4558,-3.5114,-3.5572,-3.5943,-3.6263,-3.6487,-3.6922,-3.7365,0.0,-3.751,-3.7473,-3.7777,0.0,0.0,0.0,0.0,-3.9382,-3.9584,-4.0029,-3.9921,-3.9024,-3.8605,-3.8105,-3.7459,-3.7398,-3.7518,-3.7788,-3.829,-3.8754,-3.9196,-3.9196,-3.8747,-3.7773,0.0,0.0,0.0,0.0,0.0,0.0,0.0,0.0,0.0,0.0,0.0,0.0,0.0,0.0,0.0,0.0,0.0,0.0,0.0,0.0,0.0,0.0,0.0,0.0,0.0,0.0,0.0,0.0,0.0,-2.9514,-2.9782,0.0,0.0,0.0,0.0,-2.8055,-2.869,-2.9115,-2.9115,-2.9624,-3.0292,-3.1029,-3.1686,-3.228,-3.2815,-3.3031,-3.3212,-3.3233,-3.3843,-3.4302,-3.4647,-3.574,-3.6286,-3.634,-3.6869,-3.7126,-3.7056,-3.655,-3.5887,-3.5028,-3.3907,-3.3228,-3.2887,-3.2362,-3.1859,-3.1444,-3.1497,-3.154,-3.1651,-3.1702,-3.2033,-3.2427,-3.2453,-3.2395,0.0,0.0,-3.2782,-3.3194,-3.3265,-3.3848,-3.4495,-3.4775,-3.5271,-3.5716,-3.5968,-3.6417,-3.687,0.0,-3.7354,-3.7359,-3.7186,0.0,-3.7492,-3.8277,-3.8587,-3.9033,-3.9874,-3.9859,-3.9476,-3.8797,-3.7992,-3.721,-3.6615,-3.657,-3.6607,-3.676,-3.7967,-3.8864,-3.9275,-3.9241,-3.8889,-3.8188,-3.6772,0.0,0.0,0.0,0.0,0.0,0.0,0.0,0.0,0.0,0.0,0.0,0.0,0.0,0.0,0.0,0.0,0.0,0.0,0.0,0.0,0.0,0.0,0.0,0.0,0.0,0.0,0.0,0.0,-3.042,-3.0224,0.0,-2.9236,-2.8847,-2.8379,-2.7688,-2.8033,-2.8179,-2.7941,-2.8732,-2.9438,-2.9938,-3.0749,-3.1367,-3.1777,-3.2123,-3.2227,-3.2295,-3.2675,-3.3016,-3.3356,-3.3955,-3.4346,-3.4525,-3.4736,-3.4847,-3.4825,-3.4383,-3.4767,-3.5435,-3.4241,-3.346,-3.2918,-3.209,-3.1364,-3.0822,-3.0675,-3.0494,-3.037,-3.0733,-3.1079,-3.1298,-3.0976,-3.1092,-3.1279,-3.096,-3.1263,-3.1728,-3.2068,-3.2514,-3.3062,-3.3857,-3.4421,-3.4932,-3.5368,-3.5623,-3.5827,-3.6085,-3.6577,-3.6991,-3.7135,-3.7204,-3.7494,-3.8187,-3.8458,-3.8728,-3.9169,-3.9068,-3.867,-3.799,-3.7178,-3.6476,-3.5947,-3.5554,-3.5648,-3.635,-3.6828,-3.7447,-3.8224,-3.8239,-3.7989,-3.7423,-3.6773,-3.5857,0.0,0.0,0.0,0.0,0.0,0.0,0.0,0.0,0.0,0.0,0.0,0.0,0.0,0.0,0.0,0.0,0.0,0.0,0.0,0.0,0.0,0.0,0.0,0.0,0.0,-3.0908,-3.0967,-3.0855,-3.0408,-2.9983,-2.9515,-2.8814,-2.8108,-2.7422,-2.7172,-2.6883,-2.6577,-2.7227,-2.7847,-2.8283,-2.9285,-3.007,-3.0509,-3.085,-3.1024,-3.115,-3.1315,-3.1652,-3.2113,-3.2514,-3.2846,-3.313,-3.3243,-3.33,-3.3243,-3.296,-3.3505,-3.4525,-3.3628,-3.2949,-3.2395,-3.1445,-3.073,-3.0158,-2.983,-2.9543,-2.9406,-2.9921,-3.0224,-3.038,-3.0075,-3.0253,-3.0484,-3.0116,-3.0253,-3.0588,-3.0981,-3.1351,-3.1812,-3.26,-3.3223,-3.3758,-3.4317,-3.4483,-3.457,-3.4695,-3.541,-3.6164,-3.6687,-3.6736,-3.7017,-3.7787,-3.8066,-3.8292,-3.8486,-3.8389,-3.803,-3.7288,-3.6707,-3.6093,-3.536,-3.5,-3.5025,-3.555,-3.5891,-3.6439,-3.7158,-3.7451,-3.7357,-3.6826,-3.6712,-3.63,-3.5606,0.0,0.0,0.0,0.0,0.0,0.0,0.0,0.0,0.0,0.0,0.0,0.0,0.0,0.0,0.0,0.0,0.0,0.0,0.0,0.0,0.0,0.0,0.0,-3.1625,-3.1091,-3.0821,-3.0599,-3.0278,-2.9843,-2.9226,-2.865,-2.8051,-2.7349,-2.6215,-2.5448,-2.5071,-2.5071,-2.5386,-2.6075,-2.7323,-2.8292,-2.8984,-2.9253,-2.9549,-2.9863,-2.9863,-3.0216,-3.085,-3.1498,-3.1893,-3.216,-3.2514,-3.2628,-3.2628,-3.2285,-3.217,-3.2113,-3.1903,-3.1614,-3.1207,-3.0466,-2.9902,-2.947,-2.8917,-2.8684,-2.8781,-2.9343,-2.9554,-2.9606,-2.9889,-2.9942,-2.9942,-2.9942,-2.9942,-2.9942,-2.9942,-3.0339,-3.0774,-3.1062,-3.1606,-3.215,-3.2698,-3.3019,-3.3194,-3.3159,-3.3859,-3.4775,-3.5674,-3.5749,-3.6031,-3.707,-3.7419,0.0,-3.781,-3.7848,-3.7491,-3.665,-3.6527,-3.6029,-3.4782,-3.4867,-3.4805,-3.4453,-3.5336,-3.5961,-3.6193,-3.6943,-3.7105,-3.6522,-3.6537,-3.6851,-3.7434,0.0,0.0,0.0,0.0,0.0,0.0,0.0,0.0,0.0,0.0,0.0,0.0,0.0,0.0,0.0,0.0,0.0,0.0,0.0,0.0,0.0,-3.6376,-3.6214,-3.4063,-3.3629,-3.3288,-3.2591,-3.1993,-3.1234,-3.0421,-2.9589,-2.8546,-2.7185,-2.6147,-2.5349,-2.4787,-2.4972,-2.5402,-2.6075,-2.709,-2.7942,-2.8609,-2.8719,-2.8778,-2.8897,-2.8897,-2.9085,-2.9568,-3.0157,-3.0626,-3.0908,-3.1276,-3.1392,-3.1392,-3.1286,-3.1276,-3.1276,-3.1383,-3.1383,-3.1177,-3.0133,-2.9277,-2.8613,-2.8486,-2.8408,-2.8461,-2.8611,-2.8664,-2.8664,-2.8771,-2.8771,-2.8771,-2.8771,-2.8771,-2.8771,-2.8771,-2.9016,-2.9284,-2.927,-2.9791,-3.0406,-3.0673,-3.1027,-3.1426,-3.1816,-3.2195,-3.281,-3.41,-3.4697,-3.5168,-3.5831,-3.623,0.0,-3.6702,-3.6492,-3.62,-3.5955,-3.5229,-3.4769,-3.4698,-3.4061,-3.3968,-3.456,-3.4752,-3.5219,-3.6164,-3.6541,-3.6866,-3.715,-3.7629,-3.7943,0.0,0.0,0.0,0.0,0.0,0.0,0.0,0.0,0.0,0.0,0.0,0.0,0.0,0.0,0.0,0.0,0.0,0.0,0.0,0.0,0.0,0.0,-3.9006,-3.9419,-3.8157,-3.6763,-3.5538,-3.4786,-3.3873,-3.2939,-3.19,-3.0684,-2.9403,-2.7933,-2.6545,-2.5517,-2.4841,-2.4857,-2.528,-2.6067,-2.6744,-2.7401,-2.8053,-2.7822,-2.7702,-2.7642,-2.7581,-2.7822,-2.837,-2.9025,-2.9558,0.0,-3.046,-3.0694,-3.0704,-3.083,-3.0889,0.0,0.0,0.0,0.0,0.0,-2.9033,-2.8291,-2.8291,-2.8291,-2.8291,-2.8291,-2.8291,-2.8291,-2.8291,-2.8291,-2.8291,-2.8291,-2.8291,-2.8291,-2.8184,-2.8218,-2.8198,-2.7705,-2.802,-2.836,-2.8408,-2.8871,-2.954,-3.0167,0.0,0.0,-3.2513,-3.3501,-3.4343,-3.4895,-3.5263,-3.5494,-3.5629,-3.5426,-3.5237,-3.5155,-3.4617,-3.4231,-3.418,-3.3814,0.0,0.0,0.0,-3.5357,-3.6545,-3.7033,0.0,0.0,0.0,0.0,0.0,0.0,0.0,0.0,-4.1173,-4.1851,0.0,0.0,0.0,0.0,0.0,0.0,0.0,0.0,0.0,0.0,0.0,0.0,0.0,0.0,0.0,0.0,-4.1898,-4.2868,-4.2925,-4.0233,-3.7974,-3.7145,-3.5999,-3.4759,-3.3575,-3.2089,-3.0645,-2.9325,-2.746,-2.62,-2.5554,0.0,0.0,0.0,0.0,-2.6987,-2.7581,-2.6926,-2.651,-2.638,-2.6136,-2.6432,-2.7272,-2.7933,-2.8591,-2.9244,-2.9903,-3.0265,-3.0323,-3.0704,-3.0889,-3.0889,-3.0889,-3.083,-3.0644,-2.992,-2.9033,0.0,0.0,0.0,0.0,-2.8291,-2.8291,-2.8291,-2.8291,-2.8291,-2.8291,-2.8291,-2.8291,-2.8237,-2.7906,-2.7697,-2.7321,-2.6374,-2.6154,-2.613,-2.605,-2.6697,-2.7589,-2.8398,-2.9555,-3.0566,-3.1116,-3.2394,-3.3526,-3.4147,-3.4481,-3.4634,-3.4634,-3.4634,-3.4551,-3.4356,0.0,0.0,-3.3515,-3.3804,-3.4072,-3.4222,-3.5074,-3.6093,-3.7192,-3.8132,-3.891,-3.9597,-4.0277,-4.1018,-4.1814,-4.2781,-4.3731,-4.458,-4.4303,-4.4504,0.0,0.0,0.0,0.0,0.0,0.0,0.0,0.0,0.0,0.0,0.0,0.0,0.0,0.0,0.0,-4.2114,-4.3465,-4.4359,-4.4884,-4.3822,-4.2113,-3.988,-3.8395,-3.702,-3.567,-3.4393,-3.2937,-3.1263,-2.9867,-2.8806,-2.823,-2.7658,-2.7547,-2.7949,-2.7813,-2.7779,-2.7891,-2.7056,-2.6336,-2.5786,0.0,0.0,-2.5623,-2.6459,-2.7254,-2.7933,-2.8847,-2.9381,-2.9658,-3.0265,-3.0645,-3.0889,-3.0889,-3.0459,-2.9805,-2.9629,-2.9033,-2.8291,-2.8291,-2.8291,-2.8291,-2.8291,-2.8291,-2.8291,-2.8291,-2.8291,0.0,-2.8291,-2.8291,-2.8184,-2.7647,-2.6943,-2.6037,-2.4809,-2.4296,-2.4092,-2.419,-2.503,-2.6109,-2.7268,-2.8341,-2.9417,-3.0532,-3.1913,-3.2927,-3.3283,-3.3823,-3.4243,-3.4243,-3.4243,-3.4105,-3.3839,-3.3683,-3.356,-3.3416,-3.3411,-3.3658,-3.4324,-3.5765,-3.7104,-3.8194,-3.921,-4.01,-4.0746,-4.1577,-4.2173,-4.25,-4.408,-4.537,-4.6377,-4.5673,-4.5986,0.0,0.0,0.0,0.0,0.0,0.0,0.0,0.0,0.0,0.0,0.0,-3.6379,-3.7627,0.0,-4.1527,-4.33,-4.4611,-4.5548,-4.6002,-4.5611,-4.4424,-4.215,-4.0715,-3.9432,-3.8319,-3.7015,-3.5711,-3.4405,-3.2906,-3.1788,-3.1156,-3.0325,-2.9886,-3.0071,-2.962,-2.9344,-2.9166,-2.8035,-2.7021,-2.6059,-2.5394,-2.5026,-2.4841,-2.5493,-2.6042,-2.6606,-2.7573,-2.8173,-2.8531,-2.9677,-3.0333,-3.0694,-3.083,-3.0351,-2.9626,-2.9626,-2.9033,-2.8291,-2.8291,-2.8291,-2.8291,-2.8291,-2.8291,-2.8291,-2.8291,-2.8291,-2.8291,-2.8291,-2.8291,-2.8184,-2.7539,-2.6831,-2.5863,-2.4271,-2.373,-2.3488,-2.3193,-2.4066,-2.5206,-2.6274,-2.7373,-2.8491,-2.9646,-3.0824,-3.1913,-3.2766,-3.3398,-3.3781,-3.3894,-3.4034,-3.4034,-3.3894,-3.3683,-3.3513,-3.3398,-3.365,-3.4166,-3.5087,-3.6452,-3.7699,-3.8744,-3.9809,-4.0632,-4.1033,-4.1932,-4.2535,-4.2851,-4.4497,-4.5911,-4.7123,-4.7432,-4.7958,0.0,0.0,0.0,0.0,0.0,0.0,0.0,-3.5582,-3.5625,-3.5625,-3.6691,-3.7971,-3.9154,-4.0846,-4.259,-4.4072,-4.5324,-4.6254,-4.6624,-4.6491,-4.5808,-4.4303,-4.2978,-4.1861,-4.1015,-3.9714,-3.8555,-3.7705,-3.6198,-3.5067,-3.446,-3.3321,-3.2675,-3.2545,-3.1802,-3.1235,-3.0839,-2.9543,-2.8239,-2.6927,-2.5981,-2.5202,-2.4726,-2.4895,-2.5141,-2.5456,-2.6415,-2.7082,-2.7633,-2.9025,-2.9922,-3.0333,-3.0645,-3.0343,-2.9687,-2.9655,-2.9082,-2.8398,-2.832,-2.8291,-2.8291,-2.8291,-2.8291,-2.8291,-2.8291,-2.8291,-2.8291,-2.8291,-2.8291,-2.8184,-2.7638,-2.6978,-2.6045,-2.4394,-2.378,-2.3408,-2.2817,-2.3582,-2.4677,-2.546,-2.662,-2.7762,-2.8806,-2.9829,-3.097,-3.2351,-3.3056,-3.3471,-3.3768,-3.4076,-3.4285,-3.4243,-3.4021,-3.3768,-3.3471,-3.3997,-3.475,-3.5619,-3.6646,-3.7689,-3.8836,-3.9837,-4.0535,-4.0896,-4.1758,-4.2404,-4.282,-4.4303,-4.5778,-4.7193,-4.8717,-4.9585,-3.3618,-3.4741,-3.6156,-3.7892,-3.7957,-3.7755,0.0,-3.7873,-3.7577,-3.7577,-3.798,-3.8689,-4.0024,-4.104,-4.2316,-4.4301,-4.5312,-4.6061,-4.6785,-4.6829,-4.6741,-4.6535,-4.5235,-4.405,-4.3204,-4.219,-4.1227,-4.0337,-3.9446,-3.8659,-3.8073,-3.695,-3.6113,-3.5604,-3.4326,-3.335,-3.2783,-3.1293,-2.9886,-2.8637,-2.7357,-2.6164,-2.5018,-2.4787,-2.4672,-2.4795,-2.577,-2.6675,-2.7581,-2.8361,-2.9144,-2.9981,-3.0333,-3.0325,-3.0078,-2.9707,-2.9258,-2.8789,-2.8418,-2.8291,-2.8291,-2.8291,-2.8291,-2.8291,-2.8291,-2.8291,-2.8291,-2.8291,-2.8291,-2.8237,-2.7906,-2.6968,-2.5914,-2.521,-2.4062,-2.3221,-2.334,-2.377,-2.4381,-2.5186,-2.6235,-2.7278,-2.8305,-2.9463,-3.0656,-3.1901,-3.2828,-3.3569,-3.3992,-3.4577,-3.4908,-3.4634,-3.4592,-3.4343,-3.3725,-3.4015,-3.4408,-3.4878,-3.5648,-3.6651,-3.799,-3.8733,-3.9577,-4.0618,-4.1141,-4.1645,-4.2114,-4.3482,-4.5017,-4.6724,-4.8417,-4.9793,-3.4285,-3.5886,-3.7504,-3.8708,-3.9069,-3.913,-3.9303,-3.8999,-3.8647,-3.8647,-3.9042,-3.96,-4.0345,-4.1215,-4.2307,-4.364,-4.4819,-4.5851,-4.6388,-4.6844,-4.7164,-4.7279,-4.6741,-4.6048,-4.5144,-4.4549,-4.3901,-4.3245,-4.2366,-4.1571,-4.1013,-3.9778,-3.8867,-3.8319,-3.7287,-3.6399,-3.5649,-3.4148,-3.2675,-3.1281,-2.9456,-2.7931,-2.6677,-2.5798,-2.5087,-2.461,-2.5034,-2.5639,-2.6485,-2.7263,-2.8173,-2.9144,-2.9853,-3.0218,-3.0267,-2.9758,-2.9287,-2.8857,-2.8437,-2.8291,-2.8291,-2.8291,-2.8291,-2.8291,-2.8291,-2.8291,-2.8291,-2.8291,-2.8291,-2.8237,-2.796,-2.7334,-2.6609,-2.5826,-2.5199,-2.4736,-2.4659,-2.4817,-2.5092,-2.5609,-2.6084,-2.6754,-2.7741,-2.8724,-2.9829,-3.1371,-3.2612,-3.3611,-3.4189,-3.4743,-3.499,-3.4716,-3.4782,-3.4597,-3.4053,-3.4312,-3.4621,-3.4956,-3.5274,-3.5914,-3.6922,-3.7364,-3.801,-3.8975,-3.9563,-4.0187,-4.0774,-4.2028,-4.3704,-4.5895,-4.7341,-4.8964,-3.4366,-3.609,-3.7723,-3.8739,-3.926,-3.9676,-3.9991,-3.9681,-3.9335,-3.9424,-3.9753,-4.0083,-4.0338,-4.1134,-4.2065,-4.2978,-4.4247,-4.5384,-4.6121,-4.6844,-4.7381,-4.7666,-4.7849,-4.7749,-4.7191,-4.6623,-4.6122,-4.5735,-4.4904,-4.4242,-4.3779,-4.2525,-4.1548,-4.1039,-4.002,-3.9173,-3.8404,-3.6895,-3.5353,-3.3836,-3.1809,-3.0091,-2.8637,-2.7108,-2.5876,-2.4911,-2.4911,-2.5157,-2.5639,-2.6545,-2.7452,-2.848,-2.9381,-3.003,-3.0354,-2.9906,-2.9473,-2.9033,-2.8613,-2.8389,-2.8291,-2.8291,-2.8291,-2.8291,-2.8291,-2.8291,-2.8291,-2.8291,-2.8291,-2.8237,-2.8067,-2.7799,-2.7346,-2.6705,-2.6342,-2.6141,-2.5835,-2.5816,-2.5901,-2.5996,-2.6163,-2.652,-2.7289,-2.8271,-2.9433,-3.0968,-3.2519,-3.3741,-3.4228,-3.4784,-3.5098,-3.5037,-3.4969,-3.4822,-3.4539,-3.458,-3.4644,-3.4782,-3.4635,-3.4879,-3.5641,-3.5879,-3.6386,-3.725,-3.8024,-3.8747,-3.9431,-4.0672,-4.2492,-4.4753,-4.6168,-4.7855,-3.3421,-3.4745,-3.6285,-3.7992,-3.859,-3.902,-4.021,-4.0058,-3.9762,-4.0006,-3.9865,-3.9788,-4.0083,-4.058,-4.1358,-4.2598,-4.3687,-4.4791,-4.6016,-4.6844,-4.7467,-4.7922,-4.848,-4.9015,-4.9477,-4.8252,-4.7433,-4.7433,-4.7016,-4.6682,-4.6388,-4.5221,-4.4331,-4.3773,-4.2301,-4.1243,-4.0692,-3.9057,-3.7459,-3.5997,-3.4204,-3.2431,-3.0665,-2.8417,-2.6762,-2.5578,-2.5578,-2.5586,-2.5672,-2.6327,-2.7177,-2.814,-2.9076,-2.9844,-3.0392,-3.0227,-2.9912,-2.9482,-2.9053,-2.8633,-2.8291,-2.8291,-2.8291,-2.8291,-2.8291,-2.8291,-2.8291,-2.8291,-2.8291,-2.8291,-2.8291,-2.8077,-2.7906,-2.7833,-2.7323,-2.6763,-2.6754,-2.6674,-2.6458,-2.6054,-2.6407,-2.6793,-2.6883,-2.8349,-2.9803,-3.0846,-3.2655,-3.3936,-3.4091,-3.4701,-3.5299,-3.5816,-3.5303,-3.5033,-3.5321,-3.4777,-3.4314,-3.4042,-3.3564,-3.3476,-3.4042,-3.4264,-3.4884,-3.5916,-3.673,-3.7533,-3.8245,-3.9789,-4.1458,-4.3299,-4.5021,-4.6577,-3.2289,-3.3707,-3.5226,-3.6648,-3.7347,-3.791,-3.8617,-3.8659,-3.8521,-3.8258,-3.8248,-3.8241,-3.8024,-3.9146,-4.035,-4.1174,-4.2965,-4.4793,-4.6189,-4.6904,-4.7675,-4.8743,-4.9171,-4.9582,-5.0136,-4.9654,-4.9425,-4.9713,-4.9512,-4.932,-4.9309,-4.8013,-4.6961,-4.6328,-4.4775,-4.3545,-4.2647,-4.1217,-3.979,-3.8404,-3.5474,-3.317,-3.1361,-2.9963,-2.8545,-2.7194,-2.6952,-2.6537,-2.5953,-2.6614,-2.7159,-2.7762,-2.8948,-2.9667,-3.0138,-3.0529,-3.0371,-2.9883,-2.917,-2.8828,-2.8662,-2.8389,-2.8291,-2.8291,-2.8291,-2.8291,-2.8291,-2.8291,-2.8291,-2.8291,-2.8291,-2.8237,-2.8184,-2.8184,-2.797,-2.782,-2.782,-2.7534,-2.7299,-2.7153,-2.7043,-2.7091,-2.7669,-2.8551,-2.9818,-3.1633,-3.346,-3.4742,-3.5123,-3.5517,-3.5768,-3.5779,-3.5747,-3.5744,-3.5722,-3.5407,-3.4943,-3.4281,-3.3406,-3.2862,-3.2661,-3.2901,-3.365,-3.4885,-3.6027,-3.7192,-3.8245,-3.9519,-4.0875,-4.2362,-4.3922,-4.5258,-3.0938,-3.2257,-3.3623,-3.4634,-3.5317,-3.5899,-3.6608,-3.6808,-3.683,-3.6717,-3.6852,-3.7013,-3.6826,-3.8141,-3.9584,-4.0621,-4.2614,-4.4718,-4.6516,-4.7373,-4.8308,-4.9601,-5.0216,-5.0842,-5.1533,-5.1672,-5.1698,-5.1595,-5.1558,-5.1546,-5.1534,-4.997,-4.8832,-4.8162,-4.6488,-4.5187,-4.4308,-4.3019,-4.1528,-3.9687,-3.6841,-3.4604,-3.2943,-3.1937,-3.0616,-2.9157,-2.8623,-2.7907,-2.7142,-2.7444,-2.7753,-2.8131,-2.9194,-2.9736,-2.999,-3.0528,-3.0393,-2.9863,-2.9507,-2.917,-2.8877,-2.8603,-2.8418,-2.8291,-2.8291,-2.8291,-2.8291,-2.8291,-2.8291,-2.8291,-2.8291,-2.8291,-2.8291,-2.8291,-2.8291,-2.8291,-2.8291,-2.8086,-2.7851,-2.7748,-2.7441,-2.7393,-2.7824,-2.8721,-3.0126,-3.225,-3.3659,-3.4702,-3.5245,-3.5563,-3.5773,-3.5878,-3.6012,-3.6136,-3.6189,-3.5744,-3.5163,-3.4434,-3.33,-3.246,-3.2015,-3.2345,-3.309,-3.4213,-3.5673,-3.6936,-3.8026,-3.9223,-4.0382,-4.14,-4.2854,-4.3919,-2.941,-3.0432,-3.1476,-3.2108,-3.2667,-3.325,-3.438,-3.4652,-3.4809,-3.5367,-3.5726,-3.5982,-3.6264,-3.7447,-3.9007,-4.0889,-4.2564,-4.4517,-4.6943,-4.8143,-4.9239,-5.045,-5.1612,-5.2621,-5.3474,-5.4173,-5.4117,-5.3074,0.0,-5.3344,-5.3156,-5.1231,-4.993,-4.9423,-4.7623,-4.6314,-4.5595,-4.4466,-4.2641,-4.0084,-3.8457,-3.6918,-3.5398,-3.428,-3.2892,-3.1401,-3.0461,-2.9639,-2.8979,-2.871,-2.8788,-2.9103,-2.9695,-2.9922,-2.9922,-3.0274,-2.9962,-2.9425,-2.9968,-2.9565,-2.8865,-2.8881,-2.8598,-2.832,-2.8301,-2.8291,-2.8291,-2.8291,-2.8291,-2.8291,-2.8291,-2.8291,-2.8291,-2.8291,-2.8291,-2.8291,-2.8291,-2.8291,-2.8174,-2.7826,-2.7748,-2.7663,-2.7538,-2.896,-3.0709,-3.2431,-3.3151,-3.3786,-3.4608,-3.4891,-3.5352,-3.6204,-3.6052,-3.613,-3.6624,-3.5787,-3.5017,-3.4446,-3.3201,-3.237,-3.2099,-3.2576,-3.3268,-3.4124,-3.5675,-3.6852,-3.768,-3.903,-3.9895,-4.0376,-4.1723,-4.2658,-2.788,-2.863,-2.9396,-3.0563,-3.1104,-3.1539,-3.2352,-3.276,-3.2876,-3.2599,-3.2963,-3.3382,-3.3418,-3.5184,-3.7285,-3.9183,-4.1702,-4.4288,-4.6813,-4.7981,-4.9131,-5.0665,-5.1514,-5.2347,-5.3223,-5.4639,-5.5558,0.0,-5.5377,-5.5238,-5.525,-5.3327,-5.1889,-5.1106,-4.8809,-4.7234,-4.6565,-4.4961,-4.3388,-4.1762,-4.0514,-3.9072,-3.7482,-3.6325,-3.4914,-3.3237,-3.2369,-3.1237,-3.002,-2.9962,-2.9667,-2.9372,-3.003,-3.0098,-2.9922,-2.9981,-2.9627,-2.9076,-2.8956,-2.8879,-2.8804,-2.8644,-2.8539,-2.8449,-2.8335,-2.8291,-2.8291,-2.8291,-2.8291,-2.8291,-2.8291,-2.8291,-2.8291,-2.8291,-2.8291,-2.8291,-2.8291,-2.8291,-2.8262,-2.8154,-2.8294,-2.8476,-2.8653,-2.9445,-3.0378,-3.1472,-3.2055,-3.2971,-3.4547,-3.5143,-3.563,-3.6016,-3.6204,-3.6314,-3.6487,-3.6038,-3.5464,-3.4714,-3.4005,-3.3461,-3.3192,-3.3515,-3.4337,-3.5753,-3.6594,-3.7503,-3.8475,-3.9088,-3.9574,-3.9931,-4.1043,-4.1732,-2.6516,-2.7053,-2.7603,-2.8628,-2.9162,-2.9601,-3.0206,-3.0588,-3.0716,-3.0337,-3.0715,-3.1266,-3.1694,-3.3655,-3.5899,-3.8239,-4.1052,-4.3875,-4.6406,-4.7969,-4.936,-5.0862,-5.1933,-5.2881,-5.3785,-5.5208,-5.6295,-5.6687,-5.667,-5.6425,-5.5974,-5.4232,-5.266,-5.1389,-4.9294,-4.7764,-4.68,-4.5582,-4.4438,-4.3388,-4.2261,-4.0965,-3.9534,-3.8129,-3.6638,-3.5079,0.0,-3.2789,-3.1584,-3.1199,-3.0733,-3.0255,-3.0509,-3.0216,-2.9677,-2.9568,-2.8728,-2.7711,-2.7642,-2.7424,-2.7314,-2.816,-2.8294,-2.8129,-2.8327,-2.8286,-2.813,-2.8291,-2.8291,-2.8291,-2.8291,-2.8291,-2.8291,-2.8291,-2.8291,-2.8291,-2.8291,-2.8291,-2.8291,-2.8291,-2.8408,-2.8621,-2.8877,-2.9185,-2.9649,-3.037,-3.094,-3.1812,-3.3224,-3.4372,-3.5271,-3.5764,-3.6051,-3.6275,-3.6405,-3.6051,-3.5572,-3.503,-3.4475,-3.4136,-3.3958,-3.4429,-3.5289,-3.6571,-3.7199,-3.7895,-3.8631,-3.8788,-3.8998,-3.9154,-3.9891,-4.0576,-2.5023,-2.5487,-2.5917,-2.66,-2.7149,-2.7651,-2.8152,-2.8428,-2.8574,-2.8479,-2.8896,-2.953,-3.0589,-3.2381,-3.4683,-3.7516,-4.0437,-4.3205,-4.5778,-4.7764,-4.945,-5.073,-5.2139,-5.3387,-5.4348,-5.5483,-5.6369,-5.6779,-5.7114,-5.6891,-5.5958,-5.4361,-5.2575,-5.0679,-4.9244,-4.7892,-4.6639,-4.6165,-4.5582,-4.4883,-4.3862,-4.2703,-4.1468,-3.9752,-3.8247,-3.6834,0.0,0.0,-3.3176,-3.2227,-3.1614,-3.1267,-3.0995,-3.0284,-2.9422,-2.9094,-2.7771,-2.6136,-2.625,-2.5692,-2.5314,-2.7396,-2.7827,-2.7595,-2.8094,-2.8019,-2.7812,-2.8033,-2.8077,-2.813,-2.813,-2.8233,-2.8315,-2.8247,-2.8379,-2.8428,-2.831,-2.8291,-2.8291,-2.8291,-2.8291,-2.8344,-2.8631,-2.8631,-2.8834,-2.9396,-2.9921,-3.0536,-3.1362,-3.3124,-3.458,-3.5416,-3.5812,-3.6098,-3.6358,-3.6017,-3.5622,-3.5332,-3.4878,-3.459,-3.4609,-3.5282,-3.6044,-3.6818,-3.7481,-3.7986,-3.825,-3.8092,-3.8092,-3.8198,-3.8437,-3.9312,-2.2894,-2.3472,-2.4142,-2.5221,-2.5684,-2.6129,-2.6931,-2.7062,-2.7039,-2.7225,-2.7551,-2.8127,-2.938,-3.0815,-3.2918,-3.6258,-3.9111,-4.1813,-4.432,-4.6548,-4.8209,-4.9092,-5.0576,-5.1896,-5.2858,-5.4221,-5.5238,-5.5878,-5.5792,-5.5757,-5.5884,-5.3846,-5.1545,-4.9094,-4.8431,-4.7709,-4.6844,-4.6741,-4.6462,-4.5927,-4.5141,-4.42,-4.3108,-4.1293,-3.9726,-3.8307,-3.6383,0.0,-3.373,-3.2618,-3.1777,-3.1267,-3.0995,-3.047,-2.9686,-2.8907,-2.7702,-2.6311,-2.528,-2.4664,-2.454,-2.6168,-2.6859,-2.699,-2.695,-2.7095,-2.7197,-2.6974,-2.7034,-2.7206,-2.7206,-2.785,-2.8359,-2.8047,-2.8665,-2.915,-2.8447,-2.8291,-2.8291,-2.8291,-2.8291,-2.8291,-2.8344,-2.8354,-2.8451,-2.8834,-2.9132,-2.9701,-3.0785,-3.26,-3.4054,-3.4872,-3.5572,-3.6098,-3.6358,-3.6509,-3.6382,-3.588,-3.5702,-3.5615,-3.5654,-3.5799,-3.6249,-3.7044,-3.6977,-3.7078,-3.7346,-3.6623,-3.6514,-3.7024,-3.7257,-3.8043,-2.1343,-2.2135,-2.2934,-2.3824,-2.4533,-2.5228,-2.5841,-2.6163,-2.6309,-2.6347,-2.6704,-2.7332,-2.833,-2.9836,-3.1761,-3.4528,-3.7249,-3.9916,-4.2217,-4.4611,-4.6511,-4.7582,-4.9112,-5.0529,-5.1513,-5.2796,-5.3859,-5.4527,-5.4341,-5.4407,-5.483,-5.2491,-5.0375,-4.8661,-4.8202,-4.7709,-4.7106,-4.7121,-4.6931,-4.6565,-4.5837,-4.4957,-4.3904,-4.2035,-4.049,-3.9092,-3.715,0.0,-3.4346,-3.3016,-3.2123,-3.1498,-3.1054,-3.0401,-2.9549,-2.8778,-2.7452,-2.5876,-2.4911,-2.4046,-2.3457,-2.4392,-2.5121,-2.5753,-2.6319,-2.6478,-2.6464,-2.6599,-2.6713,-2.689,-2.7066,-2.7605,-2.8098,-2.8067,-2.8713,-2.9286,-2.9043,-2.8955,-2.8887,-2.8662,-2.8613,-2.8609,-2.849,-2.8691,-2.9001,-2.9494,-2.9944,-3.0677,-3.1635,-3.3068,-3.4152,-3.4567,-3.5466,-3.622,-3.6784,-3.6812,-3.6638,-3.6227,-3.5571,-3.5285,-3.5432,-3.5264,-3.5622,-3.6623,-3.6254,-3.6145,-3.6417,-3.5532,-3.5367,-3.5751,-3.5893,-3.6642,-1.9981,-2.0959,-2.1873,-2.2595,-2.3478,-2.4321,-2.5043,-2.5428,-2.5687,-2.5713,-2.6212,-2.6874,-2.7572,-2.9065,-3.0809,-3.2895,-3.5428,-3.7929,-4.0139,-4.2541,-4.456,-4.5937,-4.7508,-4.8915,-4.9925,-5.1159,-5.2168,-5.2929,-5.2645,-5.2701,-5.3195,-5.1001,-4.934,-4.8495,-4.8133,-4.7724,-4.7294,-4.7309,-4.7207,-4.6975,-4.624,-4.5401,-4.4406,-4.2668,-4.1056,-3.9609,-3.7684,0.0,0.0,-3.33,-3.2295,-3.1614,-3.1112,-3.0392,-2.954,-2.8838,-2.7513,-2.5876,-2.5026,-2.386,-2.2856,-2.3043,-2.3617,-2.4356,-2.5351,-2.5493,-2.5369,-2.5801,-2.5998,-2.618,-2.6478,-2.7057,-2.7721,-2.8405,-2.8861,-2.9207,-2.9631,-2.9629,-2.9473,-2.9121,-2.9117,-2.9119,-2.9064,-2.9489,-3.0035,-3.0532,-3.1156,-3.1929,-3.2803,-3.3688,-3.4418,-3.4764,-3.5669,-3.6542,-3.7313,-3.7171,-3.6885,-3.6516,-3.5476,-3.485,-3.4784,-3.4494,-3.4692,-3.5509,-3.5135,-3.5024,-3.5245,-3.4413,-3.4134,-3.4413,-3.4469,-3.5234,-1.8483,-1.9539,-2.073,-2.1881,-2.2324,-2.2938,-2.4491,-2.4739,-2.4831,-2.5547,-2.6084,-2.6604,-2.732,-2.8299,-2.9766,-3.1944,-3.4077,-3.6218,-3.8567,-4.0655,-4.2478,-4.3884,-4.5329,-4.6632,-4.7763,-4.902,-5.0088,-5.0924,-5.0456,-5.0343,-5.0866,-4.9853,-4.8903,-4.8091,-4.7794,-4.751,-4.7309,-4.7309,-4.7309,-4.7251,-4.6535,-4.5732,-4.4975,-4.3402,-4.1703,-3.9879,-3.8137,0.0,0.0,-3.3187,-3.218,-3.1325,-3.0995,-3.0645,-3.0206,-2.9272,-2.825,-2.709,-2.5562,-2.4402,-2.3479,-2.3168,-2.3153,-2.3259,-2.3315,-2.3498,-2.3655,-2.3399,-2.372,-2.425,-2.4551,-2.5788,-2.7434,-2.9294,-2.9403,-2.9284,-3.0002,-2.9834,-2.9616,-2.9512,-2.9734,-3.0012,-3.0304,-3.0809,-3.1322,-3.1638,-3.1995,-3.2513,-3.3411,-3.3835,-3.4577,-3.6063,-3.6719,-3.7307,-3.7878,-3.7889,-3.7533,-3.672,-3.6037,-3.5233,-3.4114,-3.3832,-3.3582,-3.3392,-3.3346,-3.3346,-3.3346,-3.2732,-3.2561,-3.2913,-3.3176,-3.3786,-1.7957,-1.9068,-2.027,-2.1303,-2.1796,-2.2461,-2.4167,-2.4398,-2.4554,-2.5601,-2.6045,-2.6468,-2.714,-2.7996,-2.9106,-3.0881,-3.2479,-3.4119,-3.6095,-3.8409,-4.034,-4.1614,-4.3457,-4.5061,-4.6228,-4.7252,-4.8353,-4.9455,-4.9083,0.0,-4.8865,-4.8593,-4.8214,-4.7752,-4.7681,-4.751,-4.7309,-4.7309,-4.7309,-4.7309,-4.6535,-4.5896,-4.5293,-4.3729,-4.211,-4.0401,-3.8533,0.0,0.0,-3.3356,-3.2295,-3.1556,-3.1054,-3.0704,-3.0323,-2.9745,-2.8907,-2.7933,-2.6909,-2.5806,-2.471,-2.4147,-2.3596,-2.3084,-2.3076,-2.3032,-2.2941,-2.3061,-2.3391,-2.3817,-2.4372,-2.5849,-2.7679,-2.9216,-2.9598,-2.9766,-3.046,-3.0488,-3.035,-3.0303,-3.0469,-3.0771,-3.1206,-3.2041,-3.2877,-3.3669,-3.4259,-3.4978,-3.5825,-3.6209,-3.676,-3.7725,-3.7663,-3.7773,-3.8479,-3.8368,-3.7923,-3.7203,-3.5834,-3.4636,-3.3797,-3.296,-3.2514,-3.2561,-3.2399,-3.2399,-3.2561,-3.194,-3.1835,-3.218,-3.2295,-3.2789,-1.761,-1.872,-1.9736,-2.0694,-2.1166,-2.184,-2.3485,-2.3897,-2.4249,-2.534,-2.5829,-2.6281,-2.6845,-2.7511,-2.852,-2.9988,-3.111,-3.2393,-3.4118,-3.6316,-3.8237,-3.9545,-4.1543,-4.3343,-4.4589,-4.5675,-4.6777,-4.7993,-4.7429,0.0,-4.7252,-4.7005,-4.6944,-4.7193,-4.7322,-4.7322,-4.7164,-4.7251,-4.7309,-4.7309,-4.6712,-4.6121,-4.5535,-4.4247,-4.2682,-4.0943,0.0,0.0,0.0,-3.3685,-3.2524,-3.173,-3.1228,-3.082,-3.0509,-3.0157,-2.9558,-2.8838,-2.8182,-2.7151,-2.6059,-2.537,-2.4448,-2.3534,-2.3293,-2.2801,-2.2362,-2.248,-2.305,-2.3798,-2.4664,-2.625,-2.7942,-2.9126,-2.9726,-3.0225,-3.0772,-3.0889,-3.0917,-3.0891,-3.1144,-3.16,-3.2217,-3.3211,-3.4208,-3.5176,-3.5851,-3.646,-3.715,-3.7483,-3.788,-3.8526,-3.8092,-3.8133,-3.9069,-3.884,-3.8344,-3.7684,-3.6002,-3.4636,-3.3741,-3.2571,-3.1893,-3.194,-3.1672,-3.1624,-3.1835,-3.1383,-3.1276,-3.1508,-3.1624,-3.217,-1.7221,-1.8255,-1.9145,-1.997,-2.0339,-2.0871,-2.2319,-2.3091,-2.3727,-2.4554,-2.5329,-2.5984,-2.6259,-2.6924,-2.7869,-2.9378,-3.0107,-3.1228,-3.3141,-3.4667,-3.6191,-3.7938,-3.9616,-4.1215,-4.2768,-4.4261,-4.5502,-4.6374,-4.5326,0.0,-4.6146,-4.5034,-4.4929,-4.6165,-4.6653,-4.6916,-4.6916,-4.7164,-4.7309,-4.7309,-4.7019,-4.6521,-4.5777,-4.5021,-4.3531,0.0,0.0,0.0,0.0,-3.4168,-3.2856,-3.1787,-3.1441,-3.1112,-3.083,-3.0509,-3.0157,-2.9813,-2.9213,-2.831,-2.7392,-2.6702,-2.5607,-2.4456,-2.379,-2.2668,-2.1544,-2.1235,-2.2292,-2.3914,-2.5264,-2.6796,-2.825,-2.9194,-2.9903,-3.0509,-3.083,-3.0889,-3.1005,-3.1267,-3.1767,-3.2504,-3.3402,-3.439,-3.5146,-3.573,-3.6059,-3.6375,-3.6646,-3.67,-3.7078,-3.7933,-3.7974,-3.8449,-3.9581,-3.9478,-3.8945,-3.8039,-3.6839,-3.5509,-3.4067,-3.2846,-3.195,-3.1325,-3.1054,-3.0889,-3.0889,-3.0889,-3.0898,-3.0889,-3.116,-3.194,-1.7361,-1.8121,-1.8847,-1.9708,-1.9965,-2.0452,-2.2327,-2.2548,-2.2733,-2.4025,-2.4212,-2.4344,-2.5149,-2.5849,-2.6788,-2.8126,-2.924,-3.0456,-3.1879,-3.3703,-3.5344,-3.6673,-3.9453,-4.1696,-4.2849,-4.3903,-4.4681,-4.4938,-4.4229,0.0,-4.4256,-4.3639,-4.4031,-4.5685,-4.5866,-4.6076,-4.6432,-4.6535,-4.6712,-4.7019,-4.68,-4.658,-4.6314,-4.5566,0.0,0.0,0.0,0.0,0.0,-3.5168,-3.3909,-3.297,-3.2227,-3.1835,-3.172,-3.1208,-3.0859,-3.0499,-3.0089,-2.9431,-2.871,-2.8044,-2.7134,-2.6042,-2.4949,-2.3347,-2.1985,-2.2111,-2.2863,-2.3976,-2.5737,-2.709,-2.831,-2.944,-3.0089,-3.0509,-3.083,-3.0889,-3.1064,-3.1566,-3.195,-3.2571,-3.3727,-3.4502,-3.5212,-3.6004,-3.6386,-3.67,-3.6947,-3.6989,-3.7096,-3.7364,-3.7524,-3.812,-3.9322,-3.9154,-3.8788,-3.8303,-3.7173,-3.5861,-3.4413,-3.3187,-3.218,-3.1325,-3.1054,-3.0889,-3.0889,-3.0889,-3.0889,-3.0898,-3.116,-3.1614,-1.7726,-1.8115,-1.8646,-1.9178,-1.9441,-1.9891,-2.13,-2.1577,-2.185,-2.2925,-2.2955,-2.3157,-2.4132,-2.4721,-2.5677,-2.7368,-2.8542,-2.9697,-3.1139,-3.2774,-3.4529,-3.641,-3.9337,-4.1594,-4.24,-4.3308,-4.3784,-4.3688,0.0,0.0,-4.2748,-4.2309,-4.2709,-4.4026,-4.468,-4.5187,-4.5492,-4.5792,-4.6121,-4.6462,-4.6447,-4.6506,-4.6594,-4.5911,0.0,0.0,0.0,0.0,0.0,-3.6607,-3.5212,-3.4134,-3.3233,-3.2675,-3.2342,-3.173,-3.1325,-3.1024,-3.0684,-3.0206,-2.9667,-2.9194,-2.8113,-2.6771,-2.5501,-2.3713,-2.2174,-2.2675,-2.3285,-2.4209,-2.6156,-2.7513,-2.8677,-2.9804,-3.0333,-3.0635,-3.083,-3.0889,-3.1054,-3.1508,-3.1835,-3.2352,-3.3388,-3.3931,-3.4469,-3.5146,-3.5422,-3.5576,-3.5772,-3.5772,-3.5881,-3.61,-3.6263,-3.6869,-3.8015,-3.8461,-3.8631,-3.8579,-3.7507,-3.6363,-3.519,-3.3685,-3.2457,-3.1662,-3.117,-3.0889,-3.0889,-3.0889,-3.0889,-3.0889,-3.1054,-3.1334,0.0,-1.8353,-1.8529,-1.8529,-1.8905,-1.9331,-1.9664,-2.0391,0.0,-2.1397,-2.1752,-2.2234,-2.3155,-2.3646,-2.4639,-2.6874,-2.7845,-2.8957,-3.0703,-3.2015,-3.3892,-3.693,-3.9251,-4.0836,-4.1431,-4.2351,-4.2808,-4.2486,0.0,0.0,-4.1608,-4.1143,-4.1084,-4.1597,-4.3191,-4.4125,-4.4172,-4.4911,-4.5429,-4.5687,-4.5972,-4.6254,-4.6506,-4.6105,0.0,0.0,0.0,0.0,0.0,-3.8299,-3.678,-3.5399,-3.4514,-3.3628,-3.2856,-3.218,-3.173,-3.1383,-3.1054,-3.0694,-3.0382,-3.0039,-2.865,-2.6892,-2.5623,-2.3837,-2.2355,-2.2981,-2.3651,-2.4625,-2.6589,-2.8053,-2.9272,-3.0216,-3.0694,-3.0889,-3.0889,-3.0889,-3.1005,-3.1276,-3.1556,-3.196,-3.2571,-3.2846,-3.3176,-3.347,-3.3526,-3.3526,-3.3526,-3.3526,-3.3751,-3.4312,-3.4368,-3.4858,-3.5959,-3.7429,-3.8409,-3.8684,-3.7667,-3.6796,-3.6122,-3.4179,-3.2789,-3.217,-3.1334,-3.0889,-3.0889,-3.0889,-3.0889,-3.0889,-3.0889,-3.1054,-2.0272,0.0,-1.8784,-1.8784,-1.8905,-1.9175,0.0,-2.0087,-2.0266,-2.0786,-2.078,-2.0931,-2.1598,-2.2451,-2.3582,-2.5304,-2.6756,-2.8328,-3.0092,-3.2391,-3.4665,-3.6742,-3.8529,-3.9733,-4.023,-4.1323,-4.1778,-4.1351,0.0,-4.0797,-4.0776,-4.0491,-4.0326,-4.0478,-4.1259,-4.2173,-4.3115,-4.3321,-4.3843,-4.4638,-4.4929,-4.5278,-4.5776,-4.5835,0.0,0.0,0.0,0.0,-4.0805,-3.9365,-3.8178,-3.7192,-3.6111,-3.5411,-3.4914,-3.3639,-3.296,-3.2561,-3.1556,-3.115,-3.0976,-3.0157,-2.9085,-2.7933,-2.6892,-2.501,-2.3362,-2.3736,-2.434,-2.5309,-2.7254,-2.8522,-2.9558,-3.0518,-3.083,-3.0889,-3.0889,-3.0889,-3.1005,-3.1276,-3.1383,-3.1614,-3.2227,-3.2389,-3.2504,-3.2856,-3.2913,-3.2913,-3.2913,-3.2913,-3.297,-3.314,-3.33,-3.3741,-3.4458,-3.6122,-3.7239,-3.7507,-3.7078,-3.6309,-3.5245,-3.3843,-3.2732,-3.1903,-3.1228,-3.0889,-3.0889,-3.0889,-3.0889,-3.0889,-3.0889,-3.0947,-2.1679,-2.0416,-1.923,-1.9132,-1.9001,-1.9038,-1.9671,-1.974,-1.9731,-2.0069,-2.0099,-2.0227,-2.0886,-2.1795,-2.3014,-2.454,-2.6092,-2.7877,-3.0242,-3.2588,-3.4513,-3.5736,-3.7528,-3.8816,0.0,-4.0371,-4.0988,0.0,0.0,-4.0413,-4.0162,-4.0003,-3.9929,-3.9929,-4.0083,-4.0706,-4.194,-4.2186,-4.266,-4.3402,-4.3687,-4.4219,-4.4957,-4.5018,-4.4833,0.0,0.0,0.0,-4.1544,-4.0427,-3.9403,-3.8372,-3.7257,-3.6569,-3.6025,-3.458,-3.3741,-3.3187,-3.195,-3.1334,-3.0995,-3.0333,-2.9677,-2.8966,-2.7993,-2.6589,-2.5325,-2.4911,-2.5157,-2.5989,-2.7744,-2.8829,-2.9667,-3.0645,-3.0889,-3.0889,-3.0889,-3.0889,-3.0947,-3.1112,-3.1112,-3.1218,-3.1556,-3.1614,-3.1672,-3.1845,-3.1845,-3.1845,-3.1845,-3.1845,-3.1903,-3.2065,-3.217,-3.2504,-3.3119,-3.4346,-3.5521,-3.6623,-3.6188,-3.5642,-3.5146,-3.3685,-3.2457,-3.1392,-3.1064,-3.0889,-3.0889,-3.0889,-3.0889,-3.0889,-3.0889,-3.0889,-2.2722,-2.1317,-1.9924,-1.9633,-1.9337,-1.9192,-1.9439,-1.9499,-1.9499,-1.9499,-1.9693,-2.0013,-2.0611,-2.142,-2.2563,-2.4162,-2.5737,-2.7713,-3.0506,-3.237,-3.3638,-3.4197,-3.6194,0.0,-3.7802,-3.9319,-4.0148,0.0,0.0,-4.0187,-3.9722,-3.9697,-3.9697,-3.9697,-3.9426,-3.9724,-4.058,-4.1084,-4.1571,-4.2061,-4.2355,-4.2971,-4.3829,-4.381,-4.3932,0.0,0.0,0.0,-4.198,-4.1235,-4.0262,-3.9221,-3.8238,-3.7507,-3.685,-3.5367,-3.448,-3.3751,-3.2342,-3.145,-3.083,-3.0577,-3.0274,-2.9804,-2.8957,-2.8301,-2.7581,-2.6449,-2.6266,-2.6736,-2.8182,-2.9076,-2.9785,-3.0704,-3.0889,-3.0889,-3.0889,-3.0889,-3.0889,-3.0889,-3.0889,-3.0889,-3.0889,-3.0889,-3.0889,-3.0889,-3.0889,-3.0889,-3.0889,-3.0889,-3.0995,-3.1218,-3.1218,-3.1441,-3.1998,-3.2561,-3.373,-3.563,-3.5135,-3.4814,-3.4925,-3.3356,-3.2018,-3.0889,-3.0889,-3.0889,-3.0889,-3.0889,-3.0889,-3.0889,-3.0889,-3.0889,-2.2886,-2.1906,-2.1022,-2.0615,-2.0241,-1.998,-2.0087,-2.01,-2.01,-2.01,-2.0134,-2.0261,-2.0616,-2.1074,-2.19,-2.3483,-2.6078,-2.822,-2.936,-3.0717,-3.1729,-3.2127,0.0,-3.5522,-3.5663,-3.7757,0.0,0.0,0.0,-3.9785,-3.9697,-3.9697,-3.9697,-3.9697,-3.9426,-3.9258,-3.9141,-3.9465,-3.9917,-4.0465,-4.0971,-4.1345,-4.1703,-4.2585,-4.2902,0.0,0.0,-4.2457,-4.1696,-4.1134,-4.0529,-3.9917,-3.9297,-3.8788,-3.8303,-3.6904,-3.597,-3.5135,-3.2892,-3.1614,-3.0889,-3.083,-3.0577,-3.0265,-2.9795,-2.9431,-2.9007,-2.8609,-2.8122,-2.7924,-2.8728,-2.9568,-3.0333,-3.082,-3.0889,-3.0889,-3.0889,-3.0889,-3.0889,-3.0889,-3.0889,-3.0889,-3.0889,-3.0889,-3.0889,-3.0889,-3.0889,-3.0889,-3.0889,-3.0889,-3.0889,-3.0947,-3.0947,-3.1112,-3.1383,-3.1787,-3.2457,-3.3593,-3.4009,-3.3784,-3.2732,-3.194,-3.1334,-3.0889,-3.0889,-3.0889,-3.0889,-3.0889,-3.0889,-3.0889,-3.0889,-3.0889,-2.3268,-2.226,-2.1348,-2.1219,-2.0679,-2.0274,-2.0434,-2.0347,-2.0173,-2.0173,-2.0361,-2.0514,-2.0648,-2.1249,-2.2237,-2.3843,-2.557,-2.7076,-2.824,-2.9351,-3.0251,-3.0761,0.0,-3.4207,-3.4547,-3.6717,0.0,0.0,0.0,0.0,-3.9697,-3.9697,-3.9697,-3.9697,-3.9102,-3.8684,-3.8356,-3.7933,-3.8185,-3.9193,-3.9428,-3.9815,-4.0363,-4.1032,-4.1332,-4.1382,0.0,-4.1246,-4.0833,-4.058,-4.0236,-3.9826,-3.9465,-3.9218,-3.8841,-3.7054,-3.5521,-3.4123,-3.2675,-3.1614,-3.0889,-3.0889,-3.082,-3.0635,-3.0274,-3.0089,-2.9903,-2.9568,-2.9025,-2.8659,-2.9085,-2.9558,-3.0039,-3.0518,-3.0635,-3.0704,-3.083,-3.0889,-3.0889,-3.0889,-3.0889,-3.0889,-3.0889,-3.0889,-3.0889,-3.0889,-3.0889,-3.0889,-3.0889,-3.0889,-3.0889,-3.0889,-3.0889,-3.1005,-3.1276,-3.172,-3.2352,-3.3172,-3.3579,-3.3332,-3.2227,-3.1777,-3.1334,-3.0889,-3.0889,-3.0889,-3.0889,-3.0889,-3.0889,-3.0889,-3.0889,-3.0889,-2.3216,-2.2269,-2.1385,-2.1258,-2.0814,-2.0433,-2.0666,-2.0531,-2.0337,-2.008,-2.0365,-2.0612,-2.0477,-2.132,-2.2561,-2.397,-2.4772,-2.5693,-2.6847,-2.7823,-2.8615,-2.9089,-3.1269,-3.2948,-3.3526,0.0,0.0,0.0,0.0,0.0,-3.9697,-3.9697,-3.9697,-3.9697,-3.8841,-3.825,-3.7868,-3.6634,-3.6634,-3.7933,-3.7897,-3.8307,-3.904,-3.9376,-3.9622,-3.979,-3.979,-3.9699,-3.9595,-3.9647,-3.9608,-3.9478,-3.9362,-3.9154,-3.8776,-3.7042,-3.5068,-3.3119,-3.2504,-3.1672,-3.0889,-3.0889,-3.0889,-3.083,-3.0577,-3.0509,-3.046,-3.0225,-2.9695,-2.9213,-2.9372,-2.9431,-2.9558,-2.9981,-3.0147,-3.0265,-3.046,-3.0645,-3.0762,-3.0762,-3.083,-3.0889,-3.0889,-3.0889,-3.0889,-3.0889,-3.0889,-3.0889,-3.0889,-3.0889,-3.0889,-3.0889,-3.0889,-3.1112,-3.1614,-3.2227,-3.2924,-3.3579,-3.3512,-3.3151,-3.2342,-3.1893,-3.145,-3.0889,-3.0889,-3.0889,-3.0889,-3.0889,-3.0889,-3.0889,-3.0889,-3.0889,-2.2266,-2.167,-2.1205,-2.0494,-2.0641,-2.0992,-2.0696,-2.0765,-2.067,-1.9826,-2.0131,-2.0309,-1.9788,-2.0968,-2.2286,-2.31,-2.405,-2.473,-2.4837,-2.566,-2.6326,-2.6394,-2.9116,-3.1343,0.0,0.0,0.0,0.0,0.0,0.0,-3.9697,-3.9697,-3.9697,-3.9697,-3.8841,-3.8133,-3.7512,-3.5838,-3.5477,-3.6429,-3.6406,-3.6677,-3.7281,-3.7578,-3.7832,-3.8096,-3.806,-3.8072,-3.8108,-3.836,-3.8647,-3.8893,-3.9206,-3.8788,-3.8039,-3.7311,-3.5553,-3.347,-3.2856,-3.1903,-3.0889,-3.0889,-3.0889,-3.0889,-3.0889,-3.0889,-3.083,-3.083,-3.0352,-2.9745,-2.949,-2.9422,-2.9372,-2.9153,-2.9263,-2.9481,-2.9481,-3.003,-3.045,-3.045,-3.0704,-3.0889,-3.0889,-3.0889,-3.0889,-3.0889,-3.0889,-3.0889,-3.0889,-3.0889,-3.0889,-3.0889,-3.0889,-3.1334,-3.2514,-3.3402,-3.4145,-3.4813,-3.3773,-3.3016,-3.2685,-3.1835,-3.1218,-3.0898,-3.0889,-3.0889,-3.0889,-3.0889,-3.0889,-3.0889,-3.0889,-3.0889,-2.2164,-2.16,-2.1234,-2.0428,-2.0358,-2.0399,-2.0024,-1.9982,-1.9825,-1.9267,-1.9125,-1.9226,-1.9461,-2.0396,-2.1385,-2.2286,-2.2929,-2.3353,-2.3629,-2.4561,-2.5297,-2.5741,-2.8536,-3.0955,0.0,0.0,0.0,0.0,0.0,0.0,-3.9697,-3.9697,-3.9697,-3.9697,-3.8841,-3.8027,-3.7245,-3.5674,-3.4814,-3.4613,-3.4747,-3.5124,-3.574,-3.6068,-3.6231,-3.634,-3.6534,-3.6708,-3.6958,-3.7643,-3.8185,-3.8631,-3.927,-3.8893,-3.7921,-3.7311,-3.5608,-3.3526,-3.2913,-3.1903,-3.0947,-3.1102,-3.116,-3.1218,-3.1614,-3.1614,-3.1508,-3.1672,-3.0966,-3.0089,-2.954,-2.9144,-2.8797,-2.8728,-2.8907,-2.9203,-2.9362,-2.9903,-3.0382,-3.0382,-3.0694,-3.0889,-3.0889,-3.0889,-3.0889,-3.0889,-3.0889,-3.0889,-3.0889,-3.0889,-3.0889,-3.0889,-3.1228,-3.1787,-3.2628,-3.3685,-3.4491,-3.498,-3.4491,-3.3853,-3.296,-3.2227,-3.1556,-3.0889,-3.0889,-3.0889,-3.0889,-3.0889,-3.0889,-3.0889,-3.0889,-3.0889,-2.1937,-2.1538,-2.1215,-2.0026,-1.9736,-1.9571,-1.867,-1.8741,-1.8742,-1.7861,-1.7495,-1.7691,-1.8812,-1.9671,-2.0512,-2.1555,-2.1975,-2.2363,-2.2736,-2.3571,-2.4422,-2.5357,-2.823,-3.0655,0.0,0.0,0.0,0.0,0.0,0.0,0.0,-3.9697,-3.9697,-3.9697,-3.8841,-3.8027,-3.7245,-3.5674,-3.4536,-3.3749,-3.3537,-3.3741,-3.4346,-3.4591,-3.4814,-3.4969,-3.5256,-3.5653,-3.62,-3.7012,-3.7773,-3.8619,-3.9374,-3.905,-3.8027,-3.7471,-3.5827,-3.3808,-3.3187,-3.218,-3.1228,-3.1498,-3.1672,-3.1835,-3.2332,-3.2457,-3.241,-3.2446,-3.1767,-3.084,-3.0187,-2.9203,-2.8328,-2.8182,-2.843,-2.8737,-2.8897,-2.9618,-3.0265,-3.0265,-3.0587,-3.0889,-3.0889,-3.0889,-3.0889,-3.0889,-3.0889,-3.0889,-3.0889,-3.0889,-3.0889,-3.0889,-3.145,-3.2018,-3.2628,-3.3808,-3.4602,-3.4858,-3.488,-3.4346,-3.3176,-3.2457,-3.173,-3.0889,-3.0889,-3.0889,-3.0889,-3.0889,-3.0889,-3.0889,-3.0889,-3.0889,-2.1525,-2.1271,-2.1038,-1.9178,-1.893,-1.8553,-1.6467,-1.7092,-1.7566,-1.5325,-1.5178,-1.5894,-1.7647,-1.8824,-1.9785,-2.0831,-2.1356,-2.1744,-2.2059,-2.2687,-2.3596,-2.4949,-2.7862,0.0,0.0,0.0,0.0,0.0,0.0,0.0,0.0,-3.9697,-3.9697,-3.9697,-3.8841,-3.8133,-3.7512,-3.5772,-3.4658,-3.4097,-3.281,-3.2504,-3.3063,-3.314,-3.347,-3.4022,-3.4334,-3.5002,-3.5861,-3.6472,-3.756,-3.8841,-3.9478,-3.9166,-3.8303,-3.7737,-3.6208,-3.4424,-3.3808,-3.2799,-3.1845,-3.2113,-3.2457,-3.2799,-3.3063,-3.3346,-3.3526,-3.3233,-3.2675,-3.2113,-3.1459,-2.9707,-2.7951,-2.7581,-2.7771,-2.802,-2.802,-2.9035,-2.9922,-2.9922,-3.047,-3.0889,-3.0889,-3.0889,-3.0889,-3.0889,-3.0889,-3.0889,-3.0889,-3.0889,-3.0889,-3.0889,-3.145,-3.2018,-3.2628,-3.3808,-3.448,-3.448,-3.4747,-3.4346,-3.3176,-3.2227,-3.1508,-3.0889,-3.0889,-3.0889,-3.0889,-3.0889,-3.0889,-3.0889,-3.0889,-3.0889,-2.2182,-2.1792,-2.1431,-1.947,-1.8801,-1.8086,-1.5754,-1.5649,-1.5615,-1.3966,-1.4148,-1.4903,-1.5989,-1.7244,-1.8524,-1.9824,-2.0534,-2.1115,-2.1681,-2.2733,-2.3852,-2.4949,-2.811,0.0,0.0,0.0,0.0,0.0,0.0,0.0,0.0,-3.9697,-3.9697,-3.9697,-3.927,-3.8671,-3.7856,-3.6731,-3.5598,-3.439,-3.3356,-3.2732,-3.2524,-3.2592,-3.2856,-3.3402,-3.4145,-3.5091,-3.6177,-3.7601,-3.8579,-3.9206,-3.953,-3.9166,-3.8356,-3.7974,-3.6719,-3.5091,-3.4636,-3.3853,-3.313,-3.3639,-3.392,-3.4134,-3.5013,-3.508,-3.4925,-3.519,-3.4402,-3.3402,-3.3006,-3.1622,-3.006,-2.9057,-2.8888,-2.8957,-2.8957,-2.9677,-3.0274,-3.0274,-3.0577,-3.0889,-3.0889,-3.0889,-3.0889,-3.0889,-3.0889,-3.0889,-3.0889,-3.0889,-3.0889,-3.0889,-3.1228,-3.1614,-3.2008,-3.2799,-3.3243,-3.3243,-3.33,-3.3187,-3.2846,-3.2342,-3.173,-3.0889,-3.0889,-3.0889,-3.0889,-3.0889,-3.0889,-3.0889,-3.0889,-3.0889,-2.2183,-2.1774,-2.1264,-1.9343,-1.8417,-1.7184,-1.4455,-1.3699,-1.3403,-1.2807,-1.3106,-1.3821,-1.5001,-1.6343,-1.7835,-1.938,-2.0157,-2.0919,-2.1859,-2.2918,-2.4154,-2.5684,0.0,0.0,0.0,0.0,0.0,0.0,0.0,0.0,0.0,-3.9697,-3.9697,0.0,-3.9426,-3.8998,-3.8303,-3.7507,-3.6406,-3.5135,-3.4134,-3.3356,-3.281,-3.2581,-3.2742,-3.3402,-3.4858,-3.6068,-3.7,-3.8409,-3.9114,-3.9322,-3.9724,-3.9465,-3.8893,-3.8816,-3.7832,-3.6534,-3.6197,-3.5432,-3.4725,-3.5168,-3.5344,-3.5532,-3.6449,-3.6557,-3.646,-3.6665,-3.5893,-3.4969,-3.458,-3.3448,-3.1967,-3.0187,-2.9726,-2.9549,-2.9422,-2.9903,-3.0382,-3.0382,-3.0694,-3.0889,-3.0889,-3.0889,-3.0889,-3.0889,-3.0889,-3.0889,-3.0889,-3.0889,-3.0889,-3.0889,-3.116,-3.1383,-3.1556,-3.218,-3.2457,-3.2352,-3.2457,-3.2399,-3.218,-3.194,-3.1556,-3.0889,-3.0889,-3.0889,-3.0889,-3.0889,-3.0889,-3.0889,-3.0889,-3.0889,-2.1764,-2.132,-2.0712,-1.9006,-1.7613,-1.5894,-1.296,-1.1714,-1.1286,-1.1761,-1.2077,-1.2762,-1.452,-1.5959,-1.7518,-1.9258,-2.0094,-2.1046,-2.2355,-2.3168,-2.4456,-2.6658,0.0,0.0,0.0,0.0,0.0,0.0,0.0,0.0,0.0,-3.9697,-3.9697,-3.9697,-3.9478,-3.9154,-3.8841,-3.8092,-3.7215,0.0,-3.5245,-3.4357,-3.3808,-3.3084,-3.313,-3.392,-3.6188,-3.7507,-3.8145,-3.8998,-3.9322,-3.9374,-3.9878,-3.9929,-3.9736,-4.0006,-3.939,-3.8481,-3.8206,-3.7412,-3.6565,-3.678,-3.6869,-3.7012,-3.7524,-3.7856,-3.8027,-3.7737,-3.7269,-3.6688,-3.6134,-3.508,-3.3561,-3.1295,-3.0382,-2.9981,-2.9667,-3.002,-3.045,-3.045,-3.0694,-3.0889,-3.0889,-3.0889,-3.0889,-3.0889,-3.0889,-3.0889,-3.0889,-3.0889,-3.0889,-3.0889,-3.1112,-3.1276,-3.1276,-3.1777,-3.2008,-3.173,-3.195,-3.1835,-3.1267,-3.1267,-3.116,-3.0898,-3.0889,-3.0889,-3.0889,-3.0947,-3.0947,-3.0947,-3.0947,-3.1005,-2.1815,-2.136,-2.0693,-1.8969,-1.6296,-1.3801,-1.2568,-1.1512,-1.086,-1.0958,-1.1471,-1.2371,-1.3809,-1.5238,-1.6861,-1.8874,-1.9781,-2.0672,-2.2048,-2.3216,-2.4571,-2.6128,0.0,0.0,0.0,0.0,0.0,0.0,0.0,0.0,-3.9697,-3.9697,-3.9697,-3.9697,-3.9633,-3.9478,-3.9206,-3.8788,-3.8133,0.0,-3.658,-3.5916,-3.5312,-3.3751,-3.392,-3.5422,-3.7054,-3.8145,-3.8684,-3.9322,-3.9633,-3.9633,-3.9981,-4.0083,-4.0083,-4.0529,-4.0389,-3.9943,-3.9892,-3.9417,-3.8859,-3.8963,-3.8662,-3.8437,-3.9037,-3.8945,-3.8684,-3.8881,-3.8514,-3.7933,-3.7334,-3.6297,-3.5013,-3.3561,-3.2275,-3.1325,-3.0966,-3.0869,-3.0762,-3.0762,-3.083,-3.0889,-3.0889,-3.0889,-3.0889,-3.0889,-3.0889,-3.0889,-3.0889,-3.0889,-3.0889,-3.0889,-3.0947,-3.1005,-3.1005,-3.1112,-3.117,-3.1122,-3.117,-3.1112,-3.0995,-3.1218,-3.116,-3.0898,-3.0889,-3.0889,-3.0889,-3.1112,-3.1218,-3.1218,-3.1508,-3.1624,-2.1001,-2.0607,-1.975,-1.7793,-1.5294,-1.3083,-1.2239,-1.1383,-1.0721,-1.0721,-1.1383,-1.2437,-1.3682,-1.5308,-1.706,-1.8816,-1.9781,-2.0799,-2.2174,-2.3223,-2.4456,0.0,0.0,0.0,0.0,0.0,0.0,0.0,0.0,-3.9206,-3.9478,-3.9633,-3.9697,-3.9697,-3.9697,-3.9633,-3.9478,-3.9206,-3.8736,-3.8198,-3.7613,-3.6958,-3.62,-3.5146,-3.5256,-3.6309,-3.7601,-3.8514,-3.9102,-3.9672,-4.0032,-4.0287,-4.0681,-4.1021,-4.1295,-4.2088,-4.2173,-4.195,-4.2035,-4.1591,-4.0906,-4.0818,-4.0325,-3.984,-4.0044,-3.9775,-3.9413,-3.9478,-3.9154,-3.8671,-3.8145,-3.712,-3.5916,-3.4736,-3.3176,-3.1835,-3.1383,-3.1112,-3.0889,-3.0889,-3.0889,-3.0889,-3.0889,-3.0889,-3.0889,-3.0889,-3.0889,-3.0889,-3.0889,-3.0889,-3.0889,-3.0889,-3.0889,-3.0889,-3.0889,-3.0889,-3.0889,-3.0889,-3.0889,-3.0889,-3.0889,-3.1054,-3.1054,-3.0889,-3.0889,-3.0889,-3.0889,-3.116,-3.1383,-3.1556,-3.1835,-3.2065,-1.985,-1.9486,-1.8471,-1.6445,-1.4619,-1.3017,-1.2041,-1.1251,-1.0721,-1.0721,-1.1516,-1.2568,-1.3678,-1.5504,-1.7324,-1.888,-1.9909,-2.0982,-2.2237,-2.3043,-2.4154,0.0,0.0,0.0,0.0,0.0,0.0,0.0,0.0,-3.8788,-3.9206,-3.9478,-3.9645,-3.9697,-3.9697,-3.9697,-3.9697,-3.9478,-3.9218,-3.8893,-3.8356,-3.7761,-3.7066,-3.6904,-3.6862,-3.6916,-3.7974,-3.8828,-3.9465,-4.007,-4.058,-4.1084,-4.1634,-4.2115,-4.2612,-4.3634,-4.3885,-4.379,-4.3998,-4.3511,-4.2709,-4.2417,-4.1792,-4.1071,-4.0795,-4.0491,-4.0173,-3.9839,-3.9633,-3.931,-3.8619,-3.7601,-3.6472,-3.5245,-3.3628,-3.2113,-3.1498,-3.1112,-3.0889,-3.0889,-3.0889,-3.0889,-3.0889,-3.0889,-3.0889,-3.0889,-3.0889,-3.0889,-3.0889,-3.0889,-3.0889,-3.0889,-3.0889,-3.0889,-3.0889,-3.0889,-3.0889,-3.0889,-3.0889,-3.0889,-3.0889,-3.0889,-3.0889,-3.0889,-3.0889,-3.0889,-3.0889,-3.1218,-3.1556,-3.1903,-3.2238,-3.2581,-1.8806,-1.8352,-1.7549,-1.6034,-1.4452,-1.3017,-1.2041,-1.1251,-1.0721,-1.0721,-1.1317,-1.2305,-1.3678,-1.5108,-1.6791,-1.8746,-1.9717,-2.0545,-2.1614,-2.255,-2.3604,0.0,0.0,0.0,0.0,0.0,0.0,0.0,-3.7054,-3.8092,-3.8841,-3.9154,-3.9478,-3.9697,-3.9697,-3.9697,-3.9697,-3.9645,-3.953,-3.9218,-3.8893,-3.8619,-3.853,-3.8764,-3.8409,-3.7548,-3.8384,-3.9221,-4.007,-4.082,-4.1335,-4.1647,-4.2164,-4.2555,-4.2833,-4.3695,-4.4134,-4.435,-4.4801,-4.4587,-4.4073,-4.3837,-4.3047,-4.2124,-4.1683,-4.1198,-4.0681,-4.0185,-4.0019,-3.9826,-3.8945,-3.7909,-3.6773,-3.5587,-3.3966,-3.2457,-3.1845,-3.1286,-3.0889,-3.0889,-3.0889,-3.0889,-3.0889,-3.0889,-3.0889,-3.0889,-3.0889,-3.0889,-3.0889,-3.0889,-3.0889,-3.0889,-3.0889,-3.0889,-3.0889,-3.0889,-3.0889,-3.0889,-3.0889,-3.0889,-3.0889,-3.0889,-3.0889,-3.0889,-3.0889,-3.0889,-3.0889,-3.145,-3.1903,-3.217,-3.2773,-3.3353,-1.7274,-1.7032,-1.6464,-1.5342,-1.3943,-1.2702,-1.1956,-1.1251,-1.0721,-1.0721,-1.1115,-1.1905,-1.3284,-1.5238,-1.706,-1.8542,-1.9641,-2.0672,-2.1488,-2.2174,-2.2918,0.0,0.0,0.0,0.0,0.0,0.0,0.0,-3.6068,-3.7215,-3.8092,-3.8671,-3.9154,-3.9478,-3.9788,-3.9929,-3.9929,-4.0236,-4.0338,-4.0173,-3.9878,-3.9762,-3.975,-4.007,-3.9647,-3.8792,-3.9622,-4.0453,-4.1196,-4.1878,-4.2563,-4.3191,-4.3457,-4.379,-4.4167,-4.4648,-4.4801,-4.4862,-4.5367,-4.5307,-4.4986,-4.4694,-4.42,-4.3559,-4.2784,-4.215,-4.1657,-4.1134,-4.0782,-4.0377,-3.9711,-3.8542,-3.7245,-3.6122,-3.4636,-3.3243,-3.2457,-3.1566,-3.0889,-3.0889,-3.0889,-3.0947,-3.1112,-3.1102,-3.116,-3.1392,-3.1392,-3.1334,-3.117,-3.1102,-3.1102,-3.1102,-3.1102,-3.1228,-3.1392,-3.1228,-3.1102,-3.1102,-3.1005,-3.0889,-3.0889,-3.0889,-3.0889,-3.0889,-3.0704,-3.0635,-3.0635,-3.0918,-3.1373,-3.2008,-3.241,-3.3161,-1.623,-1.6094,-1.5692,-1.4764,-1.3555,-1.2467,-1.1884,-1.1219,-1.0721,-1.0721,-1.0986,-1.1574,-1.2824,-1.4912,-1.6866,-1.8022,-1.9444,-2.0602,-2.1235,-2.1734,-2.2299,0.0,0.0,0.0,0.0,0.0,0.0,0.0,-3.4781,-3.6122,-3.7334,-3.8145,-3.8841,-3.9374,-3.9929,-4.0287,-4.0415,-4.092,-4.1172,-4.1084,-4.0896,-4.0846,-4.0896,-4.1222,-4.1182,-4.0867,-4.1269,-4.1914,-4.2716,-4.3388,-4.4144,-4.4854,-4.4929,-4.5049,-4.5216,-4.5367,-4.523,-4.5092,-4.5609,-4.57,-4.5595,-4.5444,-4.5187,-4.4791,-4.3871,-4.3239,-4.2744,-4.215,-4.167,-4.1209,-4.0554,-3.9364,-3.8031,-3.6923,-3.5443,-3.4011,-3.2846,-3.173,-3.0995,-3.0995,-3.0947,-3.1005,-3.1267,-3.1325,-3.1383,-3.173,-3.1787,-3.1672,-3.1325,-3.1325,-3.1325,-3.1325,-3.1383,-3.1556,-3.1893,-3.1662,-3.1556,-3.1556,-3.1286,-3.1122,-3.1122,-3.1122,-3.1112,-3.0995,-3.0635,-3.0382,-3.0382,-3.0382,-3.0859,-3.1672,-3.195,-3.2753,-1.6277,-1.5991,-1.5442,-1.4391,-1.355,-1.2693,-1.1732,-1.1075,-1.0721,-1.0721,-1.0986,-1.1449,-1.2243,-1.3805,-1.5559,-1.7243,-1.8734,-1.9896,-2.0545,-2.1235,0.0,0.0,0.0,0.0,0.0,0.0,0.0,0.0,-3.3258,-3.4902,-3.6646,-3.756,-3.8566,-3.9633,-4.0198,-4.0744,-4.1209,-4.1693,-4.1855,-4.1647,-4.1647,-4.1782,-4.2029,-4.2466,-4.3293,-4.4303,-4.3361,-4.3537,-4.4539,-4.5541,-4.6107,-4.6403,-4.6403,-4.6032,-4.5458,-4.5216,-4.5,-4.4876,-4.5381,-4.57,-4.5925,-4.609,-4.5972,-4.5597,-4.4837,-4.4406,-4.3984,-4.3033,-4.2744,-4.2452,-4.1419,-4.0313,-3.9223,-3.806,-3.6511,-3.467,-3.2675,-3.172,-3.1276,-3.1276,-3.1054,-3.1005,-3.1267,-3.1325,-3.1383,-3.173,-3.1787,-3.1672,-3.1325,-3.1325,-3.1325,-3.1325,-3.1556,-3.1893,-3.217,-3.217,-3.217,-3.217,-3.1893,-3.173,-3.173,-3.173,-3.1614,-3.1267,-3.0675,-3.0382,-3.0382,-3.0382,-3.0743,-3.1325,-3.1672,-3.2467,-1.5695,-1.5211,-1.4646,-1.3581,-1.2753,-1.2067,-1.1581,-1.099,-1.0602,-1.07,-1.0787,-1.1052,-1.1516,-1.321,-1.5103,-1.6597,-1.8028,-1.9252,-2.0144,-2.0659,0.0,0.0,0.0,0.0,0.0,0.0,0.0,0.0,0.0,-3.4011,-3.5466,-3.6881,-3.8108,-3.9077,-4.0364,-4.1657,-4.3012,-4.3012,-4.3143,-4.3382,-4.306,-4.3074,-4.3362,-4.3998,-4.4748,-4.56,-4.6285,-4.6549,-4.652,-4.7173,-4.7588,-4.7831,-4.7505,-4.7003,-4.6314,-4.5732,-4.5216,-4.483,-4.5138,-4.5489,-4.5896,-4.6121,-4.6343,-4.6417,-4.5822,-4.5492,-4.5173,-4.4666,-4.4186,-4.3592,-4.2902,-4.1802,-4.0439,-3.8573,-3.7091,-3.5815,-3.4736,-3.3289,-3.2065,-3.1672,-3.1392,-3.1276,-3.1556,-3.1614,-3.1787,-3.2315,-3.2383,-3.2201,-3.1672,-3.1614,-3.1614,-3.1614,-3.1893,-3.2352,-3.3048,-3.2924,-3.2913,-3.3073,-3.2628,-3.241,-3.241,-3.241,-3.2238,-3.1883,-3.1267,-3.0684,-3.0098,-2.9686,-2.9912,-3.0743,-3.0859,-3.1536,-1.6067,-1.5328,-1.461,-1.3507,-1.2631,-1.1995,-1.1803,-1.1322,-1.0977,-1.1123,-1.1169,-1.1187,-1.1372,-1.2692,-1.4189,-1.5559,-1.7055,-1.8413,-1.9437,-2.0087,0.0,0.0,0.0,0.0,0.0,0.0,0.0,0.0,0.0,0.0,-3.4692,-3.6426,-3.8084,-3.9725,-4.1196,-4.2674,-4.4214,-4.4214,-4.4434,-4.4823,-4.4499,-4.4466,-4.4745,-4.5372,-4.6092,-4.6899,-4.8346,-4.8702,-4.8315,-4.8907,-4.9303,-4.9399,-4.8887,-4.8168,-4.7319,-4.6373,-4.5642,-4.5138,-4.5124,-4.5475,-4.5972,-4.6254,-4.6668,-4.6975,-4.658,-4.6299,-4.6106,-4.5806,-4.537,-4.4791,-4.4261,-4.2985,-4.1392,-3.9456,-3.8218,-3.7275,-3.6545,-3.4681,-3.296,-3.2342,-3.1893,-3.1662,-3.1787,-3.1787,-3.196,-3.2315,-3.2383,-3.2201,-3.1672,-3.1614,-3.1672,-3.1787,-3.2123,-3.2696,-3.3512,-3.3614,-3.3717,-3.3875,-3.3582,-3.347,-3.347,-3.347,-3.3187,-3.2675,-3.195,-3.1199,-3.0392,-2.9627,-2.9686,-3.0382,-3.0382,-3.0966,0.0,0.0,0.0,-1.4226,-1.3386,-1.2747,-1.232,-1.2069,-1.1989,-1.2022,-1.2036,-1.203,-1.1875,-1.2107,-1.2762,-1.4124,-1.5824,-1.7324,-1.8419,-1.9437,0.0,0.0,0.0,0.0,0.0,0.0,0.0,0.0,-3.0392,-3.2197,-3.4368,-3.6165,-3.8546,-4.1597,-4.2652,-4.3695,-4.4694,-4.5216,-4.5611,-4.5824,-4.5824,-4.5958,-4.6152,-4.6682,-4.7377,-4.8282,-4.9414,-4.9892,-4.9923,-5.0783,-5.1118,-5.1081,-5.047,-4.9519,-4.8388,-4.703,-4.624,-4.5747,-4.5293,-4.5625,-4.6254,-4.6506,-4.6902,-4.7251,-4.6975,-4.6916,-4.6844,-4.6343,-4.621,-4.6031,-4.5307,-4.381,-4.211,-4.0768,-3.9815,-3.8961,-3.7779,-3.5761,-3.3899,-3.3289,-3.2675,-3.217,-3.1903,-3.1845,-3.1787,-3.1787,-3.1787,-3.1672,-3.1325,-3.1325,-3.1441,-3.173,-3.2352,-3.2924,-3.3512,-3.4132,-3.4524,-3.4524,-3.4758,-3.4914,-3.4969,-3.4969,-3.4525,-3.3695,-3.2732,-3.194,-3.1383,-3.0392,-3.0098,-3.045,-3.045,-3.0743,-1.8651,0.0,0.0,0.0,0.0,0.0,-1.3635,-1.3241,-1.3033,-1.2916,-1.2999,-1.2951,-1.243,-1.2285,-1.2437,-1.2828,-1.4329,-1.6014,-1.7571,-1.874,0.0,0.0,0.0,0.0,0.0,0.0,0.0,0.0,-2.9933,-3.1805,-3.3751,-3.6684,-3.9235,-4.1282,-4.2528,-4.379,-4.4986,-4.5504,-4.6046,-4.6594,-4.6594,-4.6726,-4.6989,-4.748,-4.7976,-4.8563,-4.963,-5.0454,-5.0995,-5.1529,-5.1692,-5.1492,-5.1043,-5.0088,-4.8872,-4.7873,-4.7017,-4.6314,-4.6031,-4.618,-4.655,-4.6756,-4.7033,-4.7309,-4.7207,-4.7207,-4.7164,-4.7033,-4.6844,-4.6521,-4.5625,-4.4634,-4.3525,-4.2159,-4.1145,-4.0109,-3.9,-3.7779,-3.6383,-3.4736,-3.3899,-3.3346,-3.2846,-3.2399,-3.2123,-3.2133,-3.196,-3.1672,-3.1325,-3.1325,-3.1325,-3.1441,-3.2008,-3.2561,-3.3197,-3.384,-3.4423,-3.4813,-3.5268,-3.5642,-3.5872,-3.6091,-3.5861,-3.519,-3.4302,-3.3582,-3.296,-3.1131,-3.0509,-3.1034,-3.1034,-3.1044,-2.0594,-1.9821,-1.8895,-1.7714,0.0,0.0,-1.5563,-1.5278,-1.5093,-1.488,-1.4749,-1.4371,-1.354,-1.2977,-1.2633,-1.2449,-1.3362,-1.4748,-1.6392,-1.7641,0.0,0.0,0.0,0.0,0.0,-2.4085,-2.5607,-2.7855,-2.963,-3.1775,-3.4514,-3.7073,-3.9248,-4.0995,-4.2235,-4.3491,-4.4787,-4.5413,-4.6165,-4.7017,-4.7134,-4.7495,-4.8022,-4.8275,-4.8635,-4.9072,-4.9844,-5.0608,-5.1327,-5.1712,-5.202,-5.2164,-5.1676,-5.0859,-4.9837,-4.8517,-4.7578,-4.6916,-4.6314,-4.6225,-4.6447,-4.6712,-4.6946,-4.7164,-4.7266,-4.7309,-4.7309,-4.7309,-4.7121,-4.6741,-4.6135,-4.5353,-4.4401,-4.3334,-4.215,-4.0984,-3.9968,-3.9089,-3.7974,-3.6013,-3.519,-3.4458,-3.3459,-3.2789,-3.2285,-3.196,-3.1624,-3.1334,-3.117,-3.1112,-3.116,-3.1267,-3.172,-3.2227,-3.2675,-3.3537,-3.4289,-3.4736,-3.5763,-3.6472,-3.682,-3.7078,-3.6958,-3.634,-3.5367,-3.448,-3.3582,-3.2102,-3.1431,-3.1498,-3.1383,-3.117,-2.2924,-2.2282,-2.1468,-2.0606,-1.9849,0.0,-1.8181,-1.7909,-1.7836,-1.7594,-1.7037,-1.6222,-1.5099,-1.4036,-1.3204,-1.2716,-1.2951,-1.366,-1.5214,-1.6597,0.0,0.0,0.0,0.0,-2.2926,-2.3713,-2.517,-2.7796,-2.962,-3.2203,-3.5838,-3.7192,-3.8779,-4.0668,-4.1743,-4.295,-4.4214,-4.5018,-4.5957,-4.7075,-4.7437,-4.8049,-4.8955,-4.8996,-4.921,-4.9637,-5.0058,-5.0547,-5.1118,-5.1492,-5.2076,-5.2764,-5.2183,-5.1549,-5.08,-4.8913,-4.7946,-4.7407,-4.6269,-4.6001,-4.621,-4.6447,-4.6668,-4.6887,-4.7164,-4.7251,-4.7251,-4.7309,-4.7121,-4.6887,-4.6683,-4.5941,-4.5018,-4.4214,-4.2881,-4.1597,-4.0744,-3.9929,-3.8881,-3.7292,-3.646,-3.5521,-3.4078,-3.33,-3.2514,-3.1556,-3.116,-3.0947,-3.0889,-3.0889,-3.0995,-3.1218,-3.1556,-3.1835,-3.2055,-3.3176,-3.4022,-3.4424,-3.6025,-3.7185,-3.7649,-3.7945,-3.7868,-3.7299,-3.6122,-3.4925,-3.3751,-3.314,-3.2467,-3.1845,-3.1498,-3.116,-2.4202,-2.4392,-2.4371,-2.3555,-2.2988,0.0,-2.1592,-2.1084,-2.0566,-1.9864,-1.923,-1.8326,-1.6855,-1.5411,-1.4275,-1.3774,-1.3589,-1.3918,-1.5214,-1.6597,0.0,0.0,0.0,0.0,-2.2926,-2.3713,-2.517,-2.7796,-3.0839,-3.3222,-3.4747,-3.6762,-3.8425,-3.948,-4.1008,-4.2262,-4.3074,-4.428,-4.5355,-4.6417,-4.7062,-4.7837,-4.8661,-4.8826,-4.9275,-4.9836,-5.0097,-5.0502,-5.0956,-5.1135,-5.1602,-5.2145,-5.1696,-5.1065,-5.0237,-4.8969,-4.8015,-4.7118,-4.6136,-4.5837,-4.5882,-4.5927,-4.6121,-4.6432,-4.6844,-4.6975,-4.7019,-4.7251,-4.7251,-4.7164,-4.6887,-4.6432,-4.5702,-4.4513,-4.3368,-4.2271,-4.1084,-4.0377,-3.9724,-3.8933,-3.7974,-3.6839,-3.5576,-3.4469,-3.3346,-3.2227,-3.1556,-3.116,-3.0947,-3.0889,-3.0947,-3.0947,-3.1218,-3.1441,-3.1498,-3.2399,-3.33,-3.4067,-3.5521,-3.6839,-3.788,-3.8368,-3.8566,-3.8461,-3.712,-3.5861,-3.4636,-3.3829,-3.2991,-3.2113,-3.1835,-3.1392,-2.629,-2.6689,-2.6804,-2.648,0.0,0.0,0.0,-2.4254,-2.3758,-2.2946,-2.199,-2.0799,-1.9249,-1.7563,-1.6275,-1.5695,-1.5355,-1.5639,-1.7034,-1.7226,-1.7835,0.0,0.0,0.0,-2.2926,-2.4023,-2.5904,-2.8998,-3.1785,-3.3797,-3.4869,-3.6708,-3.8161,-3.9245,-4.0427,-4.1534,-4.2457,-4.3444,-4.4652,-4.6002,-4.6668,-4.7581,-4.8816,-4.899,-4.9501,-5.0214,-5.0347,-5.0502,-5.0672,-5.0563,-5.0624,-5.0816,-5.1027,-5.08,-5.0143,-4.8625,-4.7619,-4.6842,-4.5537,-4.5003,-4.4911,-4.5035,-4.5218,-4.5537,-4.6195,-4.6609,-4.6931,-4.7062,-4.7207,-4.7266,-4.7121,-4.6668,-4.5986,-4.5095,-4.3904,-4.2722,-4.172,-4.0984,-4.0326,-3.9826,-3.9141,-3.8145,-3.6526,-3.5245,-3.4078,-3.3073,-3.2399,-3.195,-3.1845,-3.1787,-3.1787,-3.1787,-3.1893,-3.2008,-3.2008,-3.2696,-3.348,-3.419,-3.563,-3.6904,-3.7986,-3.8514,-3.8684,-3.8421,-3.7572,-3.6538,-3.5356,-3.4491,-3.3424,-3.216,-3.1893,-3.145,-2.811,0.0,-2.8813,0.0,0.0,-2.8451,0.0,0.0,0.0,-2.6231,-2.4914,-2.3364,-2.1709,0.0,0.0,0.0,0.0,0.0,0.0,-1.8476,0.0,0.0,0.0,0.0,0.0,-2.4941,-2.7237,-3.0314,-3.255,-3.4256,-3.5323,-3.6773,-3.8068,-3.9102,-3.9981,-4.0896,-4.1931,-4.2736,-4.3998,-4.5644,-4.6254,-4.7366,-4.8857,-4.9153,-4.9741,-5.0525,-5.0612,-5.0596,-5.0486,-5.0034,-4.9677,-4.9477,-5.0182,-5.0283,-4.9852,-4.8069,-4.7001,-4.6241,-4.4698,-4.3979,-4.3743,-4.3904,-4.4266,-4.4837,-4.5446,-4.6195,-4.6844,-4.6873,-4.7062,-4.7309,-4.7309,-4.68,-4.621,-4.5671,-4.4541,-4.3362,-4.2506,-4.172,-4.1021,-4.0529,-4.0134,-3.931,-3.7281,-3.6068,-3.5013,-3.4022,-3.3413,-3.3027,-3.2913,-3.2856,-3.2856,-3.2856,-3.2856,-3.2856,-3.2856,-3.3378,-3.3942,-3.4647,-3.5927,-3.7078,-3.8039,-3.8631,-3.8736,-3.8145,-3.7904,-3.7143,-3.5916,-3.5146,-3.3966,-3.2399,-3.2018,-3.1508,0.0,0.0,0.0,0.0,-3.1235,0.0,0.0,0.0,-3.0033,-2.9063,0.0,0.0,0.0,0.0,0.0,0.0,0.0,0.0,-2.0535,-2.0839,-2.1127,0.0,0.0,0.0,0.0,-2.7168,-2.9561,-3.1053,-3.3166,-3.4703,-3.5367,-3.7,-3.8092,-3.8461,-3.9556,-4.0529,-4.1372,-4.2368,-4.364,-4.5204,-4.5927,-4.6989,-4.8412,-4.8959,-4.967,-5.0525,-5.0765,-5.0727,-5.0448,-4.986,-4.9275,-4.8728,-4.9025,-4.8846,-4.835,-4.7334,-4.6285,-4.5113,-4.3776,-4.3026,-4.2639,-4.2612,-4.3545,-4.4745,-4.5067,-4.5867,-4.6683,-4.6844,-4.7062,-4.7309,-4.7309,-4.7062,-4.6653,-4.5927,-4.531,-4.4559,-4.3362,-4.2625,-4.2088,-4.1584,-4.1084,-4.016,-3.8185,-3.7322,-3.6371,-3.4958,-3.4469,-3.4089,-3.3582,-3.3526,-3.3526,-3.3526,-3.3526,-3.3526,-3.3526,-3.3797,-3.4357,-3.5268,-3.5938,-3.697,-3.8303,-3.9154,-3.9322,-3.8736,-3.8473,-3.7613,-3.6266,-3.5872,-3.4758,-3.3094,-3.218,-3.1614,0.0,0.0,0.0,0.0,0.0,0.0,-3.2925,0.0,-3.2228,0.0,0.0,0.0,0.0,0.0,0.0,0.0,-2.2188,0.0,0.0,0.0,-2.3228,0.0,0.0,0.0,0.0,0.0,0.0,0.0,0.0,-3.574,-3.634,-3.7708,-3.8619,-3.8893,-3.9517,-4.0236,-4.1084,-4.1891,-4.3129,-4.4638,-4.5551,-4.6711,-4.8088,-4.8723,-4.9494,-5.0315,-5.0612,-5.0534,-5.0097,-4.9325,-4.8532,-4.7734,-4.7276,-4.7319,-4.7505,-4.6491,-4.5492,-4.4452,-4.306,-4.2226,-4.1782,-4.1756,-4.2612,-4.3681,-4.4106,-4.5127,-4.621,-4.6432,-4.6887,-4.7309,-4.7309,-4.7121,-4.6785,-4.6358,-4.5882,-4.5218,-4.428,-4.3748,-4.3273,-4.2479,-4.2186,-4.1581,-4.03,-3.9107,-3.8019,-3.721,-3.663,-3.6154,-3.5881,-3.5717,-3.5608,-3.5608,-3.5608,-3.5608,-3.5608,-3.5717,-3.6045,-3.6599,-3.7322,-3.8092,-3.8893,-3.9426,-3.953,-3.9102,-3.8788,-3.8198,-3.7281,-3.6634,-3.5861,-3.4914,-3.3289,-3.2285,-3.0128,0.0,0.0,0.0,0.0,0.0,0.0,0.0,0.0,0.0,0.0,0.0,0.0,0.0,-2.5713,-2.5277,0.0,-2.4328,0.0,0.0,0.0,0.0,0.0,0.0,0.0,0.0,0.0,0.0,0.0,0.0,-3.7418,-3.8396,-3.905,-3.927,-3.9581,-4.0096,-4.0883,-4.1558,-4.2709,-4.4233,-4.5173,-4.6314,-4.7664,-4.8392,-4.9172,-4.9947,-5.0285,-5.0129,-4.9661,-4.8821,-4.7888,-4.6828,-4.5943,-4.5793,-4.6033,-4.5324,-4.448,-4.3511,-4.2297,-4.1484,-4.0946,-4.0984,-4.1706,-4.2687,-4.3204,-4.448,-4.5806,-4.6121,-4.6712,-4.7309,-4.7309,-4.7164,-4.6931,-4.6712,-4.6388,-4.5912,-4.525,-4.4883,-4.4452,-4.3701,-4.3464,-4.3259,-4.2668,-4.1067,-3.9674,-3.9223,-3.8598,-3.8137,-3.7979,-3.7725,-3.7619,-3.766,-3.766,-3.7713,-3.7767,-3.7767,-3.7873,-3.819,-3.8908,-3.9453,-3.962,-3.989,-3.9839,-3.9426,-3.9166,-3.8736,-3.8092,-3.7453,-3.6958,-3.6503,-3.4458,-3.3176,0.0,0.0,0.0,-3.3394,0.0,0.0,0.0,0.0,-3.5656,0.0,0.0,0.0,0.0,0.0,-2.7392,-2.6999,-2.606,0.0,0.0,0.0,0.0,0.0,0.0,0.0,0.0,0.0,0.0,0.0,0.0,0.0,-3.8303,-3.8945,-3.927,-3.931,-3.9581,-4.0096,-4.0883,-4.1448,-4.2506,-4.4026,-4.4787,-4.5747,-4.696,-4.7819,-4.8599,-4.9253,-4.9701,-4.9661,-4.9172,-4.8475,-4.7435,-4.6165,-4.5401,-4.4373,-4.341,-4.3885,-4.3204,-4.1976,-4.1508,-4.082,-4.0134,-4.0134,-4.1021,-4.2213,-4.266,-4.4092,-4.5595,-4.6076,-4.6712,-4.7309,-4.7309,-4.7309,-4.7207,-4.6975,-4.6887,-4.6741,-4.6254,-4.5927,-4.5687,-4.5458,-4.5187,-4.5021,-4.4975,-4.304,-4.1256,-4.0465,-4.0096,-3.9726,-3.9223,-3.8936,-3.8832,-3.9119,-3.9119,-3.9235,-3.9494,-3.9494,-3.9609,-3.9879,-4.0516,-4.0744,-4.0453,-4.0744,-4.0491,-3.9697,-3.9697,-3.927,-3.8409,-3.8356,-3.8027,-3.7406,-3.5399,-3.4246,0.0,0.0,-3.1837,-3.3276,0.0,0.0,0.0,0.0,0.0,0.0,0.0,0.0,0.0,0.0,-2.9405,-2.8935,-2.8036,-2.7448,0.0,0.0,0.0,0.0,0.0,0.0,0.0,0.0,0.0,0.0,-3.7568,0.0,0.0,-3.9374,-3.9581,-3.9581,-3.9645,-3.9942,-4.0377,-4.1071,-4.1954,-4.295,-4.4106,-4.5201,-4.6195,-4.7118,-4.7846,-4.8366,-4.8852,-4.8852,-4.8547,-4.7691,-4.677,-4.5808,-4.4373,-4.3156,-4.2262,-4.2771,-4.2368,-4.1458,-4.0769,-4.0236,-3.9839,-4.0032,-4.0769,-4.1706,-4.2563,-4.3937,-4.537,-4.6031,-4.6712,-4.7309,-4.7309,-4.7309,-4.7266,-4.7207,-4.7164,-4.7062,-4.6741,-4.6609,-4.6432,-4.6031,-4.5896,-4.5777,-4.5597,-4.4929,-4.405,-4.3136,-4.2328,-4.1789,-4.1591,-4.1206,-4.0969,-4.1056,-4.1056,-4.1106,-4.1169,-4.1169,-4.1219,-4.1332,-4.1495,-4.1607,-4.1508,-4.1435,-4.1285,-4.1047,-4.0681,-4.0326,-4.0058,-3.9517,-3.9154,-3.8933,-3.7696,-3.6394,-3.0102,-3.0971,0.0,-3.3039,-3.4096,0.0,-3.5471,0.0,0.0,0.0,0.0,0.0,0.0,0.0,-3.0701,-3.026,-2.9303,-2.8654,0.0,-2.8992,0.0,0.0,0.0,-3.0631,0.0,0.0,-3.5509,-3.6564,-3.791,0.0,0.0,0.0,-3.9697,-3.9697,-3.9697,-3.9839,-4.007,-4.0732,-4.1421,-4.2137,-4.33,-4.4387,-4.5446,-4.6432,-4.7148,-4.7722,-4.8202,-4.8244,-4.8007,-4.7163,-4.6299,-4.5372,-4.3701,-4.2395,-4.1435,-4.1657,-4.1259,-4.0516,-4.0019,-3.9724,-3.9633,-3.9981,-4.0618,-4.1508,-4.2501,-4.3876,-4.5264,-4.5972,-4.6712,-4.7309,-4.7309,-4.7309,-4.7309,-4.7309,-4.7309,-4.7251,-4.7062,-4.7019,-4.6931,-4.6668,-4.658,-4.6535,-4.6388,-4.624,-4.5867,-4.4897,-4.4031,-4.345,-4.3355,-4.2889,-4.2612,-4.2792,-4.284,-4.2889,-4.3081,-4.3129,-4.3129,-4.3129,-4.3129,-4.3081,-4.2985,-4.2757,-4.2528,-4.2333,-4.1842,-4.1458,-4.1272,-4.0681,-4.0338,-4.0236,-3.9505,-3.8489]},{"header":{"parameterUnit":"m.s-1","parameterCategory":1,"la1":30.6,"la2":29.2853,"lo1":-89.7004,"lo2":-87.6739,"dy":0.0162,"dx":0.0183,"nx":112,"ny":82,"refTime":"2024-08-28T12:00:00:Z","depth":0,"parameterNumber":3,"parameterNumberName":"V-component_of_WINDS"},"data":[0.0,0.0,0.0,0.0,0.0,0.0,0.0,0.0,0.0,0.0,0.0,0.0,0.0,0.0,0.0,0.0,0.0,0.0,0.0,0.0,0.0,0.0,0.0,0.0,0.0,0.0,0.0,0.0,0.0,0.0,0.0,0.0,0.0,0.0,0.0,0.0,0.0,0.0,0.0,0.0,0.0,0.0,0.0,0.0,0.0,0.0,0.0,0.0,0.0,0.0,0.0,0.0,0.0,0.0,0.0,0.0,0.0,0.0,0.0,0.0,0.0,0.0,0.0,0.0,0.0,0.0,0.0,0.0,0.0,0.0,0.0,0.0,0.0,0.0,0.0,0.0,0.0,0.0,0.0,0.0,0.0,0.0,0.0,0.0,0.0,0.0,0.0,0.0,0.0,0.0,1.2998,1.1893,1.0914,1.0219,0.9737,0.9566,0.973,1.0246,0.0,0.0,0.0,0.0,0.0,0.0,0.0,0.0,0.0,0.0,0.0,0.0,0.0,0.0,0.0,0.0,0.0,0.0,0.0,0.0,0.0,0.0,0.0,0.0,0.0,0.0,0.0,0.0,0.0,0.0,0.0,0.0,0.0,0.0,0.0,0.0,0.0,0.0,0.0,0.0,0.0,0.0,0.0,0.0,0.0,0.0,0.0,0.0,0.0,0.0,0.0,0.0,0.0,0.0,0.0,0.0,0.0,0.0,0.0,0.0,0.0,0.0,0.0,0.0,0.0,0.0,0.0,0.0,0.0,0.0,0.0,0.0,0.0,0.0,0.0,0.0,0.0,0.0,0.0,0.0,0.0,0.0,0.0,0.0,0.0,0.0,0.0,0.0,0.0,0.0,0.0,0.0,0.0,0.0,0.0,0.0,0.0,0.0,0.0,0.0,0.0,0.0,0.0,0.0,1.397,1.2142,1.1307,1.064,1.0087,0.9932,1.0006,1.0291,0.0,0.0,0.0,0.0,0.0,0.0,0.0,0.0,0.0,0.0,0.0,0.0,0.0,0.0,0.0,0.0,0.0,0.0,0.0,0.0,0.0,0.0,0.0,0.0,0.0,0.0,0.0,0.0,0.0,0.0,0.0,0.0,0.0,0.0,0.0,0.0,0.0,0.0,0.0,0.0,0.0,0.0,0.0,0.0,0.0,0.0,0.0,0.0,0.0,0.0,0.0,0.0,0.0,0.0,0.0,0.0,0.0,0.0,0.0,0.0,0.0,0.0,0.0,0.0,0.0,0.0,0.0,0.0,0.0,0.0,0.0,0.0,0.0,0.0,0.0,0.0,0.0,0.0,0.0,0.0,0.0,0.0,0.0,0.0,0.0,0.0,0.0,0.0,0.0,0.0,0.0,0.0,0.0,0.0,0.0,0.0,0.0,0.0,0.0,0.0,0.0,0.0,0.0,1.6433,1.4966,1.3413,1.2542,1.1703,1.0813,1.0514,1.0445,1.083,1.1354,0.0,0.0,0.0,0.0,0.0,0.0,0.0,0.0,0.0,0.0,0.0,0.0,0.0,0.0,0.0,0.0,0.0,0.0,0.0,0.0,0.0,0.0,0.0,0.0,0.0,0.0,0.0,0.0,0.0,0.0,0.0,0.0,0.0,0.0,0.0,0.0,0.0,0.0,0.0,0.0,0.0,0.0,0.0,0.0,0.0,0.0,0.0,0.0,0.0,0.0,0.0,0.0,0.0,0.0,0.0,0.0,0.0,0.0,0.0,0.0,0.0,0.0,0.0,0.0,0.0,0.0,0.0,0.0,0.0,0.0,0.0,0.0,0.0,0.0,0.0,0.0,0.0,0.0,0.0,0.0,0.0,0.0,0.0,0.0,0.0,0.0,0.0,0.0,0.0,0.0,0.0,0.0,0.0,0.0,0.0,0.0,0.0,0.0,0.0,0.0,0.0,0.0,1.7453,1.6343,1.5176,1.423,1.3184,1.2031,1.1511,1.1327,1.1555,1.2106,0.0,0.0,0.0,0.0,0.0,0.0,0.0,0.0,0.0,0.0,0.0,0.0,0.0,0.0,0.0,0.0,0.0,0.0,0.0,0.0,0.0,0.0,0.0,0.0,0.0,0.0,0.0,0.0,0.0,0.0,0.0,0.0,0.0,0.0,0.0,0.0,0.0,0.0,0.0,0.0,0.0,0.0,0.0,0.0,0.0,0.0,0.0,0.0,0.0,0.0,0.0,0.0,0.0,0.0,0.0,0.0,0.0,0.0,0.0,0.0,0.0,0.0,0.0,0.0,0.0,0.0,0.0,0.0,0.0,0.0,0.0,0.0,0.0,0.0,0.0,0.0,0.0,0.0,0.0,0.0,0.0,0.0,0.0,0.0,0.0,0.0,0.0,0.0,0.0,0.0,0.0,0.0,0.0,0.0,0.0,0.0,0.0,0.0,0.0,0.0,0.0,0.0,1.9381,1.8524,1.7287,1.6464,1.5373,1.3906,1.3391,1.2898,1.244,1.3078,0.0,0.0,0.0,0.0,0.0,0.0,0.0,0.0,0.0,0.0,0.0,0.0,0.0,0.0,0.0,0.0,0.0,0.0,0.0,0.0,0.0,0.0,0.0,0.0,0.0,0.0,0.0,0.0,0.0,0.0,0.0,0.0,0.0,0.0,0.0,0.0,0.0,0.0,0.0,0.0,0.0,0.0,0.0,0.0,0.0,0.0,0.0,0.0,0.0,0.0,0.0,0.0,0.0,0.0,0.0,0.0,0.0,0.0,0.0,0.0,0.0,0.0,0.0,0.0,0.0,0.0,0.0,0.0,0.0,0.0,0.0,0.0,0.0,0.0,0.0,0.0,0.0,0.0,0.0,0.0,0.0,0.0,0.0,0.0,0.0,0.0,0.0,0.0,0.0,0.0,0.0,0.0,0.0,0.0,0.0,0.0,0.0,0.0,0.0,0.0,0.0,0.0,2.1404,2.0644,1.9555,1.8678,1.7524,1.6001,1.5448,1.4912,1.4255,0.0,0.0,0.0,0.0,0.0,0.0,0.0,0.0,0.0,0.0,0.0,0.0,0.0,0.0,0.0,0.0,0.0,0.0,0.0,0.0,0.0,0.0,0.0,0.0,0.0,0.0,0.0,0.0,0.0,0.0,0.0,0.0,0.0,0.0,0.0,0.0,0.0,0.0,0.0,0.0,0.0,0.0,0.0,0.0,0.0,0.0,0.0,0.0,0.0,0.0,0.0,0.0,0.0,0.0,0.0,0.0,0.0,0.0,0.0,0.0,0.0,0.0,0.0,0.0,0.0,0.0,0.0,0.0,0.0,0.0,0.0,0.0,0.0,0.0,0.0,0.0,0.0,0.0,0.0,0.0,0.0,0.0,0.0,0.0,0.0,0.0,0.0,0.0,0.0,0.0,0.0,0.0,0.0,0.0,0.0,0.0,0.0,0.0,0.0,0.0,0.0,0.0,2.3932,2.3434,2.2784,0.0,2.0979,1.9795,1.8474,1.7623,1.6932,1.6244,0.0,0.0,0.0,0.0,0.0,0.0,0.0,0.0,0.0,0.0,0.0,0.0,0.0,0.0,0.0,0.0,0.0,0.0,0.0,0.0,0.0,0.0,0.0,0.0,0.0,0.0,0.0,0.0,0.0,0.0,0.0,0.0,0.0,0.0,0.0,0.0,0.0,0.0,0.0,0.0,0.0,0.0,0.0,0.0,0.0,0.0,0.0,0.0,0.0,0.0,0.0,0.0,0.0,0.0,0.0,0.0,0.0,0.0,0.0,0.0,0.0,0.0,0.0,0.0,0.0,0.0,0.0,0.0,0.0,0.0,0.0,0.0,0.0,0.0,0.0,0.0,0.0,0.0,0.0,0.0,0.0,0.0,0.0,0.0,0.0,0.0,0.0,0.0,0.0,0.0,0.0,0.0,0.0,0.0,0.0,0.0,0.0,0.0,0.0,0.0,0.0,0.0,2.5747,2.5334,2.49,2.4524,2.3384,2.2286,2.1412,1.9993,1.8958,0.0,0.0,0.0,0.0,0.0,0.0,0.0,0.0,0.0,0.0,0.0,0.0,0.0,0.0,0.0,0.0,0.0,0.0,0.0,0.0,0.0,0.0,0.0,0.0,0.0,0.0,0.0,0.0,0.0,0.0,0.0,0.0,0.0,0.0,0.0,0.0,0.0,0.0,0.0,0.0,0.0,0.0,0.0,0.0,0.0,0.0,0.0,0.0,0.0,0.0,0.0,0.0,0.0,0.0,0.0,0.0,0.0,0.0,0.0,0.0,0.0,0.0,0.0,0.0,0.0,0.0,0.0,0.0,0.0,0.0,0.0,0.0,0.0,0.0,0.0,0.0,0.0,0.0,0.0,0.0,0.0,0.0,0.0,0.0,0.0,0.0,0.0,0.0,0.0,0.0,0.0,0.0,0.0,0.0,0.0,0.0,0.0,0.0,0.0,0.0,0.0,0.0,0.0,2.6403,2.6239,2.5958,2.5547,2.4988,2.4185,2.3006,2.2241,2.1223,1.996,0.0,0.0,0.0,0.0,0.0,0.0,0.0,0.0,0.0,0.0,0.0,0.0,0.0,0.0,0.0,0.0,0.0,0.0,0.0,0.0,0.0,0.0,0.0,0.0,0.0,0.0,0.0,0.0,0.0,0.0,0.0,0.0,0.0,0.0,0.0,0.0,0.0,0.0,0.0,0.0,0.0,0.0,0.0,0.0,0.0,0.0,0.0,0.0,0.0,0.0,0.0,0.0,0.0,0.0,0.0,0.0,0.0,0.0,0.0,0.0,0.0,0.0,0.0,0.0,0.0,0.0,0.0,0.0,0.0,0.0,0.0,0.0,0.0,0.0,0.0,0.0,0.0,0.0,0.0,0.0,0.0,0.0,0.0,0.0,0.0,0.0,0.0,0.0,0.0,0.0,0.0,0.0,0.0,0.0,0.0,0.0,0.0,0.0,0.0,0.0,0.0,0.0,2.7157,2.7084,2.6919,2.6715,2.633,2.5722,2.4832,2.3994,2.299,2.1782,0.0,0.0,0.0,0.0,0.0,0.0,0.0,0.0,0.0,0.0,0.0,0.0,0.0,0.0,0.0,0.0,0.0,0.0,0.0,0.0,0.0,0.0,0.0,0.0,0.0,0.0,0.0,0.0,0.0,0.0,0.0,0.0,0.0,0.0,0.0,0.0,0.0,0.0,0.0,0.0,0.0,0.0,0.0,0.0,0.0,0.0,0.0,0.0,0.0,0.0,0.0,0.0,0.0,0.0,0.0,0.0,0.0,0.0,0.0,0.0,0.0,0.0,0.0,0.0,0.0,0.0,0.0,0.0,0.0,0.0,0.0,0.0,0.0,0.0,0.0,0.0,0.0,0.0,0.0,0.0,0.0,0.0,0.0,0.0,0.0,0.0,0.0,0.0,0.0,0.0,0.0,0.0,0.0,0.0,0.0,0.0,0.0,0.0,0.0,0.0,0.0,0.0,2.7829,2.7725,2.7741,2.7956,2.7431,2.7003,2.6726,2.5485,2.4385,2.3693,0.0,0.0,0.0,0.0,0.0,0.0,0.0,0.0,0.0,0.0,0.0,0.0,0.0,0.0,0.0,0.0,0.0,0.0,0.0,0.0,0.0,0.0,0.0,0.0,0.0,0.0,0.0,0.0,0.0,0.0,0.0,0.0,0.0,0.0,0.0,0.0,0.0,0.0,0.0,0.0,0.0,0.0,0.0,0.0,0.0,0.0,0.0,0.0,0.0,0.0,0.0,0.0,0.0,0.0,0.0,0.0,0.0,0.0,0.0,0.0,3.6134,0.0,0.0,0.0,0.0,0.0,0.0,0.0,0.0,0.0,0.0,0.0,0.0,0.0,0.0,0.0,0.0,0.0,0.0,0.0,0.0,0.0,0.0,0.0,0.0,0.0,0.0,0.0,0.0,0.0,0.0,0.0,0.0,0.0,0.0,0.0,0.0,0.0,0.0,0.0,0.0,0.0,2.7425,2.7901,2.8333,2.8502,2.8567,2.8513,2.8258,2.7491,2.6403,2.4999,2.4118,0.0,0.0,0.0,0.0,0.0,0.0,0.0,0.0,0.0,0.0,0.0,0.0,0.0,0.0,0.0,0.0,0.0,0.0,0.0,0.0,0.0,0.0,0.0,0.0,0.0,0.0,0.0,0.0,0.0,0.0,0.0,0.0,0.0,0.0,0.0,0.0,0.0,0.0,0.0,0.0,0.0,0.0,0.0,0.0,0.0,0.0,0.0,0.0,0.0,0.0,0.0,0.0,0.0,0.0,0.0,0.0,0.0,0.0,0.0,0.0,3.7758,0.0,0.0,0.0,0.0,0.0,0.0,0.0,0.0,0.0,0.0,0.0,0.0,0.0,0.0,0.0,0.0,0.0,0.0,0.0,0.0,0.0,0.0,0.0,0.0,0.0,0.0,0.0,0.0,0.0,0.0,0.0,0.0,0.0,0.0,0.0,0.0,0.0,0.0,0.0,0.0,2.7623,2.8293,2.8839,2.9176,2.9566,2.9715,2.9428,2.8868,2.791,2.6352,2.5454,0.0,0.0,0.0,0.0,0.0,0.0,0.0,0.0,0.0,0.0,0.0,0.0,0.0,0.0,0.0,0.0,0.0,0.0,0.0,0.0,0.0,0.0,0.0,0.0,0.0,0.0,0.0,0.0,0.0,0.0,0.0,0.0,0.0,0.0,0.0,0.0,0.0,0.0,0.0,0.0,0.0,0.0,0.0,0.0,0.0,0.0,0.0,0.0,0.0,0.0,0.0,0.0,0.0,4.3698,4.3458,4.3578,4.3123,4.3138,4.3343,4.095,3.9809,3.9638,3.9056,0.0,0.0,0.0,0.0,0.0,0.0,0.0,0.0,0.0,0.0,0.0,0.0,0.0,0.0,0.0,0.0,0.0,0.0,0.0,0.0,0.0,0.0,0.0,0.0,3.9615,3.8538,0.0,0.0,0.0,0.0,0.0,0.0,0.0,0.0,0.0,0.0,0.0,0.0,2.825,2.8925,2.9531,3.0,3.044,3.0629,3.0393,2.9966,2.9129,2.77,2.6842,2.5816,0.0,0.0,0.0,0.0,0.0,0.0,0.0,0.0,0.0,0.0,0.0,0.0,0.0,0.0,0.0,0.0,0.0,0.0,0.0,0.0,0.0,0.0,0.0,0.0,0.0,0.0,0.0,0.0,0.0,0.0,0.0,0.0,3.6586,3.7207,0.0,0.0,0.0,0.0,0.0,0.0,0.0,0.0,0.0,0.0,0.0,0.0,0.0,4.4047,4.544,4.5456,4.5804,4.6578,4.6058,4.5778,4.5592,4.4952,4.4802,4.4979,4.443,0.0,4.1923,4.1438,0.0,0.0,0.0,0.0,0.0,0.0,0.0,0.0,0.0,0.0,0.0,0.0,0.0,0.0,0.0,0.0,0.0,0.0,0.0,0.0,0.0,0.0,4.0905,4.1543,4.1242,4.0657,0.0,3.7907,3.5927,3.5211,3.4032,0.0,0.0,0.0,0.0,0.0,0.0,0.0,2.9253,2.9949,3.0578,3.1071,3.1121,3.1117,3.1074,3.0805,3.013,2.8939,2.8932,2.8395,2.6988,2.6262,0.0,0.0,0.0,0.0,0.0,0.0,0.0,0.0,0.0,0.0,0.0,0.0,0.0,0.0,0.0,0.0,0.0,0.0,0.0,0.0,0.0,0.0,0.0,0.0,0.0,0.0,0.0,0.0,0.0,3.7914,3.9247,4.0408,4.0396,4.014,0.0,0.0,0.0,0.0,0.0,0.0,0.0,0.0,0.0,4.5757,4.6242,4.6966,4.794,4.7956,4.8304,4.8944,4.8537,4.822,4.7995,4.7451,4.7163,4.7152,4.7069,4.6355,4.5206,4.3938,4.3217,4.2946,0.0,0.0,0.0,0.0,4.2922,4.2736,4.2395,4.1843,0.0,0.0,0.0,0.0,0.0,0.0,0.0,0.0,0.0,0.0,0.0,0.0,0.0,4.2936,4.2653,4.2286,4.2085,4.0891,3.9389,0.0,3.5764,3.4257,3.3284,0.0,0.0,0.0,0.0,3.0044,3.0268,3.0785,3.1219,3.1414,3.1528,3.1484,3.1176,3.1055,3.0639,2.9893,2.9811,2.9406,2.8398,2.8052,2.7413,0.0,0.0,0.0,0.0,0.0,0.0,0.0,0.0,0.0,0.0,0.0,0.0,0.0,0.0,0.0,0.0,0.0,0.0,0.0,0.0,0.0,0.0,0.0,0.0,0.0,0.0,0.0,0.0,4.0442,4.1694,4.3331,4.2988,4.2521,0.0,0.0,0.0,0.0,0.0,0.0,4.6561,4.7967,4.8813,4.8959,4.9109,4.9523,5.0214,5.0176,5.0397,5.0892,5.0493,5.0182,4.9979,4.943,4.9066,4.8934,4.8811,4.8476,4.7879,4.6284,4.5624,4.5686,4.5754,4.6045,4.6489,4.6582,4.6262,4.569,4.5219,4.4425,4.3544,4.3144,0.0,4.1745,4.1433,0.0,0.0,0.0,0.0,4.3055,4.3417,4.3936,4.4343,4.4026,4.3699,4.3409,4.3195,4.285,4.1864,0.0,3.751,3.5872,3.4921,0.0,0.0,0.0,0.0,3.1186,3.1276,3.1627,3.1826,3.1601,3.1682,3.1552,3.1016,3.0966,3.079,3.0396,3.0457,3.0278,2.9671,2.9671,2.9066,2.7823,0.0,0.0,0.0,0.0,0.0,0.0,0.0,0.0,0.0,0.0,0.0,0.0,0.0,0.0,0.0,0.0,0.0,0.0,0.0,0.0,0.0,0.0,0.0,0.0,0.0,0.0,0.0,0.0,0.0,4.5016,4.575,0.0,0.0,0.0,0.0,4.5893,4.8224,4.9675,4.9675,5.0417,5.1043,5.1513,5.1204,5.1409,5.2134,5.1974,5.1882,5.1915,5.1496,5.1215,5.1005,5.0221,4.9829,4.9789,4.9374,4.9157,4.9063,4.8393,4.784,4.7554,4.8312,4.8687,4.8871,4.9243,4.8942,4.8304,4.827,4.7539,4.6595,4.656,4.5642,4.4327,4.3361,4.3087,0.0,0.0,4.3504,4.405,4.4045,4.4412,4.4752,4.461,4.4243,4.391,4.3729,4.3305,4.2507,0.0,3.9621,3.8017,3.5832,0.0,3.317,3.2261,3.195,3.1962,3.2289,3.2494,3.2469,3.1911,3.1597,3.1223,3.0656,3.0618,3.0513,3.0236,3.1228,3.1612,3.1101,3.1144,3.0864,3.024,2.9447,0.0,0.0,0.0,0.0,0.0,0.0,0.0,0.0,0.0,0.0,0.0,0.0,0.0,0.0,0.0,0.0,0.0,0.0,0.0,0.0,0.0,0.0,0.0,0.0,0.0,0.0,0.0,0.0,4.7407,4.8018,0.0,4.7826,4.8608,4.9154,4.9188,5.1097,5.2306,5.2412,5.2918,5.3244,5.3322,5.2859,5.2722,5.2886,5.2677,5.259,5.2572,5.2291,5.2076,5.1858,5.1422,5.1161,5.1065,5.0897,5.0821,5.0789,5.0736,5.0117,4.9335,5.0171,5.0672,5.0933,5.0859,5.0438,4.9809,4.921,4.8448,4.7671,4.7438,4.6955,4.6291,4.5495,4.5558,4.5832,4.5364,4.5701,4.6164,4.5904,4.5901,4.5821,4.5237,4.4858,4.4511,4.4166,4.3406,4.2602,4.1972,4.0445,3.8726,3.6973,3.5616,3.4508,3.371,3.3431,3.3297,3.3232,3.3441,3.3394,3.2807,3.2461,3.1988,3.1317,3.0906,3.0648,3.0637,3.104,3.1213,3.1161,3.1173,3.0831,3.0102,2.9911,2.9427,0.0,0.0,0.0,0.0,0.0,0.0,0.0,0.0,0.0,0.0,0.0,0.0,0.0,0.0,0.0,0.0,0.0,0.0,0.0,0.0,0.0,0.0,0.0,0.0,0.0,4.5824,4.7799,4.9259,4.9743,5.0023,5.0232,5.0929,5.1501,5.1847,5.3473,5.4513,5.4641,5.4909,5.4948,5.4769,5.4218,5.3831,5.3651,5.3433,5.3332,5.3281,5.3162,5.2939,5.2661,5.2414,5.2183,5.2004,5.1931,5.1895,5.1931,5.2112,5.1716,5.1065,5.1659,5.2095,5.235,5.1947,5.1397,5.0691,4.9522,4.8806,4.834,4.8,4.7787,4.7572,4.7095,4.7259,4.7506,4.7046,4.7259,4.7555,4.7253,4.7032,4.6722,4.6127,4.5414,4.4798,4.4421,4.3448,4.2501,4.1995,4.0645,3.9208,3.7908,3.6736,3.5669,3.4853,3.4577,3.4327,3.405,3.4189,3.4092,3.3574,3.3342,3.2857,3.1978,3.1445,3.1124,3.0971,3.0994,3.0985,3.1041,3.1148,3.0863,3.0155,3.0263,3.0057,2.9548,0.0,0.0,0.0,0.0,0.0,0.0,0.0,0.0,0.0,0.0,0.0,0.0,0.0,0.0,0.0,0.0,0.0,0.0,0.0,0.0,0.0,0.0,0.0,4.5165,4.6642,4.8264,5.0426,5.0893,5.1172,5.1526,5.2629,5.3458,5.3821,5.527,5.6164,5.6311,5.6311,5.6192,5.5918,5.5254,5.4786,5.4512,5.4301,5.4141,5.4013,5.4013,5.3816,5.3433,5.3076,5.2817,5.2609,5.2414,5.2343,5.2343,5.2555,5.2626,5.2661,5.2834,5.3007,5.3112,5.2504,5.1792,5.0914,4.9338,4.8818,4.8738,4.8356,4.8227,4.8195,4.8066,4.8033,4.8033,4.8033,4.8033,4.8033,4.8033,4.7737,4.7388,4.7153,4.5987,4.4865,4.4492,4.3422,4.2201,4.1131,4.0352,3.9566,3.8677,3.7671,3.6665,3.5642,3.5277,0.0,3.4799,3.4758,3.4656,3.4326,3.4286,3.3818,3.272,3.2372,3.1893,3.1089,3.1126,3.1123,3.0912,3.1206,3.1135,3.0645,3.0658,3.0922,3.1411,0.0,0.0,0.0,0.0,0.0,0.0,0.0,0.0,0.0,0.0,0.0,0.0,0.0,0.0,0.0,0.0,0.0,0.0,0.0,0.0,0.0,4.0756,4.2401,4.4493,4.7145,4.9236,5.0307,5.145,5.2369,5.2823,5.3517,5.4257,5.4974,5.5755,5.6273,5.6501,5.642,5.6227,5.5918,5.539,5.4987,5.4665,5.4586,5.4554,5.4491,5.4491,5.4414,5.4175,5.3849,5.3584,5.3399,5.323,5.3161,5.3161,5.3246,5.323,5.323,5.3144,5.3144,5.3061,5.193,5.071,4.956,4.9092,4.8956,4.8925,4.8815,4.8784,4.8784,4.8721,4.8721,4.8721,4.8721,4.8721,4.8721,4.8721,4.853,4.814,4.7416,4.665,4.583,4.4945,4.3699,4.2566,4.2031,4.1023,3.9979,3.8884,3.8115,3.7467,3.6861,3.6468,0.0,3.591,3.6096,3.6279,3.6191,3.6084,3.5769,3.5155,3.4136,3.309,3.2157,3.1428,3.1022,3.0887,3.0866,3.0934,3.1173,3.1574,3.1838,0.0,0.0,0.0,0.0,0.0,0.0,0.0,0.0,0.0,0.0,0.0,0.0,0.0,0.0,0.0,0.0,0.0,0.0,0.0,0.0,0.0,0.0,4.0746,4.1995,4.351,4.6425,4.8802,4.9795,5.1055,5.2079,5.2699,5.3415,5.4154,5.497,5.5653,5.6154,5.6456,5.6492,5.6282,5.5901,5.5601,5.5259,5.4909,5.5048,5.5109,5.5139,5.5169,5.5048,5.479,5.4445,5.4158,0.0,5.3701,5.3568,5.3584,5.3534,5.3501,0.0,0.0,0.0,0.0,0.0,5.0287,4.9001,4.9001,4.9001,4.9001,4.9001,4.9001,4.9001,4.9001,4.9001,4.9001,4.9001,4.9001,4.9001,4.9063,4.8998,4.8717,4.7986,4.7214,4.6393,4.5353,4.4036,4.288,4.2489,0.0,0.0,3.9793,3.8965,3.8225,3.7749,3.7404,3.7159,3.6975,3.7169,3.7376,3.7453,3.7367,3.7112,3.6653,3.5711,0.0,0.0,0.0,3.1836,3.1282,3.1281,0.0,0.0,0.0,0.0,0.0,0.0,0.0,0.0,3.3941,3.4653,0.0,0.0,0.0,0.0,0.0,0.0,0.0,0.0,0.0,0.0,0.0,0.0,0.0,0.0,0.0,0.0,4.0372,4.1307,4.2367,4.488,4.7209,4.8848,4.9891,5.0811,5.1578,5.2492,5.3348,5.4151,5.5077,5.5709,5.6073,0.0,0.0,0.0,0.0,5.5484,5.5169,5.5514,5.5735,5.5775,5.589,5.5729,5.5301,5.497,5.4631,5.4284,5.3946,5.3766,5.3733,5.3584,5.3501,5.3501,5.3501,5.3399,5.3078,5.1692,5.0287,0.0,0.0,0.0,0.0,4.9001,4.9001,4.9001,4.9001,4.9001,4.9001,4.9001,4.9001,4.9032,4.9199,4.9205,4.9035,4.8575,4.7672,4.6658,4.5694,4.4432,4.3306,4.2803,4.2013,4.1307,4.0919,3.9915,3.8995,3.8427,3.8127,3.7962,3.7962,3.7962,3.8037,3.824,0.0,0.0,3.755,3.7053,3.6299,3.5129,3.4167,3.3146,3.2118,3.2281,3.2722,3.33,3.3796,3.419,3.4392,3.4721,3.4942,3.5223,3.5478,3.6038,0.0,0.0,0.0,0.0,0.0,0.0,0.0,0.0,0.0,0.0,0.0,0.0,0.0,0.0,0.0,4.0316,4.0621,4.1095,4.1763,4.2876,4.4475,4.6694,4.7947,4.9016,5.0008,5.087,5.1825,5.2943,5.3743,5.4319,5.4665,5.5022,5.5099,5.4852,5.5031,5.5113,5.5035,5.5472,5.5839,5.6095,0.0,0.0,5.6063,5.5629,5.5266,5.497,5.454,5.4254,5.4059,5.3766,5.3618,5.3501,5.3501,5.2756,5.1623,5.1319,5.0287,4.9001,4.9001,4.9001,4.9001,4.9001,4.9001,4.9001,4.9001,4.9001,0.0,4.9001,4.9001,4.9063,4.9367,4.911,4.8712,4.8429,4.7683,4.6777,4.5735,4.4923,4.4214,4.3532,4.2818,4.211,4.1357,4.0301,3.9502,3.9228,3.8738,3.8366,3.8366,3.8366,3.8464,3.8671,3.8833,3.8863,3.8781,3.793,3.7054,3.6169,3.4689,3.3777,3.3643,3.3785,3.4097,3.4724,3.5042,3.5153,3.5034,3.5537,3.5767,3.5747,3.5603,3.609,0.0,0.0,0.0,0.0,0.0,0.0,0.0,0.0,0.0,0.0,0.0,4.1119,4.1153,0.0,4.0809,4.0911,4.0878,4.0921,4.1058,4.1521,4.262,4.4709,4.602,4.7098,4.7958,4.8898,4.9834,5.0768,5.1776,5.2515,5.2892,5.3463,5.3777,5.3696,5.399,5.4186,5.4281,5.4874,5.5402,5.5883,5.6209,5.6374,5.6456,5.6101,5.5848,5.5624,5.5152,5.4848,5.4662,5.4093,5.375,5.3568,5.3534,5.257,5.1185,5.1185,5.0287,4.9001,4.9001,4.9001,4.9001,4.9001,4.9001,4.9001,4.9001,4.9001,4.9001,4.9001,4.9001,4.9063,4.9428,4.9416,4.9158,4.8548,4.8119,4.7498,4.6139,4.5381,4.478,4.4162,4.3489,4.2741,4.1948,4.1091,4.0301,3.9661,3.9104,3.8775,3.8649,3.8553,3.8553,3.8649,3.8833,3.898,3.9104,3.837,3.7779,3.7462,3.6136,3.5463,3.5659,3.5765,3.5869,3.6064,3.6371,3.6328,3.5956,3.5953,3.5869,3.5671,3.5258,3.573,0.0,0.0,0.0,0.0,0.0,0.0,0.0,4.013,4.162,4.162,4.2301,4.2919,4.3011,4.239,4.1762,4.1459,4.1169,4.0833,4.044,4.0593,4.1246,4.2689,4.4022,4.5087,4.5752,4.6809,4.7718,4.8368,4.9481,5.0314,5.0731,5.1556,5.2037,5.221,5.2667,5.3027,5.3281,5.3989,5.4682,5.5361,5.5876,5.6274,5.6528,5.6411,5.6302,5.6182,5.5694,5.5373,5.5122,5.4445,5.398,5.375,5.3618,5.2688,5.142,5.1236,5.0371,4.9187,4.9052,4.9001,4.9001,4.9001,4.9001,4.9001,4.9001,4.9001,4.9001,4.9001,4.9001,4.9063,4.935,4.9558,4.9504,4.8793,4.8487,4.7994,4.6653,4.5788,4.5096,4.4659,4.3977,4.3265,4.2506,4.1819,4.1005,3.995,3.9394,3.9017,3.876,3.8516,3.8329,3.8366,3.8538,3.876,3.9017,3.8767,3.8594,3.8701,3.7948,3.7607,3.775,3.7722,3.7635,3.7474,3.7599,3.7433,3.6896,3.6439,3.6007,3.5643,3.499,3.5287,3.7011,3.6689,3.6953,3.8643,3.9478,4.0048,0.0,4.2247,4.3419,4.3419,4.4078,4.4704,4.4647,4.401,4.325,4.2409,4.1703,4.1021,4.0224,4.0173,4.0275,4.0453,4.1815,4.3006,4.3773,4.4752,4.5587,4.63,4.701,4.7634,4.8079,4.8923,4.9592,5.0031,5.101,5.1724,5.2084,5.2993,5.3777,5.443,5.5172,5.5791,5.6357,5.6501,5.6573,5.6519,5.606,5.5613,5.5169,5.4772,5.4382,5.3948,5.375,5.3058,5.2097,5.1454,5.0676,4.9864,4.9221,4.9001,4.9001,4.9001,4.9001,4.9001,4.9001,4.9001,4.9001,4.9001,4.9001,4.9032,4.9199,4.903,4.8866,4.908,4.826,4.7347,4.707,4.6152,4.5257,4.4858,4.4207,4.3549,4.2865,4.2077,4.1241,4.0285,3.9559,3.8958,3.859,3.8066,3.7763,3.7962,3.8,3.8225,3.8797,3.9476,3.9756,3.9422,3.9678,3.9822,3.9771,3.9158,3.8892,3.9054,3.8617,3.816,3.7671,3.7384,3.6862,3.6096,3.5338,3.5027,3.8329,3.8907,3.9694,4.0083,4.1171,4.2238,4.2611,4.3887,4.505,4.505,4.5611,4.6059,4.5903,4.5176,4.4291,4.345,4.2346,4.1285,4.0681,4.0185,3.9839,3.9672,4.0185,4.0919,4.1914,4.2461,4.3047,4.3624,4.445,4.5168,4.5649,4.6678,4.7465,4.7958,4.8814,4.9528,5.0094,5.1106,5.2037,5.2841,5.3969,5.4818,5.5461,5.5961,5.6347,5.66,5.6392,5.6098,5.5682,5.5284,5.4848,5.4382,5.3996,5.3546,5.2957,5.1673,5.0727,4.9982,4.9255,4.9001,4.9001,4.9001,4.9001,4.9001,4.9001,4.9001,4.9001,4.9001,4.9001,4.9032,4.9168,4.9185,4.9136,4.8957,4.8536,4.8028,4.7496,4.6552,4.5737,4.5495,4.4727,4.3873,4.3232,4.2585,4.1819,4.0699,3.9737,3.8922,3.8389,3.7915,3.7687,3.7886,3.846,3.9019,3.9521,4.0353,4.0987,4.1292,4.1483,4.1681,4.1917,4.1497,4.1119,4.0802,4.026,3.9664,3.9033,3.8175,3.7575,3.7082,3.5836,3.5249,3.9972,4.1062,4.2172,4.1908,4.3127,4.4356,4.4414,4.5447,4.6362,4.6261,4.6648,4.6931,4.6712,4.5986,4.511,4.4214,4.2916,4.1769,4.0984,4.0185,3.9581,3.9206,3.8921,3.9013,3.9686,4.0262,4.0805,4.118,4.2057,4.2724,4.3115,4.4325,4.5242,4.5678,4.6651,4.7415,4.8065,4.9184,5.0256,5.1243,5.2548,5.3595,5.443,5.5273,5.5968,5.6447,5.6447,5.6338,5.6098,5.5653,5.5212,5.471,5.4254,5.3898,5.3514,5.2061,5.1048,5.0287,4.956,4.9171,4.9001,4.9001,4.9001,4.9001,4.9001,4.9001,4.9001,4.9001,4.9001,4.9032,4.9107,4.926,4.9334,4.8929,4.877,4.8524,4.7956,4.7055,4.6249,4.5949,4.5201,4.4356,4.3565,4.3121,4.2527,4.1471,4.0517,3.9505,3.8433,3.7877,3.772,3.8069,3.8923,3.9706,4.0262,4.1302,4.2214,4.2857,4.3251,4.3556,4.3719,4.3524,4.3076,4.2382,4.1769,4.1099,4.0389,3.9448,3.8767,3.8392,3.7054,3.6225,4.1922,4.2811,4.3822,4.4582,4.5483,4.6296,4.6461,4.6901,4.7178,4.6945,4.7091,4.7207,4.6931,4.6476,4.5732,4.4499,4.3402,4.2319,4.1071,4.0185,3.9478,3.8893,3.8133,3.7441,3.6862,3.8295,3.9274,3.9274,3.9802,4.0224,4.0503,4.1802,4.2716,4.3204,4.4674,4.5705,4.6196,4.7485,4.8707,4.9773,5.1069,5.2281,5.3382,5.4589,5.5484,5.6126,5.6126,5.6144,5.6169,5.5822,5.5413,5.493,5.4397,5.3979,5.3582,5.2619,5.1809,5.1065,5.0321,4.9593,4.9001,4.9001,4.9001,4.9001,4.9001,4.9001,4.9001,4.9001,4.9001,4.9001,4.9001,4.9124,4.9199,4.9195,4.8788,4.8407,4.8389,4.7629,4.6765,4.6051,4.5624,4.5035,4.3977,4.3653,4.3363,4.2651,4.2175,4.1076,3.8788,3.7953,3.7853,3.8492,3.9122,3.9859,4.0722,4.2281,4.3332,4.3571,4.4846,4.5447,4.5073,4.4856,4.435,4.357,4.2911,4.2237,4.1646,4.1293,4.074,4.0025,3.9396,3.8225,4.3044,4.4126,4.5495,4.5868,4.6534,4.7235,4.7794,4.8061,4.7996,4.7456,4.7338,4.7118,4.6539,4.6036,4.5508,4.4737,4.3626,4.26,4.2047,4.0683,3.9563,3.912,3.7816,3.6688,3.5927,3.6491,3.716,3.7717,3.8078,3.8707,3.9663,4.0377,4.1093,4.1806,4.2676,4.3545,4.4452,4.5676,4.6898,4.8065,5.0195,5.1816,5.2976,5.3778,5.4544,5.5296,5.5414,5.5636,5.5975,5.5642,5.5378,5.5079,5.4443,5.4076,5.3815,5.3279,5.2604,5.1758,5.0524,4.9932,4.9644,4.9171,4.9001,4.9001,4.9001,4.9001,4.9001,4.9001,4.9001,4.9001,4.9001,4.9032,4.9063,4.9063,4.8938,4.8799,4.8799,4.8175,4.7522,4.7268,4.6722,4.6106,4.5374,4.5032,4.4415,4.3142,4.2065,4.1039,3.9962,3.9533,3.9464,3.9823,4.0583,4.1209,4.164,4.2952,4.393,4.4375,4.5353,4.5965,4.6108,4.5913,4.5683,4.5463,4.4589,4.4031,4.3899,4.3128,4.2606,4.227,4.1048,3.9777,4.4597,4.5748,4.7029,4.702,4.7511,4.8075,4.8251,4.8295,4.8106,4.7528,4.7275,4.695,4.64,4.6064,4.5737,4.5214,4.4321,4.3468,4.2905,4.1454,4.0177,3.9454,3.7927,3.6517,3.5501,3.5265,3.5365,3.596,3.6522,3.7278,3.822,3.8953,3.9632,4.0413,4.1129,4.1954,4.2881,4.4064,4.5419,4.7088,4.9224,5.0822,5.196,5.263,5.3432,5.4264,5.4548,5.4918,5.5343,5.5194,5.5061,5.4913,5.4333,5.4061,5.3965,5.3685,5.3312,5.2782,5.1366,5.0524,5.0016,4.9543,4.9221,4.9001,4.9001,4.9001,4.9001,4.9001,4.9001,4.9001,4.9001,4.9001,4.9001,4.9001,4.9001,4.9001,4.9001,4.8646,4.824,4.7939,4.753,4.6971,4.6307,4.5963,4.5407,4.4287,4.3276,4.2191,4.0994,4.0641,4.0612,4.0911,4.1519,4.2031,4.2372,4.3458,4.4305,4.4774,4.5624,4.625,4.6582,4.6734,4.6713,4.6554,4.5866,4.541,4.5218,4.4627,4.4165,4.3913,4.2854,4.1678,4.6499,4.7539,4.8353,4.8053,4.8431,4.872,4.7977,4.7804,4.7691,4.7254,4.6983,4.6787,4.652,4.6554,4.6384,4.5812,4.5445,4.481,4.3679,4.25,4.1225,3.9861,3.8278,3.6845,3.5561,3.4595,3.4063,3.4138,0.0,3.5896,3.6277,3.7478,3.8399,3.905,3.9961,4.0795,4.1597,4.266,4.4349,4.6725,4.8023,4.9215,5.032,5.1182,5.2131,5.3043,5.3566,5.4025,5.4359,5.4568,5.4572,5.4448,5.4127,5.398,5.398,5.3783,5.3913,5.4053,5.2835,5.1468,5.0248,5.0149,4.9658,4.9052,4.9018,4.9001,4.9001,4.9001,4.9001,4.9001,4.9001,4.9001,4.9001,4.9001,4.9001,4.9001,4.9001,4.9001,4.8798,4.8075,4.7939,4.7673,4.675,4.6459,4.6286,4.6103,4.5733,4.4532,4.1889,4.1398,4.1392,4.174,4.2026,4.2396,4.2976,4.3801,4.4419,4.479,4.5697,4.6337,4.6596,4.7287,4.7401,4.686,4.6703,4.633,4.571,4.5699,4.5492,4.504,4.4841,4.3789,4.7568,4.8123,4.8803,4.8912,4.8941,4.9033,4.9227,4.9144,4.8855,4.8217,4.785,4.7344,4.6528,4.6585,4.6559,4.6081,4.571,4.5364,4.501,4.3297,4.1777,4.0937,3.8995,3.7166,3.59,3.4809,3.3963,0.0,3.4185,3.5106,3.631,3.665,3.7269,3.8336,3.8912,3.9634,4.0478,4.211,4.3673,4.5178,4.6197,4.7398,4.8738,4.9655,5.0681,5.1796,5.2435,5.3162,5.3881,5.3913,5.4076,5.4237,5.3898,5.3882,5.398,5.3948,5.4143,5.4397,5.4173,5.3327,5.2099,5.0757,5.0187,4.9902,4.9201,4.9001,4.9001,4.9001,4.9001,4.9001,4.9001,4.9001,4.9001,4.9001,4.9001,4.9001,4.9001,4.9001,4.8951,4.8765,4.8638,4.8464,4.8042,4.7698,4.7342,4.688,4.6531,4.5694,4.4019,4.3495,4.3223,4.3208,4.305,4.3086,4.3195,4.3621,4.4089,4.4632,4.5126,4.5845,4.6857,4.6986,4.7261,4.777,4.7475,4.7359,4.7406,4.7207,4.6954,4.665,4.5884,4.4752,4.8965,4.9184,4.9415,4.9461,4.9261,4.9022,4.8812,4.8597,4.8215,4.7391,4.696,4.6572,4.6116,4.6429,4.6679,4.6388,4.6503,4.6438,4.5903,4.4439,4.3097,4.2114,4.012,3.8332,3.7052,3.5767,3.4667,3.4061,3.4051,3.4493,3.5403,3.5725,3.6447,3.7594,3.8168,3.9025,4.0236,4.1495,4.2633,4.3673,4.4631,4.5797,4.7115,4.8258,4.94,5.0566,0.0,5.2219,5.2957,5.323,5.35,5.3749,5.3651,5.3816,5.4093,5.4175,5.4603,5.5126,5.5139,5.4855,5.4189,5.2272,5.1176,5.0486,4.9814,4.9365,4.9094,4.9001,4.9001,4.9001,4.9001,4.9001,4.9001,4.9001,4.9001,4.9001,4.9001,4.9001,4.9001,4.9001,4.8956,4.8832,4.8658,4.8452,4.8146,4.7671,4.7303,4.6722,4.5728,4.4896,4.4243,4.3871,4.3636,4.3423,4.329,4.3636,4.4026,4.4435,4.5235,4.6027,4.674,4.7387,4.7799,4.7984,4.8044,4.807,4.8133,4.8007,4.7837,4.7709,4.7017,4.6064,5.0465,5.0429,5.0187,4.9895,4.9487,4.8872,4.7793,4.7312,4.6858,4.6022,4.5577,4.5472,4.5779,4.6353,4.6765,4.6849,4.7451,4.7565,4.6584,4.5824,4.4819,4.3424,4.1659,4.0048,3.8766,3.716,3.5911,3.5222,3.4487,3.4099,3.4207,3.4882,3.5881,3.7075,3.7786,3.8868,4.0453,4.0933,4.1495,4.2222,4.3197,4.4317,4.5553,4.6957,4.819,4.9327,0.0,0.0,5.1951,5.259,5.3007,5.3213,5.3416,5.38,5.4188,5.4431,5.5096,5.589,5.5815,5.6052,5.6031,5.406,5.2473,5.1223,5.0683,5.0032,4.9409,4.9172,4.9124,4.9094,4.9094,4.9148,4.9168,4.9049,4.9154,4.9238,4.9035,4.9001,4.9001,4.9001,4.9001,4.897,4.8849,4.8849,4.8707,4.8324,4.8,4.7588,4.7048,4.5801,4.4761,4.4127,4.3832,4.3596,4.3329,4.379,4.4187,4.4419,4.5763,4.6639,4.6771,4.8119,4.86,4.8091,4.8517,4.862,4.8412,4.8537,4.8537,4.8453,4.8214,4.7478,5.1572,5.1355,5.1044,5.0585,4.9736,4.8885,4.8336,4.759,4.695,4.6684,4.6424,4.6352,4.6564,4.6778,4.7121,4.7682,4.787,4.7889,4.784,4.7059,4.615,4.5182,4.3483,4.1931,4.0743,3.8944,3.7522,3.6635,3.5544,3.4756,3.4329,3.4635,3.5758,3.7756,3.8352,3.9154,4.0185,4.0275,4.0567,4.1172,4.2003,4.2964,4.4059,4.566,4.703,4.8267,4.9734,0.0,5.157,5.2326,5.2886,5.3213,5.3416,5.3718,5.411,5.4509,5.5109,5.5786,5.6282,5.6555,5.6438,5.4708,5.3871,5.3258,5.1632,5.0959,5.0617,4.9939,4.9661,4.959,4.959,4.9858,4.9997,4.9321,5.0026,5.049,4.9272,4.9001,4.9001,4.9001,4.9001,4.9001,4.897,4.8987,4.8909,4.8707,4.8483,4.8114,4.7404,4.6127,4.5089,4.4534,4.4026,4.3596,4.3329,4.4093,4.4728,4.5107,4.6214,4.7263,4.8184,4.849,4.8765,4.9048,4.9293,4.9316,4.9113,4.9606,4.9686,4.9356,4.9107,4.8475,5.217,5.1988,5.1662,5.1236,5.0162,4.8983,4.8219,4.7199,4.6265,4.5749,4.579,4.6055,4.6457,4.6946,4.7533,4.8183,4.8326,4.8422,4.878,4.7944,4.7124,4.6657,4.5102,4.3538,4.237,4.0695,3.9311,3.8447,3.7347,3.6097,3.4763,3.5239,3.6264,3.7933,3.8514,3.9154,3.9878,3.989,4.0083,4.0478,4.1272,4.2199,4.3239,4.4978,4.6373,4.7634,4.9188,0.0,5.1161,5.2076,5.2677,5.3076,5.3382,5.3734,5.4141,5.4554,5.5212,5.5968,5.6447,5.6821,5.6982,5.6098,5.5283,5.4451,5.3223,5.2532,5.208,5.1506,5.1315,5.1244,5.1173,5.124,5.1216,5.0765,5.1009,5.111,5.0304,5.0152,5.0033,4.9644,4.956,4.9427,4.8976,4.9198,4.9356,4.9086,4.9225,4.9094,4.8482,4.7445,4.6259,4.4845,4.4587,4.4331,4.3838,4.4856,4.5651,4.5953,4.7419,4.8455,4.888,4.9553,4.9826,4.9606,4.99,4.9979,4.9781,5.0393,5.0509,5.0237,5.0088,4.9519,5.2393,5.2368,5.2162,5.1811,5.0492,4.9047,4.7979,4.6711,4.5518,4.4761,4.5059,4.5622,4.623,4.6969,4.7784,4.8654,4.8762,4.8986,4.9678,4.8938,4.831,4.8197,4.6788,4.5316,4.417,4.2643,4.1403,4.0522,3.9312,3.7678,3.5627,3.6127,3.7012,3.8145,3.8631,3.9166,3.9685,3.9697,3.9788,4.0032,4.082,4.1693,4.2695,4.4377,4.5899,4.7204,4.878,0.0,0.0,5.1895,5.2572,5.3007,5.3348,5.3717,5.4124,5.4523,5.5182,5.5968,5.6374,5.6899,5.7289,5.7213,5.6492,5.5517,5.4833,5.4207,5.3639,5.3194,5.3011,5.2943,5.2817,5.2676,5.255,5.2451,5.1933,5.1492,5.1452,5.1319,5.1048,5.0439,5.0306,5.0057,4.9342,4.9567,4.9741,4.946,4.9739,4.9758,4.9209,4.8561,4.7372,4.5408,4.5348,4.5227,4.4567,4.5698,4.6578,4.6843,4.8606,4.9655,4.9677,5.0661,5.0951,5.0361,5.0647,5.0723,5.057,5.114,5.1327,5.114,5.1102,5.0554,5.2195,5.2435,5.2627,5.218,5.0586,4.8912,4.8066,4.6527,4.5145,4.4699,4.5179,4.5848,4.638,4.6865,4.7636,4.919,4.9122,4.9395,5.0834,5.0541,5.0176,5.0151,4.8929,4.7661,4.6528,4.5116,4.3926,4.3015,4.1225,3.9333,3.7382,3.7142,3.7524,3.8684,3.905,3.9426,3.9697,3.9697,3.9697,3.9736,4.0542,4.1358,4.2124,4.3687,4.5312,4.7003,4.8377,0.0,0.0,5.1967,5.2642,5.3179,5.3416,5.3618,5.3799,5.4335,5.4852,5.539,5.609,5.6626,5.7036,5.7163,5.7127,5.6852,5.5941,5.5526,5.5225,5.4463,5.4068,5.3833,5.3718,5.3764,5.3843,5.3813,5.2637,5.1628,5.2096,5.1674,5.1168,5.1116,5.0986,5.0823,5.0559,5.0276,5.0004,4.9781,4.9622,4.9355,4.8727,4.8434,4.7811,4.6576,4.6162,4.5763,4.5241,4.6271,4.7186,4.7747,4.9261,5.0435,5.1176,5.148,5.1712,5.1789,5.1842,5.1842,5.1842,5.2255,5.2362,5.2164,5.1951,5.1533,5.2151,5.2566,5.2806,5.2397,5.0731,4.9004,4.8207,4.6619,4.5341,4.5365,4.6034,4.6782,4.7365,4.7885,4.8681,5.0025,4.9657,4.9876,5.1668,5.132,5.0942,5.1046,5.0212,4.9176,4.808,4.7047,4.5886,4.4725,4.2761,0.0,4.0821,3.9088,3.8437,3.9102,3.9218,3.9426,3.9697,3.9697,3.9697,3.9697,4.0542,4.1235,4.1868,4.3444,4.4961,4.6476,4.8012,0.0,0.0,5.1858,5.2572,5.3041,5.3382,5.3584,5.3733,5.4078,5.4509,5.497,5.5478,5.5978,5.6492,5.6714,5.6966,5.7134,5.6758,5.6649,5.6602,5.6194,5.5952,5.5772,5.5553,5.5119,5.4617,5.4232,5.3534,5.3016,5.3026,5.2807,5.2436,5.1831,5.1597,5.1212,5.0306,5.0173,5.0027,4.945,4.9614,4.9493,4.8859,4.86,4.8233,4.7533,4.7032,4.6542,4.596,4.7065,4.7998,4.8484,4.9891,5.0989,5.1549,5.2112,5.2414,5.2362,5.2485,5.2485,5.2362,5.2765,5.2852,5.2642,5.2572,5.2219,5.1692,5.2318,5.2611,5.22,5.0785,4.9198,4.8152,4.69,4.5969,4.6069,4.6959,4.778,4.8182,4.8749,4.9523,5.0656,5.0274,5.0481,5.2412,5.2228,5.191,5.2004,5.1531,5.0748,4.963,4.866,4.7601,4.6347,4.4617,0.0,4.3489,4.1222,3.9917,3.9775,3.962,3.962,3.9839,3.9736,3.9697,3.9697,4.0338,4.0984,4.1634,4.2916,4.4392,4.5974,0.0,0.0,0.0,5.1623,5.243,5.2938,5.328,5.3517,5.3651,5.3849,5.4158,5.4523,5.4865,5.5361,5.5883,5.6156,5.6564,5.6992,5.7112,5.7332,5.7504,5.7437,5.7232,5.6925,5.6555,5.5815,5.4987,5.4348,5.4044,5.3833,5.3568,5.3501,5.3281,5.2573,5.2219,5.1692,5.057,5.0415,5.0241,4.9544,4.9686,4.9725,4.9188,4.8959,4.8702,4.8218,4.7889,4.7406,4.6664,4.7537,4.8313,4.878,5.001,5.0989,5.1586,5.2378,5.2817,5.2765,5.2972,5.3024,5.2852,5.3144,5.323,5.3093,5.3024,5.2626,5.0731,5.1551,5.1894,5.1519,5.0659,4.9469,4.7864,4.7345,4.7073,4.6669,4.7762,4.8741,4.8615,4.9076,4.9892,5.1012,5.0858,5.121,5.3036,5.3383,5.3404,5.3188,5.3052,5.2516,5.1309,5.0028,4.8902,4.8021,4.6834,0.0,4.466,4.3394,4.2173,4.0933,4.0377,4.007,4.007,3.9839,3.9697,3.9697,3.9981,4.0529,4.1309,4.2075,4.3531,0.0,0.0,0.0,0.0,5.1257,5.22,5.2903,5.311,5.3348,5.3534,5.3651,5.3849,5.4063,5.4367,5.4821,5.5242,5.5513,5.6027,5.6582,5.6907,5.7363,5.7815,5.795,5.751,5.6855,5.6247,5.5555,5.4852,5.4333,5.3946,5.3651,5.3534,5.3501,5.3433,5.3213,5.287,5.2397,5.1806,5.1226,5.0781,5.0324,5.0089,4.9836,4.9637,4.9597,4.9316,4.8661,4.8604,4.8229,4.7381,4.7467,4.788,4.8578,4.9446,5.0361,5.1348,5.2183,5.2782,5.3179,5.3382,5.3501,5.3501,5.3501,5.3518,5.3501,5.3298,5.2765,5.0064,5.0645,5.1087,5.0678,4.9884,4.9073,4.8571,4.8081,4.7929,4.8584,4.9232,4.9776,5.0031,5.0596,5.1187,5.1802,5.1945,5.2487,5.3985,5.4067,5.4038,5.4115,5.3197,5.2185,5.1293,5.0394,4.9732,4.9473,4.7951,0.0,4.6534,4.4797,4.3081,4.1498,4.1298,4.1034,4.063,4.0542,4.0338,3.9981,4.0236,4.0491,4.0795,4.1571,0.0,0.0,0.0,0.0,0.0,5.0576,5.1475,5.2128,5.259,5.2852,5.2921,5.3247,5.345,5.3634,5.3865,5.4205,5.4568,5.4892,5.5325,5.5848,5.6366,5.7069,5.7649,5.7601,5.7307,5.6829,5.5989,5.539,5.4821,5.4222,5.3865,5.3651,5.3534,5.3501,5.3399,5.3058,5.2782,5.2378,5.1688,5.1151,5.064,5.0129,4.9852,4.9597,4.9365,4.9309,4.9228,4.9025,4.8903,4.8464,4.7596,4.7709,4.8007,4.837,4.9219,5.0159,5.114,5.1967,5.2642,5.3179,5.3382,5.3501,5.3501,5.3501,5.3501,5.3518,5.3298,5.3007,4.9541,4.9941,5.0204,4.9961,4.9671,4.9387,4.8987,4.9037,4.9365,5.0016,5.0517,5.0962,5.1458,5.1828,5.2211,5.2713,5.2843,5.3301,5.4483,5.468,5.4724,5.4879,5.3526,5.2291,5.1665,5.0932,5.0368,5.0037,0.0,0.0,4.7372,4.587,4.442,4.317,4.2493,4.1954,4.1594,4.1322,4.0984,4.0567,4.0643,4.0605,4.0504,4.1248,0.0,0.0,0.0,0.0,0.0,4.9472,5.0522,5.1327,5.1915,5.2291,5.252,5.2938,5.3179,5.3332,5.3551,5.3799,5.4076,5.4333,5.4878,5.5502,5.6118,5.6897,5.7577,5.7381,5.7094,5.6688,5.5773,5.5182,5.4652,5.4045,5.375,5.3601,5.3534,5.3501,5.3382,5.3093,5.2852,5.2537,5.1908,5.1508,5.1102,5.0663,5.047,5.0338,5.0151,5.0151,5.0073,4.9915,4.9797,4.9374,4.8547,4.8244,4.8133,4.8175,4.899,4.9821,5.0608,5.1623,5.2449,5.2956,5.3314,5.3501,5.3501,5.3501,5.3501,5.3501,5.3382,5.3195,0.0,4.9417,4.9393,4.9393,4.9898,5.0195,4.9288,5.0154,0.0,5.1027,5.1556,5.2221,5.2781,5.2798,5.2989,5.3754,5.3632,5.3751,5.4685,5.5173,5.5442,5.5401,5.4024,5.286,5.232,5.1604,5.0792,4.9965,0.0,0.0,4.7341,4.6606,4.6031,4.5595,4.3951,4.2985,4.2937,4.2248,4.172,4.1408,4.1121,4.0833,4.0605,4.106,0.0,0.0,0.0,0.0,0.0,4.8149,4.9367,5.0438,5.1048,5.1659,5.22,5.2642,5.2938,5.3144,5.3382,5.3568,5.37,5.3915,5.46,5.5443,5.6063,5.6845,5.7486,5.7239,5.6923,5.6465,5.5589,5.4909,5.4335,5.3816,5.3568,5.3501,5.3501,5.3501,5.3433,5.323,5.3041,5.2799,5.2378,5.2183,5.1951,5.1786,5.1749,5.1749,5.1749,5.1749,5.1602,5.1231,5.1194,5.0838,5.0065,4.9,4.8286,4.8091,4.8867,4.9501,4.9947,5.1273,5.2219,5.2626,5.3195,5.3501,5.3501,5.3501,5.3501,5.3501,5.3501,5.3382,4.8343,0.0,4.9255,4.9255,4.9898,5.061,0.0,5.1158,5.1613,5.21,5.2418,5.2799,5.3458,5.3868,5.4235,5.4575,5.4706,5.4855,5.5135,5.5542,5.5745,5.5643,5.4517,5.333,5.2193,5.1257,5.0456,4.9719,0.0,4.8298,4.806,4.7199,4.6697,4.6565,4.5822,4.4929,4.397,4.3796,4.3273,4.2452,4.2173,4.1855,4.1398,4.1361,0.0,0.0,0.0,0.0,4.6122,4.7332,4.832,4.9132,4.9931,5.0454,5.08,5.1676,5.2112,5.2362,5.3041,5.3281,5.3382,5.3849,5.4414,5.497,5.5443,5.6339,5.7105,5.6951,5.6653,5.6184,5.5266,5.4645,5.4158,5.3668,5.3534,5.3501,5.3501,5.3501,5.3433,5.323,5.3144,5.3007,5.259,5.2468,5.2397,5.22,5.2164,5.2164,5.2164,5.2164,5.2128,5.202,5.1895,5.1586,5.1086,4.9947,4.9194,4.899,4.9316,4.986,5.057,5.1496,5.2255,5.2834,5.328,5.3501,5.3501,5.3501,5.3501,5.3501,5.3501,5.3467,4.7708,4.8537,4.9292,5.0167,5.0822,5.1433,5.2093,5.2276,5.2425,5.2799,5.3226,5.3741,5.441,5.4978,5.539,5.5607,5.5479,5.5458,5.5698,5.5879,5.5908,5.5692,5.4477,5.3181,0.0,5.0868,4.9944,0.0,0.0,4.8162,4.7863,4.7358,4.7062,4.7062,4.6931,4.6314,4.5173,4.4943,4.4466,4.3687,4.3402,4.2889,4.2199,4.2164,4.236,0.0,0.0,0.0,4.5537,4.6506,4.7377,4.824,4.9107,4.9646,5.0042,5.1027,5.1586,5.1967,5.2782,5.3195,5.3416,5.375,5.4093,5.4477,5.4939,5.5589,5.6219,5.6447,5.6338,5.5894,5.5044,5.4506,5.4076,5.3618,5.3501,5.3501,5.3501,5.3501,5.3467,5.3348,5.3348,5.3264,5.3041,5.3007,5.2972,5.2868,5.2868,5.2868,5.2868,5.2868,5.2834,5.2712,5.2626,5.2397,5.1987,5.1161,5.0377,4.9606,4.9924,5.0315,5.0663,5.1623,5.2449,5.3161,5.3399,5.3501,5.3501,5.3501,5.3501,5.3501,5.3501,5.3501,4.7371,4.8447,4.9626,5.1481,5.2239,5.2729,5.3408,5.3573,5.3573,5.3573,5.4106,5.48,5.5495,5.5983,5.6375,5.675,5.6311,5.6042,5.6332,5.6208,5.5984,5.5667,5.4296,0.0,5.1793,5.0552,4.9469,0.0,0.0,4.7893,4.7339,4.7309,4.7309,4.7309,4.751,4.7236,4.6476,4.6031,4.5566,4.5007,4.473,4.4111,4.3259,4.3334,4.3266,0.0,0.0,0.0,4.5216,4.5896,4.6726,4.7578,4.8396,4.899,4.9461,5.0509,5.1118,5.1602,5.252,5.3127,5.3534,5.3634,5.3783,5.4045,5.446,5.4803,5.5169,5.5764,5.585,5.5584,5.4865,5.4397,5.4011,5.3584,5.3501,5.3501,5.3501,5.3501,5.3501,5.3501,5.3501,5.3501,5.3501,5.3501,5.3501,5.3501,5.3501,5.3501,5.3501,5.3501,5.3416,5.3264,5.3264,5.311,5.2731,5.2362,5.157,5.0299,5.0647,5.0892,5.0816,5.1858,5.2764,5.3501,5.3501,5.3501,5.3501,5.3501,5.3501,5.3501,5.3501,5.3501,4.8116,4.9639,5.0908,5.2168,5.3778,5.5082,5.5188,5.5225,5.5225,5.5225,5.5317,5.5666,5.6451,5.6553,5.6866,5.7941,5.7722,5.7381,5.7158,5.6574,5.608,5.5785,0.0,5.3288,5.2133,5.0563,0.0,0.0,0.0,4.7414,4.7309,4.7309,4.7309,4.7309,4.751,4.7624,4.7694,4.7452,4.7047,4.655,4.6106,4.5718,4.5312,4.4485,4.4233,0.0,0.0,4.4741,4.5504,4.5986,4.6521,4.7047,4.7566,4.8007,4.837,4.9421,5.0081,5.0647,5.2131,5.3007,5.3501,5.3534,5.3634,5.3766,5.4028,5.4205,5.4411,5.4665,5.4896,5.4953,5.4603,5.4175,5.375,5.3517,5.3501,5.3501,5.3501,5.3501,5.3501,5.3501,5.3501,5.3501,5.3501,5.3501,5.3501,5.3501,5.3501,5.3501,5.3501,5.3501,5.3501,5.3467,5.3467,5.3348,5.3144,5.2903,5.2449,5.1729,5.1503,5.1651,5.2255,5.2765,5.3195,5.3501,5.3501,5.3501,5.3501,5.3501,5.3501,5.3501,5.3501,5.3501,4.8106,5.0144,5.202,5.3525,5.4761,5.5702,5.6143,5.5904,5.5614,5.5614,5.5941,5.6363,5.673,5.7404,5.8118,5.8828,5.8632,5.8231,5.7741,5.7141,5.6448,5.5637,0.0,5.3053,5.1826,5.0191,0.0,0.0,0.0,0.0,4.7309,4.7309,4.7309,4.7309,4.7752,4.8091,4.8328,4.8661,4.8438,4.7651,4.7407,4.7031,4.6535,4.5973,4.5703,4.5658,0.0,4.5808,4.6254,4.6476,4.68,4.7149,4.7452,4.7681,4.7964,4.9284,5.0377,5.1311,5.2291,5.3007,5.3501,5.3501,5.3517,5.3601,5.3783,5.3865,5.3946,5.4175,5.4445,5.4617,5.4414,5.4158,5.3915,5.3668,5.3601,5.3584,5.3534,5.3501,5.3501,5.3501,5.3501,5.3501,5.3501,5.3501,5.3501,5.3501,5.3501,5.3501,5.3501,5.3501,5.3501,5.3501,5.3501,5.3433,5.323,5.2921,5.2537,5.2069,5.1831,5.1944,5.259,5.2886,5.3195,5.3501,5.3501,5.3501,5.3501,5.3501,5.3501,5.3501,5.3501,5.3501,4.8131,5.0461,5.2764,5.4664,5.567,5.633,5.6973,5.6793,5.6448,5.6312,5.6915,5.7408,5.7228,5.8377,5.9353,5.9514,5.9439,5.9089,5.8402,5.7683,5.677,5.5583,5.416,5.2857,5.1749,0.0,0.0,0.0,0.0,0.0,4.7309,4.7309,4.7309,4.7309,4.7964,4.8412,4.8687,4.9622,4.9622,4.8661,4.8615,4.8267,4.7676,4.745,4.7219,4.7001,4.7001,4.7103,4.7292,4.7249,4.7307,4.7467,4.7538,4.7709,4.7992,4.9269,5.0669,5.1987,5.2397,5.2972,5.3501,5.3501,5.3501,5.3534,5.3634,5.3651,5.3701,5.3833,5.4127,5.4367,5.4237,5.4205,5.4158,5.3948,5.3832,5.3766,5.3701,5.3618,5.3551,5.3551,5.3534,5.3501,5.3501,5.3501,5.3501,5.3501,5.3501,5.3501,5.3501,5.3501,5.3501,5.3501,5.3501,5.3348,5.3007,5.259,5.2181,5.1831,5.1851,5.2036,5.252,5.2817,5.3127,5.3501,5.3501,5.3501,5.3501,5.3501,5.3501,5.3501,5.3501,5.3501,4.8577,5.0742,5.2816,5.4997,5.6712,5.7873,5.8041,5.8639,5.8983,5.8406,5.888,5.9191,5.8502,5.9417,6.0207,5.9983,6.0282,6.026,5.9412,5.8144,5.6943,5.5963,5.433,5.3077,0.0,0.0,0.0,0.0,0.0,0.0,4.7309,4.7309,4.7309,4.7309,4.7964,4.848,4.8887,5.0128,5.0432,4.9797,4.9765,4.9566,4.9138,4.8862,4.8641,4.8434,4.8388,4.8403,4.8449,4.8225,4.8046,4.7922,4.7666,4.8007,4.8578,4.9066,5.0306,5.1786,5.22,5.2834,5.3501,5.3501,5.3501,5.3501,5.3501,5.3501,5.3534,5.3534,5.3784,5.4078,5.4173,5.4188,5.4237,5.4399,5.4318,5.4156,5.4156,5.3898,5.3684,5.3684,5.3584,5.3501,5.3501,5.3501,5.3501,5.3501,5.3501,5.3501,5.3501,5.3501,5.3501,5.3501,5.3501,5.3195,5.2414,5.1806,5.1343,5.101,5.1635,5.2076,5.2307,5.2852,5.3264,5.3518,5.3501,5.3501,5.3501,5.3501,5.3501,5.3501,5.3501,5.3501,4.8775,5.1196,5.3562,5.5188,5.6897,5.8209,5.8359,5.9075,5.9684,5.9518,5.9748,5.9838,5.9454,5.9656,5.9973,6.0207,6.032,6.0052,5.9041,5.8214,5.7322,5.6159,5.4527,5.3214,0.0,0.0,0.0,0.0,0.0,0.0,4.7309,4.7309,4.7309,4.7309,4.7964,4.8563,4.9091,5.0245,5.0892,5.1075,5.0914,5.0631,5.0221,4.9986,4.9868,4.9789,4.9599,4.9494,4.9381,4.8836,4.8438,4.8133,4.7639,4.7922,4.8646,4.9066,5.0267,5.1749,5.2164,5.2834,5.3467,5.3332,5.3298,5.3264,5.3007,5.3007,5.3093,5.2972,5.3366,5.3865,5.4124,5.4382,5.4589,5.4603,5.4509,5.435,5.422,5.3946,5.37,5.37,5.3568,5.3501,5.3501,5.3501,5.3501,5.3501,5.3501,5.3501,5.3501,5.3501,5.3501,5.3501,5.328,5.2903,5.2343,5.1623,5.1135,5.0896,5.1135,5.1512,5.2112,5.259,5.3041,5.3501,5.3501,5.3501,5.3501,5.3501,5.3501,5.3501,5.3501,5.3501,4.8984,5.1519,5.4031,5.5397,5.7116,5.8492,5.8766,5.9665,6.036,6.0056,6.0022,5.9964,5.9663,5.9653,5.9782,6.0037,5.9968,5.9615,5.8846,5.8159,5.7361,5.629,5.4665,5.3365,0.0,0.0,0.0,0.0,0.0,0.0,0.0,4.7309,4.7309,4.7309,4.7964,4.8563,4.9091,5.0245,5.1081,5.1721,5.1765,5.1586,5.1161,5.1043,5.0892,5.0761,5.0586,5.0331,4.9939,4.934,4.8785,4.8118,4.7553,4.7794,4.8563,4.8944,5.0112,5.1565,5.1967,5.2642,5.328,5.3076,5.2972,5.2852,5.2503,5.2449,5.2501,5.2433,5.287,5.3416,5.3765,5.435,5.4855,5.4865,5.4759,5.462,5.4491,5.4126,5.3766,5.3766,5.3651,5.3501,5.3501,5.3501,5.3501,5.3501,5.3501,5.3501,5.3501,5.3501,5.3501,5.3501,5.3127,5.2764,5.2343,5.1565,5.1059,5.0956,5.087,5.1161,5.1951,5.2449,5.2938,5.3501,5.3501,5.3501,5.3501,5.3501,5.3501,5.3501,5.3501,5.3501,4.9209,5.1672,5.41,5.5697,5.7408,5.8843,5.938,6.0604,6.1262,6.0068,5.9763,5.9576,5.9101,5.9475,5.978,5.9444,5.9278,5.9137,5.8999,5.7964,5.6966,5.6366,5.4831,0.0,0.0,0.0,0.0,0.0,0.0,0.0,0.0,4.7309,4.7309,4.7309,4.7964,4.848,4.8887,5.0151,5.1022,5.1515,5.2252,5.2397,5.2023,5.202,5.1786,5.1401,5.1263,5.081,5.0159,4.9741,4.8949,4.7964,4.7467,4.7724,4.837,4.8738,4.9837,5.1156,5.1565,5.2236,5.2868,5.2661,5.2449,5.2236,5.2023,5.1842,5.1749,5.1915,5.2291,5.2661,5.3009,5.4009,5.5005,5.5169,5.5096,5.4992,5.4992,5.4463,5.398,5.398,5.3718,5.3501,5.3501,5.3501,5.3501,5.3501,5.3501,5.3501,5.3501,5.3501,5.3501,5.3501,5.3127,5.2764,5.2343,5.1565,5.1118,5.1118,5.0914,5.1161,5.1951,5.259,5.3093,5.3501,5.3501,5.3501,5.3501,5.3501,5.3501,5.3501,5.3501,5.3501,5.0712,5.2936,5.4932,5.6546,5.7862,5.8927,5.9573,6.0509,6.1203,6.11,6.0978,6.0617,5.9672,5.9403,5.9201,5.882,5.8596,5.841,5.8181,5.7527,5.6881,5.6366,5.4726,0.0,0.0,0.0,0.0,0.0,0.0,0.0,0.0,4.7309,4.7309,4.7309,4.7639,4.8076,4.8671,4.9526,5.037,5.1226,5.1858,5.2255,5.243,5.2412,5.22,5.1806,5.1343,5.0701,4.9908,4.8893,4.8175,4.7666,4.7424,4.7724,4.8328,4.8604,4.951,5.0701,5.0989,5.1512,5.2004,5.1676,5.1492,5.1327,5.0707,5.0685,5.0816,5.0608,5.1124,5.1806,5.2059,5.2889,5.3814,5.4362,5.4474,5.446,5.446,5.4093,5.3783,5.3783,5.3634,5.3501,5.3501,5.3501,5.3501,5.3501,5.3501,5.3501,5.3501,5.3501,5.3501,5.3501,5.328,5.3007,5.2747,5.2236,5.1931,5.1931,5.1895,5.1967,5.2183,5.252,5.2938,5.3501,5.3501,5.3501,5.3501,5.3501,5.3501,5.3501,5.3501,5.3501,5.1478,5.3555,5.5395,5.6982,5.819,5.9197,5.9922,6.054,6.1086,6.1573,6.133,6.0772,5.9888,5.9434,5.9024,5.8556,5.8334,5.8065,5.7697,5.7264,5.6732,5.6035,0.0,0.0,0.0,0.0,0.0,0.0,0.0,0.0,0.0,4.7309,4.7309,0.0,4.751,4.7837,4.837,4.899,4.9765,5.0647,5.1327,5.1858,5.2252,5.2395,5.2272,5.1806,5.0838,4.9986,4.9325,4.8286,4.7767,4.7596,4.7236,4.7452,4.7922,4.7934,4.8641,4.9599,4.9821,5.0368,5.0881,5.0576,5.0477,5.0393,4.971,4.963,4.9725,4.955,5.0088,5.0761,5.1027,5.1753,5.268,5.3765,5.4044,5.4141,5.4188,5.3946,5.37,5.37,5.3568,5.3501,5.3501,5.3501,5.3501,5.3501,5.3501,5.3501,5.3501,5.3501,5.3501,5.3501,5.3298,5.3144,5.3041,5.2642,5.2449,5.2537,5.2449,5.2485,5.2642,5.2765,5.3041,5.3501,5.3501,5.3501,5.3501,5.3501,5.3501,5.3501,5.3501,5.3501,5.1742,5.378,5.5583,5.7219,5.852,5.9576,6.0323,6.0617,6.0896,6.1582,6.1063,6.0365,5.9906,5.9559,5.914,5.8617,5.8356,5.802,5.7486,5.7163,5.6582,5.5578,0.0,0.0,0.0,0.0,0.0,0.0,0.0,0.0,0.0,4.7309,4.7309,4.7309,4.7467,4.7709,4.7964,4.8537,4.9163,0.0,5.057,5.1177,5.1565,5.2056,5.2004,5.1492,4.9924,4.899,4.8495,4.7837,4.7596,4.7553,4.7106,4.7062,4.7251,4.6945,4.7362,4.8054,4.8247,4.8866,4.9527,4.9367,4.9374,4.934,4.8903,4.8671,4.8563,4.8738,4.9122,4.9582,4.9963,5.0685,5.168,5.3128,5.37,5.3948,5.4076,5.3881,5.3684,5.3684,5.3568,5.3501,5.3501,5.3501,5.3501,5.3501,5.3501,5.3501,5.3501,5.3501,5.3501,5.3501,5.3348,5.323,5.323,5.2886,5.2747,5.2938,5.2782,5.2852,5.3213,5.3213,5.3298,5.3518,5.3501,5.3501,5.3501,5.3467,5.3467,5.3467,5.3467,5.3433,5.2504,5.4226,5.5715,5.7951,5.9265,6.0076,6.0425,6.0635,6.0815,6.0976,6.0782,6.0466,6.0114,5.9727,5.929,5.8741,5.8483,5.8174,5.7625,5.7102,5.651,5.5872,0.0,0.0,0.0,0.0,0.0,0.0,0.0,0.0,4.7309,4.7309,4.7309,4.7309,4.7337,4.7467,4.7666,4.8007,4.848,0.0,4.9661,5.012,5.0547,5.1602,5.1492,5.047,4.9284,4.8495,4.8091,4.7596,4.7337,4.7337,4.7019,4.6931,4.6931,4.6521,4.6565,4.6871,4.6914,4.7289,4.7773,4.7689,4.7958,4.8214,4.7779,4.788,4.8091,4.7907,4.8202,4.8661,4.9097,4.9844,5.0707,5.168,5.2539,5.3179,5.3366,5.3467,5.3551,5.3551,5.3534,5.3501,5.3501,5.3501,5.3501,5.3501,5.3501,5.3501,5.3501,5.3501,5.3501,5.3501,5.3467,5.3433,5.3433,5.3348,5.3314,5.3365,5.3314,5.3348,5.3416,5.3264,5.3298,5.3518,5.3501,5.3501,5.3501,5.3348,5.3264,5.3264,5.3093,5.3024,5.2309,5.4036,5.5579,5.8425,5.9673,6.0256,6.0493,6.068,6.08,6.08,6.068,6.0453,6.0163,5.973,5.9253,5.8781,5.8483,5.8129,5.7577,5.712,5.6582,0.0,0.0,0.0,0.0,0.0,0.0,0.0,0.0,4.7666,4.7467,4.7337,4.7309,4.7309,4.7309,4.7337,4.7467,4.7666,4.8049,4.8453,4.8908,4.9381,4.9939,5.0663,5.0586,4.986,4.8893,4.8202,4.7752,4.7279,4.6975,4.6756,4.6388,4.6061,4.5763,4.5035,4.4929,4.5084,4.4978,4.5389,4.6033,4.6137,4.6594,4.7061,4.699,4.7193,4.7495,4.7467,4.7709,4.8076,4.8495,4.9259,5.012,5.0897,5.1951,5.2852,5.3144,5.3348,5.3501,5.3501,5.3501,5.3501,5.3501,5.3501,5.3501,5.3501,5.3501,5.3501,5.3501,5.3501,5.3501,5.3501,5.3501,5.3501,5.3501,5.3501,5.3501,5.3501,5.3501,5.3501,5.3501,5.3382,5.3382,5.3501,5.3501,5.3501,5.3501,5.3298,5.3144,5.3041,5.2852,5.2712,5.1377,5.3537,5.5606,5.8555,5.9741,6.027,6.0533,6.0704,6.08,6.08,6.0655,6.0425,6.0144,5.9679,5.9197,5.876,5.844,5.8042,5.7553,5.7213,5.6732,0.0,0.0,0.0,0.0,0.0,0.0,0.0,0.0,4.8007,4.7666,4.7467,4.7352,4.7309,4.7309,4.7309,4.7309,4.7467,4.7681,4.7922,4.8328,4.8769,4.93,4.9421,4.9477,4.9437,4.8604,4.7949,4.7452,4.6916,4.6476,4.6031,4.5535,4.5064,4.4513,4.3539,4.3314,4.341,4.3143,4.3606,4.442,4.4698,4.531,4.6016,4.6314,4.658,4.6829,4.7164,4.7337,4.7581,4.8118,4.8893,4.9741,5.057,5.1659,5.2661,5.3076,5.3348,5.3501,5.3501,5.3501,5.3501,5.3501,5.3501,5.3501,5.3501,5.3501,5.3501,5.3501,5.3501,5.3501,5.3501,5.3501,5.3501,5.3501,5.3501,5.3501,5.3501,5.3501,5.3501,5.3501,5.3501,5.3501,5.3501,5.3501,5.3501,5.3501,5.3264,5.3041,5.2834,5.2607,5.2395,4.9476,5.2924,5.6518,5.8061,5.934,6.027,6.0533,6.0704,6.08,6.08,6.0692,6.048,6.0144,5.976,5.9289,5.8782,5.8505,5.8219,5.781,5.7431,5.6984,0.0,0.0,0.0,0.0,0.0,0.0,0.0,4.9284,4.8537,4.7964,4.7709,4.7467,4.7309,4.7309,4.7309,4.7309,4.7352,4.7424,4.7681,4.7922,4.8118,4.8115,4.7976,4.8286,4.8934,4.8256,4.7578,4.6916,4.624,4.5806,4.5549,4.5018,4.4648,4.4355,4.3505,4.3088,4.2922,4.2422,4.259,4.3122,4.3362,4.4092,4.4975,4.5489,4.5956,4.6388,4.6844,4.696,4.7149,4.788,4.863,4.947,5.0354,5.1438,5.2449,5.2868,5.3246,5.3501,5.3501,5.3501,5.3501,5.3501,5.3501,5.3501,5.3501,5.3501,5.3501,5.3501,5.3501,5.3501,5.3501,5.3501,5.3501,5.3501,5.3501,5.3501,5.3501,5.3501,5.3501,5.3501,5.3501,5.3501,5.3501,5.3501,5.3501,5.3501,5.3127,5.2834,5.2626,5.2321,5.1977,4.9121,5.2419,5.5581,5.7257,5.8639,5.9759,6.045,6.0704,6.08,6.08,6.071,6.054,6.0232,5.9727,5.9253,5.8806,5.8489,5.8174,5.7857,5.7577,5.7264,0.0,0.0,0.0,0.0,0.0,0.0,0.0,4.9986,4.9163,4.8537,4.8076,4.7709,4.7467,4.7207,4.7062,4.7062,4.68,4.6712,4.6829,4.7106,4.7178,4.7163,4.6916,4.7249,4.7904,4.7219,4.6535,4.5853,4.5204,4.4559,4.3951,4.3743,4.341,4.3026,4.2555,4.2422,4.2387,4.1845,4.1881,4.2226,4.2506,4.2964,4.3559,4.4401,4.5003,4.5461,4.5986,4.6299,4.6653,4.7221,4.813,4.9091,4.9947,5.0989,5.1931,5.2449,5.3058,5.3501,5.3501,5.3501,5.3467,5.3348,5.3332,5.3298,5.3161,5.3161,5.3195,5.3314,5.3332,5.3332,5.3332,5.3332,5.328,5.3161,5.328,5.3332,5.3332,5.3433,5.3501,5.3501,5.3501,5.3501,5.3501,5.3584,5.3601,5.3601,5.3416,5.3128,5.2747,5.2501,5.2053,4.8859,5.1632,5.4057,5.6077,5.7847,5.9289,6.0086,6.0531,6.08,6.08,6.0753,6.0604,6.0332,5.9809,5.9308,5.8947,5.8535,5.8179,5.795,5.7745,5.7528,0.0,0.0,0.0,0.0,0.0,0.0,0.0,5.0843,4.9947,4.9097,4.8495,4.7964,4.7553,4.7062,4.6756,4.6594,4.6151,4.5927,4.6031,4.6225,4.6269,4.6225,4.5882,4.5838,4.5989,4.5734,4.5144,4.4331,4.3673,4.2909,4.2195,4.2173,4.2101,4.198,4.1845,4.1993,4.2141,4.161,4.1511,4.1597,4.1733,4.1954,4.2319,4.33,4.3904,4.4359,4.5003,4.5475,4.5867,4.6447,4.7435,4.846,4.9334,5.0384,5.1385,5.2183,5.2938,5.3416,5.3416,5.3467,5.3433,5.3213,5.3179,5.3144,5.2938,5.2903,5.2972,5.3179,5.3179,5.3179,5.3179,5.3144,5.3041,5.2817,5.2956,5.3041,5.3041,5.3246,5.3365,5.3365,5.3365,5.3348,5.3416,5.3601,5.37,5.37,5.37,5.345,5.2972,5.2782,5.2288,4.8122,5.0333,5.234,5.4418,5.6985,5.9081,5.932,6.0121,6.08,6.08,6.0753,6.0667,6.0512,6.0095,5.9624,5.9159,5.8745,5.8403,5.8219,5.795,0.0,0.0,0.0,0.0,0.0,0.0,0.0,0.0,5.1829,5.0783,4.9637,4.8949,4.816,4.7337,4.6858,4.6358,4.5867,4.5401,4.5278,4.5549,4.5549,4.5398,4.517,4.4652,4.3768,4.2689,4.3646,4.3442,4.2358,4.1366,4.0792,4.0516,4.0516,4.0995,4.1746,4.198,4.2239,4.24,4.1858,4.1511,4.1261,4.1047,4.1121,4.1508,4.2271,4.2695,4.3129,4.4078,4.4359,4.4638,4.5598,4.6579,4.7475,4.8388,4.9567,5.0919,5.2291,5.2921,5.323,5.323,5.3382,5.3433,5.3213,5.3179,5.3144,5.2938,5.2903,5.2972,5.3179,5.3179,5.3179,5.3179,5.3041,5.2817,5.2626,5.2626,5.2626,5.2626,5.2817,5.2938,5.2938,5.2938,5.3007,5.3213,5.3534,5.37,5.37,5.37,5.3517,5.3179,5.2972,5.2466,4.6072,4.8245,5.066,5.2752,5.4966,5.7078,5.8892,5.966,6.0127,6.0685,6.0788,6.0741,6.0655,6.0208,5.9741,5.9344,5.8966,5.8598,5.8297,5.8138,0.0,0.0,0.0,0.0,0.0,0.0,0.0,0.0,0.0,5.1385,5.0416,4.939,4.8449,4.7722,4.6638,4.5461,4.4153,4.4153,4.3998,4.3762,4.4106,4.412,4.3837,4.3143,4.2279,4.133,4.0413,4.0109,4.0172,3.9495,3.9055,3.8819,3.9248,3.9879,4.0706,4.1358,4.198,4.2449,4.2092,4.1683,4.1235,4.0984,4.0732,4.0618,4.1259,4.1594,4.194,4.2479,4.295,4.3497,4.4233,4.5221,4.6418,4.7954,4.911,5.0096,5.0897,5.1878,5.2712,5.2972,5.3161,5.323,5.3041,5.3007,5.2903,5.2605,5.2587,5.2676,5.2972,5.3007,5.3007,5.3007,5.2817,5.2537,5.2125,5.2181,5.2164,5.204,5.2343,5.2501,5.2501,5.2501,5.2607,5.28,5.3213,5.3551,5.3882,5.411,5.3963,5.3517,5.345,5.3008,4.4596,4.6483,4.8736,5.0854,5.2867,5.4956,5.7373,5.8246,5.8868,6.0013,6.0263,6.0359,6.0622,6.036,5.9965,5.9624,5.9234,5.8847,5.8516,5.8338,0.0,0.0,0.0,0.0,0.0,0.0,0.0,0.0,0.0,0.0,5.0951,4.9678,4.8418,4.7133,4.5853,4.448,4.2978,4.2978,4.2722,4.2257,4.2598,4.266,4.2368,4.1667,4.0869,3.9879,3.8113,3.7624,3.8089,3.7358,3.69,3.6804,3.7512,3.84,3.9442,4.0579,4.1458,4.2092,4.2079,4.167,4.1121,4.0833,4.0389,4.0032,4.0491,4.0782,4.0971,4.1335,4.1756,4.2319,4.2929,4.4125,4.557,4.7231,4.8263,4.9019,4.9614,5.0935,5.2112,5.252,5.2817,5.2956,5.2903,5.2903,5.2799,5.2605,5.2587,5.2676,5.2972,5.3007,5.2972,5.2903,5.2677,5.2324,5.1851,5.1762,5.1672,5.1545,5.1712,5.1786,5.1786,5.1786,5.1967,5.2291,5.2782,5.323,5.3717,5.4143,5.411,5.37,5.37,5.3366,0.0,0.0,0.0,4.8809,5.0845,5.284,5.4724,5.5879,5.7015,5.8763,5.9159,5.9459,6.0386,6.052,6.0365,5.9981,5.9575,5.9197,5.8865,5.8516,0.0,0.0,0.0,0.0,0.0,0.0,0.0,0.0,5.3582,5.254,5.1194,4.9892,4.8027,4.5595,4.4555,4.3505,4.2506,4.198,4.1521,4.1169,4.1169,4.1019,4.0742,4.0224,3.9403,3.8319,3.6815,3.6165,3.6022,3.4902,3.448,3.4536,3.5422,3.6642,3.806,3.9726,4.073,4.1372,4.1868,4.1534,4.0833,4.0605,4.0147,3.9736,4.0032,4.007,4.0185,4.0732,4.0883,4.1084,4.1881,4.3334,4.4961,4.6181,4.7031,4.7792,4.8682,5.0135,5.1459,5.1878,5.2291,5.2626,5.2834,5.2868,5.2903,5.2903,5.2903,5.2972,5.3179,5.3179,5.311,5.2938,5.2537,5.2181,5.1851,5.1445,5.1183,5.1183,5.093,5.08,5.0761,5.0761,5.1065,5.1639,5.2255,5.2765,5.3144,5.3717,5.3882,5.3684,5.3684,5.3517,4.2514,0.0,0.0,0.0,0.0,0.0,5.3444,5.4629,5.5622,5.6792,5.8035,5.9026,5.9437,6.0045,6.0453,6.0351,5.9972,5.9504,5.9083,5.8764,0.0,0.0,0.0,0.0,0.0,0.0,0.0,0.0,5.3862,5.2802,5.1602,4.9463,4.749,4.5748,4.462,4.341,4.2226,4.1696,4.1097,4.0415,4.0415,4.0262,3.9955,3.9401,3.8764,3.8027,3.6557,3.5411,3.4558,3.3864,3.3649,3.392,3.4591,3.5893,3.7501,3.8767,3.9891,4.0795,4.1084,4.0946,4.0555,4.0287,3.9993,3.9697,3.9788,3.9788,3.9839,3.9993,4.0185,4.0529,4.1534,4.2541,4.362,4.4915,4.5898,4.6858,4.7734,4.8682,4.9734,5.0897,5.1459,5.1842,5.2183,5.2485,5.2677,5.2694,5.2799,5.2972,5.3179,5.3179,5.3179,5.311,5.2747,5.2362,5.1984,5.1614,5.1275,5.101,5.0602,5.0315,5.0175,5.0018,5.0159,5.0608,5.1215,5.1712,5.2112,5.3247,5.3651,5.3349,5.3349,5.3365,4.1761,4.2995,4.4515,4.6297,0.0,0.0,5.1305,5.2205,5.3071,5.4813,5.6021,5.7106,5.8071,5.884,5.9434,5.9852,5.9655,5.9428,5.936,5.9082,0.0,0.0,0.0,0.0,0.0,5.674,5.6027,5.4966,5.4008,5.2751,5.1048,4.9197,4.7505,4.6032,4.4897,4.3681,4.2409,4.1796,4.0933,3.9891,3.9814,3.9413,3.8801,3.8486,3.7998,3.74,3.6297,3.519,3.4134,3.3582,3.314,3.2913,3.3639,3.4792,3.6208,3.7991,3.9221,4.007,4.0795,4.0896,4.0643,4.0338,4.0096,3.9839,3.9749,3.9697,3.9697,3.9697,3.989,4.0275,4.0997,4.1832,4.2784,4.381,4.5003,4.6121,4.7004,4.7737,4.8604,5.0026,5.0608,5.1086,5.1769,5.2219,5.2555,5.2799,5.3024,5.3195,5.3314,5.3348,5.3298,5.3213,5.2921,5.259,5.2291,5.1765,5.1317,5.1016,5.0253,4.9741,4.9533,4.9316,4.9381,4.9789,5.0509,5.1118,5.1712,5.2644,5.3093,5.3076,5.3144,5.3314,4.1356,4.2016,4.294,4.4955,4.5785,0.0,4.8626,4.9205,5.0021,5.2584,5.3423,5.4329,5.6352,5.7089,5.7768,5.8877,5.9026,5.9166,5.9633,5.9344,0.0,0.0,0.0,0.0,5.7282,5.6897,5.6203,5.4996,5.399,5.2422,5.0128,4.9132,4.7888,4.6373,4.5355,4.4186,4.2978,4.2164,4.1108,3.9763,3.9453,3.8736,3.7649,3.7596,3.7251,3.6646,3.6036,3.5312,3.448,3.392,3.3016,3.2018,3.2846,3.3797,3.4914,3.7447,3.8739,3.9428,4.0846,4.1147,4.0883,4.0643,4.0389,4.0134,3.9839,3.9736,3.9736,3.9697,3.989,4.0134,4.0402,4.1185,4.2164,4.2978,4.4308,4.5595,4.6358,4.7062,4.7907,4.9153,4.9725,5.0377,5.1364,5.1895,5.2414,5.3041,5.3298,5.3467,5.3501,5.3501,5.3416,5.3264,5.3041,5.2852,5.2696,5.1951,5.1401,5.1156,5.0042,4.9235,4.8955,4.8676,4.8687,4.905,4.9947,5.0816,5.1602,5.202,5.2466,5.2868,5.3076,5.3298,4.0781,4.1825,4.3076,4.3838,4.4754,0.0,4.6436,4.7354,4.8304,4.9166,5.0757,5.2478,5.4074,5.5335,5.6727,5.8498,5.8862,5.9106,5.9633,5.9344,0.0,0.0,0.0,0.0,5.7282,5.6897,5.6203,5.4996,5.3281,5.1898,5.0914,4.9454,4.8198,4.7364,4.6047,4.4926,4.412,4.2854,4.1743,4.0618,3.9929,3.8998,3.7933,3.772,3.7131,3.6375,3.5982,3.5444,3.4858,3.4491,3.3751,3.298,3.3572,3.4525,3.5751,3.7406,3.8622,3.9712,4.0908,4.1272,4.1222,4.1172,4.0984,4.063,4.0185,4.0032,3.9981,3.9736,3.9736,3.9839,4.0134,4.063,4.1421,4.2612,4.3748,4.4837,4.6031,4.6653,4.7236,4.7864,4.8604,4.9446,5.0338,5.1102,5.1842,5.259,5.3041,5.3298,5.3467,5.3501,5.3467,5.3467,5.3264,5.311,5.3076,5.2485,5.1895,5.1348,5.0377,4.9446,4.8702,4.8343,4.816,4.8244,4.9259,5.0159,5.0989,5.1598,5.2161,5.2661,5.2852,5.3161,4.0775,4.1493,4.2277,4.2895,0.0,0.0,0.0,4.5258,4.6005,4.6916,4.8253,4.9753,5.1313,5.2491,5.3864,5.5885,5.6323,5.6873,5.8203,5.8859,5.9024,0.0,0.0,0.0,5.7282,5.6767,5.5869,5.4394,5.2768,5.1549,5.0854,4.9494,4.8407,4.7609,4.6609,4.5625,4.4741,4.3729,4.2466,4.1058,4.0389,3.931,3.7797,3.7507,3.6796,3.5817,3.5664,3.5444,3.5235,3.5323,3.5201,3.4925,3.458,3.4914,3.585,3.782,3.908,4.0007,4.1544,4.215,4.2248,4.2088,4.1891,4.1544,4.087,4.0427,4.0083,3.9929,3.9788,3.9749,3.989,4.0389,4.1134,4.2052,4.3239,4.4434,4.5429,4.6121,4.6697,4.7149,4.7694,4.8495,4.9701,5.057,5.1364,5.204,5.2485,5.2782,5.2868,5.2903,5.2903,5.2903,5.2817,5.2747,5.2747,5.2324,5.1802,5.129,5.0299,4.9421,4.862,4.8202,4.8091,4.8301,4.8965,4.9717,5.0493,5.1135,5.1838,5.2609,5.2817,5.3127,4.0615,0.0,4.1149,0.0,0.0,4.258,0.0,0.0,0.0,4.4867,4.5767,4.6862,4.8615,0.0,0.0,0.0,0.0,0.0,0.0,5.772,0.0,0.0,0.0,0.0,0.0,5.6348,5.5231,5.3716,5.2345,5.1268,5.0563,4.947,4.8506,4.7752,4.7019,4.6225,4.5261,4.4448,4.3143,4.1369,4.0833,3.9569,3.7744,3.7292,3.6472,3.5378,3.5356,3.5345,3.5433,3.6102,3.6592,3.6862,3.5795,3.5619,3.622,3.8493,3.979,4.0641,4.2417,4.3218,4.3457,4.3239,4.284,4.2271,4.1644,4.087,4.0185,4.0121,3.9929,3.9697,3.9697,4.0236,4.0883,4.1484,4.2639,4.3837,4.4694,4.5429,4.6061,4.6521,4.6887,4.7581,4.9138,4.9986,5.0707,5.1401,5.1822,5.2092,5.2164,5.22,5.22,5.22,5.22,5.22,5.22,5.1891,5.1524,5.1005,5.0136,4.9316,4.8578,4.8133,4.8049,4.8495,4.8733,4.9291,5.012,5.0663,5.1438,5.2485,5.2764,5.3093,0.0,0.0,0.0,0.0,4.0706,0.0,0.0,0.0,4.1432,4.2189,0.0,0.0,0.0,0.0,0.0,0.0,0.0,0.0,5.5107,5.5368,5.5948,0.0,0.0,0.0,0.0,5.5243,5.4023,5.3247,5.1934,5.0968,5.0509,4.9325,4.8537,4.8244,4.7351,4.6521,4.5747,4.4745,4.345,4.1878,4.1172,3.9955,3.825,3.7483,3.6503,3.5378,3.5135,3.5191,3.5488,3.6309,3.7131,3.7814,3.7364,3.7566,3.8202,3.9454,4.068,4.1976,4.3396,4.4167,4.4541,4.4513,4.3545,4.2368,4.2025,4.1209,4.0402,4.0185,3.9929,3.9697,3.9697,3.9929,4.0377,4.1172,4.1792,4.2563,4.3837,4.4527,4.5035,4.558,4.6031,4.6814,4.8438,4.9081,4.9718,5.0745,5.1102,5.138,5.1712,5.1749,5.1749,5.1749,5.1749,5.1749,5.1749,5.1549,5.1177,5.0602,5.0152,4.9396,4.837,4.7709,4.7596,4.8049,4.826,4.8908,4.9916,5.0175,5.093,5.2073,5.2642,5.3007,0.0,0.0,0.0,0.0,0.0,0.0,3.9326,0.0,3.9798,0.0,0.0,0.0,0.0,0.0,0.0,0.0,4.9256,0.0,0.0,0.0,5.3261,0.0,0.0,0.0,0.0,0.0,0.0,0.0,0.0,5.0221,4.9789,4.8811,4.8118,4.7922,4.7409,4.68,4.6031,4.5218,4.3984,4.2452,4.1558,4.0249,3.8594,3.7725,3.6708,3.5642,3.5356,3.5467,3.5982,3.7,3.8003,3.9,3.9494,3.9442,3.9248,4.0503,4.1594,4.2647,4.4106,4.4986,4.5398,4.537,4.4513,4.3491,4.306,4.199,4.0883,4.063,4.0134,3.9697,3.9697,3.989,4.0224,4.0744,4.1222,4.1891,4.2854,4.3368,4.3843,4.4666,4.4943,4.5477,4.6564,4.7546,4.8444,4.9044,4.9503,4.9876,5.0073,5.019,5.0267,5.0267,5.0267,5.0267,5.0267,5.019,4.9955,4.9574,4.9081,4.8537,4.7922,4.751,4.7424,4.7752,4.8007,4.8453,4.9138,4.9622,5.0159,5.08,5.1878,5.2555,3.8648,0.0,0.0,0.0,0.0,0.0,0.0,0.0,0.0,0.0,0.0,0.0,0.0,0.0,4.4649,4.5836,0.0,4.749,0.0,0.0,0.0,0.0,0.0,0.0,0.0,0.0,0.0,0.0,0.0,0.0,4.8984,4.8271,4.7794,4.7639,4.7381,4.6946,4.621,4.5551,4.442,4.2902,4.194,4.0706,3.9117,3.8149,3.7138,3.6122,3.5785,3.6004,3.658,3.7631,3.8779,4.0083,4.1095,4.1232,4.0906,4.1805,4.2674,4.3606,4.4865,4.5671,4.618,4.6121,4.5415,4.4494,4.3965,4.2674,4.1335,4.0984,4.0338,3.9697,3.9697,3.9839,4.0083,4.0338,4.0681,4.1159,4.1828,4.2222,4.2647,4.3416,4.3654,4.3829,4.4377,4.581,4.7073,4.7475,4.7985,4.8377,4.8501,4.8723,4.8805,4.8749,4.8749,4.8708,4.8666,4.8666,4.8584,4.8335,4.7834,4.7437,4.7322,4.7121,4.7164,4.751,4.7724,4.8049,4.8537,4.9031,4.9381,4.967,5.1086,5.1951,0.0,0.0,0.0,3.6845,0.0,0.0,0.0,0.0,3.7003,0.0,0.0,0.0,0.0,0.0,4.3731,4.4934,4.5711,0.0,0.0,0.0,0.0,0.0,0.0,0.0,0.0,0.0,0.0,0.0,0.0,0.0,4.837,4.788,4.7639,4.7581,4.7381,4.6946,4.621,4.573,4.4694,4.317,4.2409,4.1372,4.0019,3.8896,3.7885,3.7031,3.6526,3.658,3.7138,3.8043,3.9364,4.0933,4.1693,4.2757,4.379,4.3314,4.3965,4.5113,4.5597,4.624,4.6887,4.6887,4.6061,4.4972,4.4466,4.3047,4.1597,4.1034,4.0338,3.9697,3.9697,3.9697,3.9788,4.0032,4.0134,4.0275,4.0833,4.1172,4.1408,4.1746,4.1954,4.2075,4.2124,4.3989,4.5719,4.6447,4.674,4.703,4.7475,4.7761,4.7846,4.7561,4.7561,4.749,4.7276,4.7276,4.7204,4.7003,4.6506,4.6358,4.6639,4.6358,4.658,4.7309,4.7309,4.7639,4.8286,4.8328,4.8563,4.8969,5.0438,5.1252,0.0,0.0,3.5671,3.592,0.0,0.0,0.0,0.0,0.0,0.0,0.0,0.0,0.0,0.0,4.219,4.2797,4.3483,4.4248,0.0,0.0,0.0,0.0,0.0,0.0,0.0,0.0,0.0,0.0,4.8301,0.0,0.0,4.7553,4.7381,4.7381,4.7352,4.7077,4.6653,4.6016,4.5187,4.4186,4.306,4.1967,4.087,3.9712,3.8832,3.8214,3.7655,3.7655,3.8015,3.9052,4.0122,4.1246,4.2757,4.4012,4.4926,4.4387,4.4745,4.5642,4.6284,4.68,4.7164,4.6975,4.6284,4.5415,4.4559,4.3177,4.1756,4.1084,4.0338,3.9697,3.9697,3.9697,3.9749,3.9788,3.9839,3.9929,4.0275,4.0427,4.063,4.1084,4.1235,4.1309,4.1508,4.2173,4.3006,4.3895,4.4702,4.5207,4.5389,4.5764,4.6003,4.5899,4.5899,4.5854,4.5824,4.5824,4.5779,4.5703,4.5582,4.5506,4.5597,4.5716,4.5851,4.609,4.6388,4.6697,4.6901,4.7409,4.7709,4.7864,4.8795,4.9749,3.6034,3.5472,0.0,3.5045,3.4924,0.0,3.5239,0.0,0.0,0.0,0.0,0.0,0.0,0.0,4.1207,4.1459,4.2142,4.2985,0.0,4.5399,0.0,0.0,0.0,4.8431,0.0,0.0,4.766,4.6905,4.7235,0.0,0.0,0.0,4.7309,4.7309,4.7309,4.7164,4.6916,4.6343,4.5702,4.4989,4.3871,4.2771,4.1644,4.0541,3.9737,3.9077,3.8514,3.8461,3.8788,3.975,4.0693,4.1667,4.3416,4.4773,4.5716,4.5461,4.5822,4.6506,4.696,4.7236,4.7337,4.7019,4.6417,4.5597,4.4591,4.3211,4.1842,4.1121,4.0338,3.9697,3.9697,3.9697,3.9697,3.9697,3.9697,3.9736,3.9929,3.9981,4.0083,4.0389,4.0491,4.0542,4.0681,4.082,4.1209,4.2235,4.3081,4.364,4.3735,4.4219,4.4513,4.4312,4.4266,4.4219,4.4031,4.3984,4.3984,4.3984,4.3984,4.4031,4.4125,4.4373,4.462,4.4805,4.5264,4.5642,4.5837,4.6388,4.6712,4.68,4.7394,4.8172]}]]